     2.11           OBSERVATION DATA    G (GPS)             RINEX VERSION / TYPE
teqc 2010Oct21 OPUS Account 20111027 20:48:06UTC            PGM / RUN BY / DATE
D 1526                                                      MARKER NAME
3040                                                        MARKER NUMBER
CSMIDDLETON NGS                                             OBSERVER / AGENCY
4624K01590 TRIMBLE NETR5 4.41                               REC # / TYPE / VERS
12236910 TRM41249.00 NONE                                   ANT # / TYPE
  -754762.8550 -5563712.4582  3015829.2200                  APPROX POSITION XYZ
        2.0010        0.0000        0.0000                  ANTENNA: DELTA H/E/N
     1     1                                                WAVELENGTH FACT L1/2
     5    L1    L2    C1    P1    P2                        # / TYPES OF OBSERV
    15                                                      LEAP SECONDS
  2011     8    20     0     0    0.0000000     GPS         TIME OF FIRST OBS
                                                            END OF HEADER
 11  8 20  0  0  0.0000000  0  7G09G02G10G17G04G12G05
 121289507.71217  94511364.56754  23080630.281                    23080640.105
 108635163.27918  84650890.20856  20672568.609                    20672573.762
 110302472.48318  85950080.60756  20989847.984                    20989855.910
 119789534.45917  93342536.59117  22795180.914                    22795188.883
 111055501.14018  86536867.27956  21133143.742                    21133151.211
 115517452.31717  90013654.04417  21982241.422                    21982248.715
 119392893.47817  93033532.50817  22719706.586                    22719715.824
 11  8 20  0  0 30.0000000  0  7G09G02G10G17G04G12G05
 121357872.989 7  94564636.12244  23093640.344                    23093649.977
 108622362.557 8  84640915.63246  20670132.953                    20670138.055
 110277551.049 8  85930661.32046  20985105.906                    20985113.324
 119836029.707 7  93378766.602 7  22804028.508                    22804036.914
 111124917.627 8  86590958.03046  21146353.227                    21146360.938
 115441762.013 7  89954674.618 7  21967838.086                    21967845.313
 119293175.942 7  92955830.616 7  22700731.219                    22700740.395
 11  8 20  0  1  0.0000000  0  7G09G02G10G17G04G12G05
 121426542.862 7  94618145.05044  23106707.633                    23106717.281
 108609891.768 8  84631198.15146  20667759.672                    20667764.629
 110253225.690 8  85911706.51446  20980476.883                    20980484.496
 119882655.477 7  93415098.317 7  22812901.570                    22812909.469
 111194557.598 8  86645222.93346  21159605.414                    21159612.672
 115366397.591 7  89895949.116 7  21953496.602                    21953503.906
 119193642.954 7  92878272.523 7  22681790.664                    22681799.328
 11  8 20  0  1 30.0000000  0  7G09G02G10G17G04G12G05
 121495514.163 7  94671888.84444  23119832.125                    23119841.672
 108597749.790 8  84621736.88146  20665449.023                    20665454.520
 110229498.138 8  85893217.52846  20975961.156                    20975969.441
 119929412.352 7  93451532.197 7  22821799.125                    22821807.164
 111264418.720 8  86699660.14946  21172899.336                    21172907.496
 115291361.656 7  89837479.581 7  21939217.773                    21939225.215
 119094297.349 7  92800860.448 7  22662885.555                    22662894.816
 11  8 20  0  2  0.0000000  0  7G09G02G10G17G04G12G05
 121564783.503 7  94725864.87444  23133013.570                    23133023.332
 108585935.984 8  84612531.32246  20663201.016                    20663206.406
 110206369.975 8  85875195.61046  20971560.469                    20971568.383
 119976301.219 7  93488068.933 7  22830721.664                    22830729.965
 111334498.721 8  86754267.92046  21186235.094                    21186243.094
 115216656.951 7  89779268.146 7  21925001.711                    21925009.078
 118995142.267 7  92723596.836 7  22644017.438                    22644026.379
 11  8 20  0  2 30.0000000  0  7G09G02G10G17G04G12G05
 121634347.738 7  94780070.70844  23146251.250                    23146261.133
 108574449.446 8  84603580.78746  20661015.211                    20661020.492
 110183842.508 8  85857641.76046  20967273.563                    20967281.336
 120023322.504 7  93524708.867 7  22839669.313                    22839677.566
 111404795.654 8  86809044.73746  21199612.344                    21199619.727
 115142286.204 8  89721316.949 7  21910849.789                    21910857.063
 118896180.938 7  92646484.197 7  22625185.398                    22625194.543
 11  8 20  0  3  0.0000000  0  7G09G02G10G17G04G12G05
 121704203.239 7  94834503.48744  23159544.883                    23159554.297
 108563289.012 8  84594884.35246  20658891.375                    20658896.660
 110161916.849 8  85840556.84646  20963101.031                    20963109.121
 120070476.865 7  93561452.489 7  22848642.453                    22848650.535
 111475306.985 8  86863988.61546  21213029.797                    21213037.559
 115068251.628 7  89663627.691 7  21896761.219                    21896768.715
 118797415.912 7  92569524.526 7  22606390.852                    22606399.840
 11  8 20  0  3 30.0000000  0  7G09G02G10G17G04G12G05
 121774346.950 7  94889160.86444  23172892.688                    23172902.059
 108552454.608 8  84586441.97046  20656829.891                    20656835.086
 110140594.782 8  85823942.26746  20959043.750                    20959051.703
 120117765.396 7  93598300.638 7  22857641.164                    22857649.672
 111546030.843 8  86919098.09946  21226488.258                    21226495.879
 114994556.439 8  89606202.900 7  21882737.805                    21882745.113
 118698850.773 7  92492720.618 7  22587634.875                    22587644.008
 11  8 20  0  4  0.0000000  0  7G09G02G10G17G04G12G05
 121844775.291 7  94944040.00944  23186294.492                    23186304.449
 108541945.099 8  84578252.74646  20654829.734                    20654834.973
 110119877.238 8  85807798.74946  20955101.258                    20955109.207
 120165188.730 7  93635253.823 7  22866665.922                    22866673.266
 111616964.849 8  86974371.33746  21239986.461                    21239994.410
 114921202.851 8  89549044.285 7  21868778.781                    21868785.816
 118600488.523 7  92416074.798 7  22568916.563                    22568925.844
 11  8 20  0  4 30.0000000  0  8G30G09G02G10G17G04G12G05
 128033582.65215  99766480.69253  24363985.859                    24363994.207
 121915485.351 7  94999138.67744  23199750.164                    23199760.344
 108531759.406 8  84570315.85246  20652891.266                    20652896.625
 110099765.456 8  85792127.25446  20951274.039                    20951281.520
 120212747.108 7  93672312.247 7  22875715.305                    22875723.523
 111688106.837 8  87029806.63146  21253524.750                    21253532.160
 114848193.522 8  89492153.927 7  21854885.563                    21854892.813
 118502331.862 7  92339589.184 7  22550237.594                    22550247.379
 11  8 20  0  5  0.0000000  0  8G30G09G02G10G17G04G12G05
 127928231.460 5  99684388.89042  24343938.156                    24343948.152
 121986473.699 7  95054454.19744  23213259.336                    23213268.781
 108521896.832 8  84562630.73946  20651014.672                    20651020.152
 110080260.861 8  85776928.89846  20947562.125                    20947570.105
 120260441.670 6  93709476.774 7  22884791.297                    22884799.672
 111759454.910 8  87085402.51246  21267101.813                    21267109.242
 114775531.208 8  89435533.973 7  21841058.117                    21841065.406
 118404384.459 7  92263266.632 7  22531598.969                    22531608.324
 11  8 20  0  5 30.0000000  0  8G30G09G02G10G17G04G12G05
 127823052.705 6  99602431.49043  24323922.867                    24323933.180
 122057737.797 7  95109984.59744  23226820.383                    23226829.992
 108512357.046 8  84555197.14346  20649199.180                    20649204.535
 110061365.911 8  85762205.57846  20943966.547                    20943974.746
 120308273.908 7  93746748.606 6  22893893.688                    22893902.027
 111831007.352 8  87141157.64346  21280717.609                    21280725.551
 114703219.141 8  89379186.936 7  21827297.813                    21827304.813
 118306649.671 7  92187109.736 7  22513000.500                    22513009.984
 11  8 20  0  6  0.0000000  0  8G30G09G02G10G17G04G12G05
 127718047.982 6  99520609.68643  24303942.648                    24303951.383
 122129273.092 7  95165726.31944  23240433.008                    23240442.801
 108503137.891 8  84548013.39346  20647445.031                    20647450.297
 110043080.159 8  85747956.96046  20940486.992                    20940495.016
 120356243.076 7  93784127.141 6  22903022.125                    22903030.328
 111902760.804 8  87197069.41046  21294371.719                    21294379.727
 114631258.876 8  89323114.030 7  21813604.109                    21813611.148
 118209129.398 7  92111120.013 7  22494443.406                    22494452.184
 11  8 20  0  6 30.0000000  0  8G30G09G02G10G17G04G12G05
 127613219.866 6  99438925.49743  24283993.906                    24284003.578
 122201075.888 7  95221676.47344  23254096.695                    23254106.242
 108494238.302 8  84541078.66046  20645751.438                    20645756.332
 110025404.472 8  85734183.71746  20937123.344                    20937131.094
 120404349.602 7  93821612.716 7  22912176.898                    22912183.945
 111974712.745 8  87253135.84146  21308063.906                    21308071.777
 114559652.947 7  89267317.238 7  21799978.102                    21799985.266
 118111826.340 7  92035299.534 7  22475926.945                    22475936.012
 11  8 20  0  7  0.0000000  0  9G30G25G09G02G10G17G04G12G05
 127508571.371 6  99357381.28844  24264080.531                    24264088.914
 129651485.55116 101027207.95616  24671863.023                    24671874.594
 122273142.988 7  95277832.58144  23267810.828                    23267820.395
 108485657.503 8  84534392.31946  20644118.734                    20644123.738
 110008340.091 8  85720886.82346  20933876.031                    20933884.176
 120452594.380 7  93859206.013 7  22921357.078                    22921364.895
 112046861.447 8  87309355.58846  21321793.438                    21321801.125
 114488403.688 8  89211798.368 7  21786419.414                    21786427.172
 118014743.667 7  91959650.776 7  22457452.742                    22457461.781
 11  8 20  0  7 30.0000000  0  9G30G25G09G02G10G17G04G12G05
 127404105.422 6  99275979.29144  24244201.211                    24244210.141
 129548192.005 5 100946719.567 6  24652207.227                    24652218.512
 122345471.054 6  95334192.05344  23281573.977                    23281583.707
 108477394.728 8  84527953.80546  20642546.336                    20642551.328
 109991888.042 8  85708067.06646  20930745.563                    20930753.215
 120500978.122 7  93896907.594 7  22930564.250                    22930572.105
 112119204.676 8  87365726.91046  21335559.820                    21335567.289
 114417513.686 7  89156559.439 7  21772929.484                    21772936.754
 117917884.306 7  91884176.039 7  22439020.414                    22439029.574
 11  8 20  0  8  0.0000000  0  9G30G25G09G02G10G17G04G12G05
 127299824.635 6  99194721.57843  24224356.758                    24224365.746
 129445002.083 6 100866311.951 6  24632570.047                    24632582.340
 122418056.791 7  95390752.27944  23295386.820                    23295397.000
 108469448.991 8  84521762.32146  20641034.063                    20641039.359
 109976049.712 8  85695725.53446  20927731.633                    20927739.121
 120549501.510 7  93934718.006 7  22939798.445                    22939806.438
 112191740.001 8  87422247.92245  21349362.859                    21349370.758
 114346985.661 7  89101602.567 7  21759508.531                    21759515.602
 117821251.657 7  91808877.949 7  22420632.125                    22420641.160
 11  8 20  0  8 30.0000000  0  9G30G25G09G02G10G17G04G12G05
 127195731.701 7  99113610.24344  24204548.664                    24204557.395
 129341918.262 6 100785986.969 7  24612954.203                    24612966.035
 122490896.564 6  95447510.45544  23309247.758                    23309258.316
 108461819.054 8  84515816.92146  20639581.898                    20639587.398
 109960825.883 8  85683862.82946  20924834.484                    20924842.383
 120598165.059 7  93972637.626 6  22949059.164                    22949066.434
 112264465.516 7  87478917.14245  21363201.695                    21363210.148
 114276822.158 8  89046929.736 7  21746156.727                    21746164.055
 117724848.465 7  91733758.652 7  22402287.094                    22402296.023
 11  8 20  0  9  0.0000000  0  9G30G25G09G02G10G17G04G12G05
 127091829.318 7  99032647.38843  24184776.852                    24184785.480
 129238942.603 6 100705746.259 7  24593358.461                    24593370.441
 122563986.942 7  95504463.91644  23323156.438                    23323166.613
 108454503.836 8  84510116.75346  20638189.883                    20638195.199
 109946217.159 8  85672479.43146  20922054.320                    20922062.102
 120646969.292 7  94010666.870 7  22958345.742                    22958354.234
 112337378.667 8  87535732.56146  21377077.188                    21377085.289
 114207025.462 7  88992542.726 7  21732874.859                    21732882.207
 117628677.592 7  91658820.380 7  22383986.367                    22383995.445
 11  8 20  0  9 30.0000000  0  9G30G25G09G02G10G17G04G12G05
 126988120.137 6  98951835.07243  24165041.234                    24165050.156
 129136077.622 6 100625591.793 7  24573784.625                    24573795.793
 122637324.713 7  95561610.13544  23337113.117                    23337122.637
 108447502.277 8  84504661.00946  20636858.031                    20636863.070
 109932224.521 8  85661576.09046  20919391.766                    20919399.691
 120695914.649 7  94048806.087 7  22967659.563                    22967668.164
 112410477.355 8  87592692.55946  21390987.102                    21390994.770
 114137598.078 7  88938443.490 7  21719663.320                    21719670.828
 117532741.869 7  91584065.340 7  22365730.430                    22365739.230
 11  8 20  0 10  0.0000000  0  9G30G25G09G02G10G17G04G12G05
 126884607.223 6  98871175.69943  24145343.742                    24145352.055
 129033326.048 7 100545525.679 7  24554231.367                    24554242.816
 122710906.411 7  95618946.44444  23351114.516                    23351124.168
 108440813.467 8  84499448.95946  20635584.875                    20635590.305
 109918849.412 8  85651153.95346  20916846.531                    20916854.574
 120745001.886 7  94087055.858 7  22977001.039                    22977009.117
 112483759.370 8  87649795.39946  21404932.055                    21404940.090
 114068542.598 8  88884634.046 7  21706522.664                    21706530.137
 117437044.290 7  91509495.880 7  22347519.516                    22347528.641
 11  8 20  0 10 30.0000000  0  9G30G25G09G02G10G17G04G12G05
 126781293.356 6  98790671.45043  24125683.352                    24125692.309
 128930690.415 7 100465549.908 6  24534700.000                    24534711.855
 122784729.007 7  95676470.46644  23365162.609                    23365172.875
 108434436.784 8  84494480.12546  20634371.383                    20634376.668
 109906092.383 8  85641213.42846  20914419.047                    20914426.750
 120794231.999 7  94125416.949 7  22986368.695                    22986377.320
 112557222.537 8  87707039.40545  21418911.711                    21418919.914
 113999861.442 7  88831116.276 7  21693453.078                    21693459.910
 117341588.142 7  91435114.546 7  22329355.031                    22329363.508
 11  8 20  0 11  0.0000000  0  9G30G25G09G02G10G17G04G12G05
 126678181.284 6  98710324.39442  24106060.844                    24106070.484
 128828173.082 7 100385666.305 6  24515191.750                    24515203.004
 122858788.875 7  95734179.35644  23379256.242                    23379266.551
 108428370.830 8  84489753.42446  20633216.734                    20633221.965
 109893954.349 8  85631755.22746  20912109.219                    20912116.867
 120843605.417 7  94163889.709 7  22995764.188                    22995772.789
 112630865.020 8  87764423.14245  21432925.750                    21432933.492
 113931557.487 8  88777892.434 7  21680455.219                    21680462.027
 117246376.180 7  91360923.484 7  22311236.406                    22311245.426
 11  8 20  0 11 30.0000000  0  9G30G25G09G02G10G17G04G12G05
 126575273.945 5  98630136.80242  24086478.828                    24086488.480
 128725776.863 7 100305877.099 6  24495706.734                    24495717.652
 122933082.490 7  95792070.41044  23393393.578                    23393403.586
 108422614.808 8  84485268.23346  20632121.891                    20632127.074
 109882436.386 8  85622780.21146  20909917.242                    20909925.273
 120893122.872 7  94202474.708 7  23005186.656                    23005195.754
 112704684.546 8  87821944.82746  21446973.203                    21446980.895
 113863632.850 7  88724964.155 7  21667529.719                    21667536.289
 117151411.570 7  91286925.162 7  22293165.758                    22293174.484
 11  8 20  0 12  0.0000000  0  9G30G25G09G02G10G17G04G12G05
 126472573.991 5  98550110.95042  24066936.203                    24066945.180
 128623503.963 7 100226183.968 6  24476244.219                    24476255.418
 123007606.392 7  95850140.89445  23407574.930                    23407585.449
 108417167.348 8  84481023.46946  20631085.211                    20631090.527
 109871539.090 8  85614288.82446  20907843.563                    20907851.539
 120942784.633 7  94241172.156 7  23014637.180                    23014645.820
 112778678.902 8  87879602.74945  21461053.789                    21461061.855
 113796090.107 7  88672333.466 7  21654676.617                    21654683.609
 117056696.873 7  91213121.575 7  22275142.094                    22275150.527
 11  8 20  0 12 30.0000000  0  9G30G25G09G02G10G17G04G12G05
 126370084.244 5  98470248.91242  24047432.367                    24047441.953
 128521356.982 6 100146588.956 6  24456806.406                    24456816.801
 123082357.371 7  95908388.33044  23421800.133                    23421810.078
 108412027.776 8  84477018.62746  20630107.445                    20630112.578
 109861263.194 8  85606281.64246  20905888.461                    20905896.250
 120992591.446 7  94279982.614 7  23024115.352                    23024124.273
 112852846.001 8  87937395.28745  21475167.211                    21475175.266
 113728931.925 7  88620002.430 7  21641896.906                    21641904.199
 116962235.882 7  91139515.690 7  22257166.688                    22257175.363
 11  8 20  0 13  0.0000000  0  9G30G25G09G02G10G17G04G12G05
 126267807.541 6  98390552.89643  24027969.984                    24027979.211
 128419338.330 6 100067093.930 5  24437393.750                    24437403.703
 123157331.775 7  95966809.84845  23436066.844                    23436077.242
 108407194.813 8  84473252.69346  20629187.547                    20629192.551
 109851609.523 8  85598759.31146  20904051.047                    20904059.027
 121042544.176 7  94318906.768 7  23033621.172                    23033629.832
 112927183.585 8  87995320.66645  21489313.336                    21489321.152
 113662160.655 8  88567972.879 7  21629190.539                    21629197.438
 116868030.860 7  91066109.268 7  22239239.508                    22239248.621
 11  8 20  0 13 30.0000000  0  9G30G25G09G02G10G17G04G12G05
 126165746.772 6  98311025.11443  24008547.813                    24008557.828
 128317450.678 6  99987700.964 5  24418004.453                    24418015.383
 123232526.272 7  96025402.87244  23450376.461                    23450386.094
 108402667.486 8  84469724.92046  20628326.031                    20628331.379
 109842579.105 7  85591722.63646  20902333.031                    20902340.727
 121092643.405 7  94357945.075 6  23043154.852                    23043163.457
 113001689.739 8  88053377.38645  21503491.234                    21503499.684
 113595778.682 7  88516246.677 7  21616558.367                    21616565.539
 116774084.631 7  90992904.483 7  22221362.766                    22221371.176
 11  8 20  0 14  0.0000000  0  9G30G25G09G02G10G17G04G12G05
 126063904.694 6  98231667.74544  23989168.906                    23989177.527
 128215696.494 6  99908412.027 5  24398640.156                    24398651.852
 123307937.663 7  96084164.90744  23464726.664                    23464736.656
 108398444.880 8  84466434.59246  20627522.453                    20627528.043
 109834172.354 8  85585171.92646  20900733.070                    20900740.719
 121142889.649 7  94397097.968 6  23052716.570                    23052724.465
 113076362.249 8  88111563.74345  21517701.086                    21517709.051
 113529788.642 7  88464825.882 7  21604001.195                    21604008.012
 116680400.461 7  90919903.917 7  22203534.602                    22203543.672
 11  8 20  0 14 30.0000000  0  9G30G25G09G02G10G17G04G12G05
 125962283.924 7  98152482.80144  23969831.094                    23969839.398
 128114078.165 6  99829229.008 6  24379303.078                    24379314.859
 123383562.354 7  96143093.14944  23479117.617                    23479127.625
 108394525.618 7  84463380.62946  20626776.695                    20626781.668
 109826389.417 7  85579107.31046  20899252.070                    20899259.820
 121193283.240 7  94436365.666 6  23062306.086                    23062314.500
 113151198.722 8  88169877.86445  21531942.219                    21531949.813
 113464192.620 7  88413712.114 7  21591518.719                    21591525.727
 116586981.703 7  90847110.155 7  22185757.406                    22185766.563
 11  8 20  0 15  0.0000000  0  9G30G25G09G02G10G17G04G12G05
 125860887.595 7  98073472.74144  23950536.086                    23950544.730
 128012598.491 6  99750154.029 6  24359991.992                    24360003.770
 123459397.080 7  96202185.05644  23493548.492                    23493558.590
 108390908.908 7  84460562.42746  20626088.320                    20626093.797
 109819231.600 8  85573529.79346  20897889.742                    20897897.242
 121243825.163 7  94475748.948 6  23071924.016                    23071931.340
 113226197.397 8  88228318.37245  21546213.586                    21546221.438
 113398993.525 7  88362907.636 7  21579111.477                    21579118.777
 116493830.744 7  90774525.063 7  22168031.789                    22168039.688
 11  8 20  0 15 30.0000000  0  9G30G25G09G02G10G17G04G12G05
 125759718.398 7  97994639.64844  23931283.539                    23931292.805
 127911260.014 6  99671189.059 6  24340708.609                    24340720.074
 123535438.482 7  96261437.99644  23508018.813                    23508029.094
 108387593.570 8  84457979.06346  20625457.438                    20625462.496
 109812699.268 8  85568439.67446  20896646.539                    20896654.441
 121294515.846 7  94515248.160 6  23081570.484                    23081577.680
 113301356.163 8  88286883.63645  21560516.141                    21560524.066
 113334193.733 7  88312414.306 7  21566780.484                    21566787.570
 116400950.188 7  90702150.676 7  22150356.969                    22150365.289
 11  8 20  0 16  0.0000000  0  9G30G25G09G02G10G17G04G12G05
 125658779.042 7  97915985.67544  23912075.125                    23912084.250
 127810065.186 6  99592336.026 6  24321451.703                    24321463.246
 123611682.849 7  96320849.09644  23522527.719                    23522537.988
 108384578.486 7  84455629.65346  20624883.688                    20624889.031
 109806792.976 8  85563837.37346  20895522.953                    20895530.707
 121345356.007 7  94554863.833 6  23091244.875                    23091252.641
 113376672.892 8  88345571.98745  21574848.172                    21574855.961
 113269795.554 8  88262233.921 7  21554526.141                    21554533.352
 116308343.536 7  90629989.725 7  22132734.453                    22132742.758
 11  8 20  0 16 30.0000000  0  9G30G25G09G02G10G17G04G12G05
 125558072.538 7  97837513.13244  23892911.898                    23892920.648
 127709016.605 7  99513596.968 7  24302222.914                    24302234.449
 123688126.971 7  96380415.84344  23537073.969                    23537085.188
 108381862.806 8  84453513.55646  20624366.828                    20624371.961
 109801513.555 8  85559723.54646  20894518.258                    20894525.832
 121396346.444 7  94594596.605 6  23100947.930                    23100955.469
 113452145.290 8  88404381.62845  21589210.102                    21589218.129
 113205801.377 7  88212368.339 7  21542348.188                    21542355.598
 116216013.488 7  90558044.305 7  22115164.664                    22115173.254
 11  8 20  0 17  0.0000000  0  9G30G25G09G02G10G17G04G12G05
 125457601.524 7  97759224.09044  23873792.352                    23873801.387
 127608116.749 7  99434973.761 7  24283022.711                    24283033.844
 123764767.585 6  96440135.71443  23551658.328                    23551668.527
 108379445.075 7  84451629.62546  20623906.859                    20623912.199
 109796860.923 8  85556098.13246  20893633.188                    20893640.266
 121447487.195 7  94634446.502 6  23110679.922                    23110687.281
 113527771.653 8  88463311.24045  21603601.453                    21603609.488
 113142213.446 8  88162819.314 7  21530247.891                    21530255.199
 116123962.940 7  90486316.672 7  22097647.688                    22097656.328
 11  8 20  0 17 30.0000000  0  9G30G25G09G02G10G17G04G12G05
 125357369.438 6  97681121.21743  23854719.250                    23854727.227
 127507368.728 7  99356468.881 7  24263850.328                    24263861.645
 123841601.462 7  96500006.18144  23566279.867                    23566290.086
 108377324.958 7  84449977.59846  20623503.180                    20623508.547
 109792836.309 7  85552962.07746  20892867.094                    20892874.547
 121498779.605 7  94674414.586 6  23120440.508                    23120448.297
 113603550.077 8  88522359.34545  21618021.617                    21618029.512
 113079034.850 7  88113589.261 7  21518225.320                    21518233.043
 116032195.515 7  90414809.665 7  22080184.961                    22080193.563
 11  8 20  0 18  0.0000000  0  9G30G25G09G02G10G17G04G12G05
 125257378.223 6  97603206.04243  23835691.758                    23835700.719
 127406774.315 7  99278083.674 7  24244708.477                    24244719.484
 123918624.517 6  96560024.04243  23580936.719                    23580946.902
 108375500.149 7  84448555.67646  20623156.016                    20623161.266
 109789439.588 8  85550315.28946  20892220.500                    20892228.570
 121550223.606 7  94714500.784 6  23130229.719                    23130237.578
 113679477.961 8  88581523.91245  21632470.156                    21632477.973
 113016267.200 7  88064679.421 7  21506281.156                    21506288.109
 115940713.232 7  90343524.847 7  22062776.617                    22062785.117
 11  8 20  0 18 30.0000000  0  9G30G25G09G02G10G17G04G12G05
 125157631.122 6  97525481.08143  23816709.969                    23816718.668
 127306336.409 7  99199820.430 7  24225595.328                    24225606.684
 123995833.940 6  96620187.17443  23595628.719                    23595638.945
 108373970.151 8  84447363.48246  20622864.945                    20622870.305
 109786671.526 8  85548158.36646  20891693.859                    20891701.668
 121601819.910 7  94754705.660 6  23140048.086                    23140056.578
 113755553.449 8  88640803.49045  21646946.758                    21646954.465
 112953913.201 7  88016091.903 7  21494415.172                    21494422.383
 115849519.349 7  90272464.755 7  22045422.766                    22045431.445
 11  8 20  0 19  0.0000000  0  9G30G25G09G02G10G17G04G12G05
 125058131.105 6  97447948.64943  23797775.500                    23797784.316
 127206057.750 7  99121681.261 7  24206512.898                    24206524.086
 124073226.165 6  96680492.71743  23610357.102                    23610366.590
 108372734.231 8  84446400.44946  20622629.633                    20622634.941
 109784532.392 8  85546491.51546  20891286.523                    20891294.449
 121653569.397 7  94795029.912 7  23149895.586                    23149904.488
 113831774.660 8  88700196.61845  21661451.289                    21661459.340
 112891975.454 8  87967828.738 7  21482629.234                    21482636.449
 115758616.714 7  90201631.599 7  22028125.016                    22028132.813
 11  8 20  0 19 30.0000000  0  9G30G25G09G02G10G17G04G12G05
 124958880.929 6  97370610.92743  23778888.422                    23778897.250
 127105940.780 7  99043668.090 6  24187461.563                    24187472.449
 124150797.634 6  96740937.90843  23625117.898                    23625128.461
 108371791.037 8  84445665.50046  20622450.250                    20622455.547
 109783022.482 7  85545314.97146  20890999.422                    20891007.168
 121705472.600 7  94835473.914 7  23159772.898                    23159781.418
 113908139.614 8  88759701.75145  21675983.117                    21675991.422
 112830456.213 8  87919891.690 7  21470922.594                    21470929.844
 115668008.283 7  90131027.702 7  22010882.492                    22010891.094
 11  8 20  0 20  0.0000000  0  9G30G25G09G02G10G17G04G12G05
 124859883.248 6  97293469.88443  23760050.719                    23760058.391
 127005987.973 7  98965782.840 6  24168440.406                    24168451.898
 124228545.022 7  96801520.21943  23639912.961                    23639922.652
 108371139.024 8  84445157.45346  20622326.273                    20622331.664
 109782141.965 8  85544628.86446  20890831.938                    20890839.652
 121757529.616 7  94876037.764 7  23169678.461                    23169687.469
 113984645.921 8  88819317.03345  21690541.836                    21690549.523
 112769357.433 8  87872282.270 7  21459295.953                    21459303.031
 115577696.785 7  90060655.180 7  21993696.750                    21993705.316
 11  8 20  0 20 30.0000000  0  9G30G25G09G02G10G17G04G12G05
 124761141.027 6  97216527.97643  23741259.531                    23741268.379
 126906202.000 6  98888027.590 6  24149451.633                    24149462.980
 124306464.889 7  96862236.91544  23654740.211                    23654750.641
 108370777.474 8  84444875.73346  20622257.352                    20622262.523
 109781891.419 8  85544433.64046  20890784.313                    20890791.766
 121809741.640 7  94916722.370 7  23179613.734                    23179623.148
 114061291.633 8  88879040.93245  21705126.594                    21705135.109
 112708681.986 8  87825002.719 7  21447749.234                    21447756.379
 115487685.181 7  89990516.338 7  21976568.172                    21976576.668
 11  8 20  0 21  0.0000000  0  9G30G25G09G02G10G17G04G12G05
 124662657.003 6  97139787.17243  23722519.203                    23722527.746
 126806585.428 6  98810404.336 6  24130495.023                    24130506.953
 124384553.844 6  96923085.37744  23669600.172                    23669610.504
 108370705.119 8  84444819.37046  20622243.492                    20622248.652
 109782270.836 8  85544729.29046  20890856.656                    20890864.160
 121862109.035 7  94957528.073 7  23189578.813                    23189588.324
 114138074.766 8  88938871.91045  21719738.305                    21719746.039
 112648431.769 8  87778054.524 7  21436284.469                    21436291.574
 115397976.632 7  89920613.643 7  21959496.664                    21959505.582
 11  8 20  0 21 30.0000000  0  9G30G25G09G02G10G17G04G12G05
 124564434.164 7  97063249.95643  23703828.594                    23703836.699
 126707140.984 6  98732915.226 6  24111571.617                    24111582.824
 124462808.760 7  96984063.14544  23684492.047                    23684502.750
 108370920.918 8  84444987.52546  20622284.828                    20622289.941
 109783280.599 7  85545516.12846  20891048.930                    20891056.422
 121914632.253 7  94998455.210 7  23199574.234                    23199583.020
 114214993.564 8  88998808.60645  21734375.594                    21734383.730
 112588609.428 8  87731439.729 7  21424900.273                    21424907.551
 115308573.655 7  89850949.055 7  21942483.828                    21942492.723
 11  8 20  0 22  0.0000000  0  9G30G25G09G02G10G17G04G12G05
 124466475.312 7  96986918.42444  23685186.891                    23685195.723
 126607871.292 6  98655562.267 6  24092681.102                    24092692.223
 124541225.988 7  97045167.37344  23699414.664                    23699425.004
 108371423.769 8  84445379.36746  20622380.414                    20622385.570
 109784921.083 7  85546794.43546  20891360.648                    20891368.375
 121967311.987 7  95039504.290 7  23209599.578                    23209608.203
 114292045.901 8  89058849.35645  21749038.328                    21749046.102
 112529217.336 8  87685160.200 7  21413598.461                    21413605.281
 115219479.435 7  89781525.067 7  21925529.680                    21925538.594
 11  8 20  0 22 30.0000000  0  9G30G25G09G02G10G17G04G12G05
 124368783.489 7  96910794.99444  23666597.281                    23666606.000
 126508779.046 6  98578347.569 6  24073824.508                    24073835.070
 124619802.415 7  97106395.66544  23714366.875                    23714377.637
 108372212.825 7  84445994.21246  20622530.305                    20622535.891
 109787192.639 7  85548564.48746  20891793.258                    20891800.684
 122020148.659 7  95080675.680 7  23219653.211                    23219661.895
 114369230.103 8  89118992.84945  21763725.961                    21763733.785
 112470257.876 8  87639217.773 7  21402379.195                    21402385.813
 115130696.676 7  89712343.761 7  21908634.875                    21908643.715
 11  8 20  0 23  0.0000000  0  9G30G25G09G02G10G17G04G12G05
 124271361.373 7  96834881.72444  23648058.602                    23648067.359
 126409866.838 7  98501273.157 6  24055002.055                    24055013.289
 124698534.436 7  97167745.19744  23729349.563                    23729360.313
 108373286.802 7  84446831.08646  20622734.750                    20622740.152
 109790095.010 8  85550826.07846  20892345.383                    20892352.906
 122073143.074 7  95121969.987 7  23229738.484                    23229746.824
 114446543.859 8  89179237.30545  21778438.133                    21778446.113
 112411733.185 8  87593614.135 7  21391241.727                    21391248.758
 115042228.348 7  89643407.471 7  21891800.016                    21891808.500
 11  8 20  0 23 30.0000000  0  9G30G25G09G02G10G17G04G12G05
 124174211.506 7  96759180.60144  23629570.500                    23629579.348
 126311136.958 7  98424340.841 6  24036214.492                    24036225.613
 124777418.297 7  97229213.04944  23744360.578                    23744371.270
 108374643.967 8  84447888.62046  20622993.172                    20622998.598
 109793628.177 7  85553579.20346  20893017.500                    20893025.098
 122126295.510 7  95163387.418 6  23239853.664                    23239861.684
 114523985.253 8  89239581.22445  21793174.680                    21793182.500
 112353645.204 7  87548350.792 7  21380188.125                    21380194.918
 114954076.950 7  89574718.140 7  21875025.203                    21875033.492
 11  8 20  0 24  0.0000000  0  9G30G25G09G02G10G17G04G12G05
 124077336.976 7  96683694.01344  23611136.344                    23611144.832
 126212592.366 7  98347552.896 6  24017462.414                    24017472.836
 124856451.008 7  97290796.88244  23759400.188                    23759410.598
 108376283.615 7  84449166.27046  20623304.734                    20623310.047
 109797792.266 7  85556823.95146  20893810.422                    20893817.496
 122179606.556 7  95204928.449 6  23249998.016                    23250006.016
 114601552.248 8  89300023.00145  21807935.383                    21807943.449
 112295996.651 8  87503429.859 7  21369218.211                    21369224.801
 114866245.703 7  89506278.278 7  21858311.633                    21858319.918
 11  8 20  0 24 30.0000000  0  9G30G25G09G02G10G17G04G12G05
 123980740.530 7  96608424.11844  23592755.070                    23592763.559
 126114235.324 7  98270911.110 6  23998745.031                    23998756.375
 124935629.023 7  97352493.94244  23774467.641                    23774478.625
 108378204.312 7  84450662.91746  20623670.500                    20623675.590
 109802587.628 7  85560560.60346  20894722.563                    20894730.039
 122233076.920 7  95246593.621 6  23260173.180                    23260181.121
 114679242.908 8  89360561.14945  21822719.617                    21822727.648
 112238789.604 7  87458852.958 7  21358331.992                    21358338.738
 114778737.141 7  89438089.847 7  21841659.148                    21841667.211
 11  8 20  0 25  0.0000000  0  9G30G25G09G02G10G17G04G12G05
 123884425.042 6  96533373.16143  23574426.078                    23574434.980
 126016068.751 7  98194417.728 6  23980065.008                    23980075.727
 125014949.208 6  97414301.78344  23789560.875                    23789572.375
 108380405.008 7  84452377.75646  20624089.398                    20624094.676
 109808014.349 7  85564789.22546  20895755.477                    20895762.492
 122286707.100 7  95288383.339 6  23270378.117                    23270386.648
 114757055.353 7  89421194.18845  21837527.031                    21837534.668
 112182026.342 7  87414621.863 7  21347529.859                    21347537.004
 114691554.278 7  89370155.207 7  21825068.578                    21825077.074
 11  8 20  0 25 30.0000000  0  9G30G25G09G02G10G17G04G12G05
 123788393.440 6  96458543.41843  23556152.172                    23556160.773
 125918095.241 7  98118074.801 6  23961421.359                    23961432.063
 125094407.981 7  97476217.60744  23804682.055                    23804693.129
 108382884.847 8  84454310.09546  20624561.109                    20624566.598
 109814072.173 8  85569509.61246  20896907.906                    20896915.832
 122340497.938 7  95330298.240 6  23280614.477                    23280622.191
 114834987.567 8  89481920.56445  21852356.883                    21852364.918
 112125709.214 8  87370738.402 7  21336813.289                    21336820.129
 114604699.927 7  89302476.564 7  21808540.945                    21808549.469
 11  8 20  0 26  0.0000000  0  9G30G25G09G02G10G17G04G12G05
 123692648.783 6  96383937.26143  23537931.609                    23537941.184
 125820317.700 7  98041884.594 7  23942814.227                    23942825.492
 125174002.218 6  97538239.00044  23819828.516                    23819839.520
 108385642.769 8  84456459.13346  20625085.992                    20625091.156
 109820761.193 8  85574721.84146  20898181.078                    20898188.348
 122394449.664 7  95372338.516 6  23290881.156                    23290889.586
 114913037.989 7  89542739.05045  21867209.313                    21867217.973
 112069840.667 7  87327204.490 7  21326181.594                    21326188.836
 114518176.865 7  89235056.061 7  21792075.758                    21792084.355
 11  8 20  0 26 30.0000000  0  9G30G25G09G02G10G17G04G12G05
 123597193.701 6  96309556.73443  23519767.984                    23519776.652
 125722738.589 7  97965848.998 7  23924245.789                    23924257.137
 125253728.679 7  97600363.39244  23834999.289                    23835010.734
 108388677.438 7  84458823.82446  20625663.711                    20625668.473
 109828081.555 8  85580426.02646  20899573.773                    20899581.223
 122448562.791 7  95414504.562 6  23301178.664                    23301186.480
 114991204.611 8  89603648.07045  21882083.797                    21882091.617
 112014422.931 7  87284021.848 7  21315636.164                    21315642.887
 114431988.069 7  89167896.019 7  21775674.664                    21775683.102
 11  8 20  0 27  0.0000000  0  9G30G25G09G02G10G17G04G12G05
 123502030.935 6  96235404.01743  23501658.578                    23501667.461
 125625360.328 7  97889969.915 7  23905715.203                    23905726.402
 125333583.890 6  97662588.11744  23850195.664                    23850206.949
 108391987.559 8  84461403.13946  20626293.453                    20626298.473
 109836032.828 8  85586621.84046  20901086.633                    20901094.551
 122502837.844 7  95456796.774 6  23311506.688                    23311515.113
 115069485.534 7  89664646.17645  21896980.422                    21896988.563
 111959457.694 8  87241191.808 7  21305176.523                    21305183.848
 114346136.148 8  89100998.473 7  21759337.617                    21759346.035
 11  8 20  0 27 30.0000000  0  9G30G25G09G02G10G17G04G12G05
 123407163.166 7  96161481.11243  23483606.078                    23483614.984
 125528185.551 7  97814249.363 7  23887223.359                    23887234.383
 125413564.084 7  97724910.22544  23865416.031                    23865426.723
 108395571.761 8  84464196.03746  20626975.570                    20626980.793
 109844614.508 8  85593308.86346  20902720.102                    20902727.590
 122557275.419 7  95499215.631 6  23321865.313                    23321874.285
 115147878.516 7  89725731.59645  21911898.109                    21911906.227
 111904947.170 7  87198716.090 7  21294803.547                    21294810.750
 114260623.659 7  89034365.427 7  21743065.344                    21743073.367
 11  8 20  0 28  0.0000000  0  9G30G25G09G02G10G17G04G12G05
 123312593.539 6  96087790.53143  23465610.039                    23465618.676
 125431217.080 6  97738689.575 7  23868770.359                    23868781.641
 125493666.139 6  97787327.32244  23880657.922                    23880669.957
 108399429.223 8  84467201.85946  20627709.508                    20627714.531
 109853827.267 8  85600487.64746  20904473.063                    20904480.516
 122611876.210 7  95541761.650 6  23332256.375                    23332264.672
 115226381.929 8  89786903.06645  21926836.633                    21926844.852
 111850894.085 7  87156596.813 7  21284517.867                    21284524.914
 114175453.888 7  88967999.433 7  21726857.547                    21726866.117
 11  8 20  0 28 30.0000000  0  9G30G25G09G02G10G17G04G12G05
 123218324.928 7  96014334.51243  23447671.258                    23447679.699
 125334457.741 7  97663292.759 7  23850357.797                    23850369.000
 125573886.702 6  97849836.73543  23895923.859                    23895935.375
 108403558.396 8  84470419.40446  20628495.156                    20628500.102
 109863670.835 8  85608157.95946  20906346.281                    20906353.871
 122666640.445 7  95584435.028 6  23342677.344                    23342686.031
 115304994.105 8  89848159.29345  21941796.250                    21941804.355
 111797300.863 8  87114835.871 7  21274319.313                    21274326.336
 114090629.480 8  88901902.548 7  21710716.180                    21710724.758
 11  8 20  0 29  0.0000000  0  9G30G25G09G02G10G17G04G12G05
 123124360.006 7  95941115.10943  23429789.820                    23429799.254
 125237909.906 7  97588060.741 6  23831985.297                    23831996.781
 125654222.389 6  97912435.86443  23911211.453                    23911222.535
 108407958.462 8  84473848.03446  20629332.273                    20629337.793
 109874144.809 8  85616319.50846  20908339.289                    20908346.773
 122721568.754 7  95627236.249 6  23353130.344                    23353138.824
 115383712.923 8  89909498.60745  21956775.516                    21956784.164
 111744168.701 7  87073434.191 7  21264208.391                    21264215.656
 114006153.287 8  88836077.005 7  21694640.508                    21694649.164
 11  8 20  0 29 30.0000000  0  9G30G25G09G02G10G17G04G12G05
 123030701.720 7  95868134.63143  23411968.398                    23411976.301
 125141576.403 6  97512995.719 6  23813652.977                    23813664.543
 125734669.917 6  97975122.13843  23926519.898                    23926531.348
 108412628.345 8  84477486.91346  20630220.922                    20630226.523
 109885248.782 8  85624971.96746  20910452.219                    20910460.168
 122776661.698 7  95670165.774 6  23363614.141                    23363622.598
 115462536.594 8  89970919.63445  21971774.797                    21971783.422
 111691500.266 8  87032393.851 7  21254185.836                    21254193.188
 113922027.998 8  88770524.884 7  21678632.305                    21678640.746
 11  8 20  0 30  0.0000000  0  9G30G25G09G02G10G17G04G12G05
 122937352.807 7  95795395.23744  23394204.203                    23394212.609
 125045459.768 7  97438099.695 6  23795364.211                    23795374.992
 125815226.097 6  98037893.07343  23941848.930                    23941860.758
 108417566.756 8  84481335.02546  20631161.039                    20631166.406
 109896982.688 8  85634115.27846  20912685.320                    20912692.855
 122831919.932 7  95713224.058 6  23374129.008                    23374137.750
 115541463.217 7  90032420.86345  21986794.500                    21986803.230
 111639297.898 7  86991716.689 7  21244252.297                    21244259.109
 113838256.290 7  88705248.286 7  21662691.133                    21662698.953
 11  8 20  0 30 30.0000000  0  9G30G25G09G02G10G17G04G12G05
 122844316.280 7  95722899.26243  23376499.672                    23376508.125
 124949562.891 7  97363374.895 6  23777115.305                    23777125.969
 125895887.507 6  98100746.00243  23957199.133                    23957210.680
 108422772.617 8  84485391.54346  20632151.375                    20632156.844
 109909346.382 8  85643749.34246  20915038.016                    20915045.637
 122887343.878 7  95756411.489 6  23384675.539                    23384685.031
 115620491.091 7  90094001.00845  22001833.102                    22001841.566
 111587563.437 8  86951404.126 7  21234407.523                    21234414.145
 113754840.797 7  88640249.262 7  21646817.328                    21646825.965
 11  8 20  0 31  0.0000000  0  9G30G25G09G02G10G17G04G12G05
 122751594.642 7  95650648.67444  23358855.672                    23358863.492
 124853888.123 7  97288823.147 6  23758908.531                    23758919.613
 125976650.509 6  98163678.09743  23972567.703                    23972579.266
 108428244.220 8  84489655.13746  20633192.781                    20633198.066
 109922339.347 8  85653873.74446  20917510.406                    20917517.836
 122942934.109 7  95799728.502 6  23395254.109                    23395262.984
 115699618.130 7  90155658.41445  22016890.586                    22016898.648
 111536298.738 8  86911457.606 7  21224652.133                    21224659.520
 113671784.122 7  88575529.834 7  21631011.961                    21631020.582
 11  8 20  0 31 30.0000000  0  9G30G25G09G02G10G17G04G12G05
 122659190.949 7  95578645.81444  23341271.633                    23341280.137
 124758438.369 7  97214446.730 6  23740745.328                    23740755.746
 126057511.847 6  98226686.83043  23987955.211                    23987966.305
 108433980.624 8  84494125.06646  20634284.539                    20634289.742
 109935961.348 8  85664488.31146  20920102.594                    20920110.473
 122998690.972 6  95843175.344 6  23405864.234                    23405873.332
 115778842.819 8  90217391.91445  22031966.250                    22031974.766
 111485506.428 7  86871879.188 7  21214986.859                    21214993.688
 113589089.499 7  88511092.523 7  21615276.133                    21615284.148
 11  8 20  0 32  0.0000000  0  9G30G25G09G02G10G17G04G12G05
 122567108.044 6  95506892.96344  23323748.742                    23323757.293
 124663216.311 7  97140247.749 6  23722625.164                    23722635.180
 126138468.523 6  98289769.83543  24003361.438                    24003371.715
 108439981.155 8  84498800.81146  20635426.289                    20635431.680
 109950211.975 8  85675592.70446  20922814.617                    20922822.102
 123054615.011 7  95886752.463 6  23416506.930                    23416515.449
 115858163.392 7  90279200.13345  22047060.898                    22047069.246
 111435188.436 8  86832670.365 7  21205411.367                    21205418.422
 113506759.390 8  88446939.247 7  21599609.422                    21599617.180
 11  8 20  0 32 30.0000000  0  9G30G25G09G02G10G17G04G12G05
 122475348.645 7  95435392.21244  23306287.625                    23306296.223
 124568224.416 7  97066228.113 6  23704548.648                    23704559.090
 126219517.118 6  98352924.50143  24018783.773                    24018795.000
 108446243.663 8  84503680.69546  20636618.063                    20636623.109
 109965090.439 8  85687186.33346  20925645.750                    20925653.223
 123110706.411 7  95930459.988 6  23427181.000                    23427189.582
 115937577.833 7  90341081.50545  22062172.664                    22062180.961
 111385346.593 8  86793832.583 7  21195926.773                    21195934.043
 113424796.606 7  88383072.198 7  21584011.992                    21584020.211
 11  8 20  0 33  0.0000000  0  9G30G25G09G02G10G17G04G12G05
 122383915.473 6  95364145.63844  23288888.250                    23288896.836
 124473465.337 7  96992389.887 6  23686517.063                    23686527.191
 126300654.221 7  98416148.09043  24034224.195                    24034235.160
 108452767.470 8  84508764.18846  20637859.102                    20637864.527
 109980596.316 8  85699268.85246  20928596.273                    20928604.246
 123166966.034 7  95974298.593 6  23437886.227                    23437895.500
 116017084.295 7  90403034.55345  22077302.828                    22077310.695
 111335983.117 8  86755367.536 7  21186533.133                    21186540.207
 113343203.738 7  88319493.397 7  21568485.320                    21568493.574
 11  8 20  0 33 30.0000000  0  9G30G25G09G02G10G17G04G12G05
 122292811.512 6  95293155.60444  23271551.523                    23271560.285
 124378942.070 7  96918735.435 6  23668529.609                    23668540.523
 126381876.676 7  98479438.22743  24049679.969                    24049691.316
 108459551.579 8  84514050.51746  20639150.344                    20639155.680
 109996729.555 8  85711840.22146  20931666.414                    20931674.180
 123223394.362 7  96018268.629 6  23448624.898                    23448633.695
 116096681.374 7  90465058.23245  22092449.320                    22092457.395
 111287100.293 8  86717277.033 7  21177231.258                    21177238.023
 113261983.563 8  88256205.006 7  21553029.664                    21553038.172
 11  8 20  0 34  0.0000000  0  9G30G25G09G02G10G17G04G12G05
 122202039.583 6  95222424.31144  23254277.750                    23254287.012
 124284657.145 7  96845266.712 6  23650587.422                    23650598.371
 126463181.043 6  98542792.17743  24065152.023                    24065163.113
 108466594.736 8  84519538.70246  20640490.703                    20640495.586
 110013489.661 8  85724900.06146  20934855.477                    20934863.176
 123279991.606 7  96062370.311 6  23459394.883                    23459403.625
 116176367.075 7  90527150.96645  22107612.734                    22107621.309
 111238699.938 8  86679562.477 7  21168021.000                    21168027.777
 113181138.909 7  88193209.233 7  21537645.469                    21537653.598
 11  8 20  0 34 30.0000000  0  9G30G25G09G02G10G17G04G12G05
 122111602.296 7  95151953.78144  23237068.406                    23237077.652
 124190613.099 7  96771985.702 6  23632691.453                    23632702.094
 126544563.853 7  98606207.27943  24080638.789                    24080649.785
 108473895.429 8  84525227.56646  20641880.016                    20641885.133
 110030875.677 8  85738447.62946  20938163.977                    20938171.824
 123336758.606 7  96106604.263 6  23470197.438                    23470206.191
 116256139.569 7  90589311.32245  22122793.594                    22122801.242
 111190784.086 8  86642225.462 7  21158902.945                    21158909.520
 113100671.877 8  88130507.700 7  21522332.945                    21522341.109
 11  8 20  0 35  0.0000000  0  9G30G25G09G02G10G17G04G12G05
 122021502.436 7  95081746.16244  23219923.563                    23219931.813
 124096812.494 7  96698894.379 7  23614841.891                    23614852.633
 126626021.684 7  98669680.81343  24096140.148                    24096151.145
 108481452.274 8  84531116.02346  20643317.859                    20643323.156
 110048887.191 8  85752482.58546  20941591.773                    20941599.117
 123393695.924 7  96150970.939 6  23481032.117                    23481041.613
 116335997.030 7  90651537.89445  22137989.766                    22137997.953
 111143354.542 8  86605267.382 7  21149877.625                    21149884.289
 113020585.182 7  88068102.543 7  21507092.992                    21507101.102
 11  8 20  0 35 30.0000000  0  9G30G25G09G02G10G17G04G12G05
 121931743.089 7  95011803.86844  23202842.531                    23202851.070
 124003258.385 7  96625995.150 7  23597039.016                    23597050.113
 126707551.855 6  98733210.71343  24111654.484                    24111665.289
 108489264.555 8  84537203.52946  20644804.781                    20644809.680
 110067524.003 8  85767004.80546  20945137.992                    20945146.090
 123450803.333 7  96195470.169 6  23491899.695                    23491908.328
 116415937.949 7  90713829.47845  22153201.633                    22153209.805
 111096413.453 8  86568689.915 7  21140944.570                    21140951.879
 112940882.251 7  88005996.418 7  21491926.164                    21491934.082
 11  8 20  0 36  0.0000000  0  9G30G25G09G02G10G17G04G12G05
 121842326.907 7  94942128.99144  23185827.164                    23185835.719
 123909953.307 7  96553289.954 7  23579283.352                    23579294.246
 126789150.893 7  98796794.28343  24127182.508                    24127193.871
 108497331.130 8  84543489.17746  20646339.648                    20646344.961
 110086785.337 8  85782013.64946  20948803.031                    20948810.926
 123508081.826 7  96240102.708 6  23502799.188                    23502807.496
 116495960.739 7  90776184.87245  22168429.648                    22168438.098
 111049962.819 8  86532494.628 7  21132105.484                    21132112.824
 112861565.073 7  87944190.876 7  21476832.352                    21476840.398
 11  8 20  0 36 30.0000000  0  9G30G25G09G02G10G17G04G12G05
 121753256.451 7  94872723.49544  23168877.055                    23168885.336
 123816899.701 7  96480780.739 7  23561575.648                    23561586.613
 126870815.330 6  98860428.82643  24142722.953                    24142734.453
 108505650.518 8  84549971.82346  20647922.633                    20647927.691
 110106670.193 8  85797508.36546  20952587.313                    20952594.973
 123565531.764 6  96284868.833 6  23513731.102                    23513739.887
 116576063.329 7  90838602.45045  22183672.516                    22183680.543
 111004004.311 8  86496682.812 7  21123359.703                    21123367.227
 112782636.266 7  87882687.962 7  21461812.602                    21461820.289
 11  8 20  0 37  0.0000000  0  9G30G25G09G02G10G17G04G12G05
 121664534.827 7  94803589.79944  23151994.414                    23152002.543
 123724100.501 7  96408469.732 7  23543916.844                    23543927.813
 126952542.008 7  98924111.85543  24158275.164                    24158286.215
 108514221.383 8  84556650.42346  20649553.766                    20649559.055
 110127178.243 8  85813488.67446  20956489.797                    20956497.676
 123623153.305 7  96329768.650 6  23524696.820                    23524705.488
 116656244.164 7  90901080.99545  22198930.555                    22198938.648
 110958540.327 8  86461256.337 7  21114708.438                    21114715.359
 112704098.567 8  87821489.814 7  21446867.422                    21446875.391
 11  8 20  0 37 30.0000000  0  9G30G25G09G02G10G17G04G12G05
 121576164.732 7  94734730.02144  23135178.359                    23135186.465
 123631558.396 7  96336359.077 7  23526306.039                    23526317.434
 127034327.910 7  98987841.03143  24173837.938                    24173850.109
 108523042.904 8  84563524.34346  20651232.461                    20651237.355
 110148309.025 8  85829954.24346  20960510.953                    20960518.543
 123680947.156 7  96374802.737 6  23535694.516                    23535703.793
 116736501.542 7  90963619.18045  22214203.445                    22214211.039
 110913572.681 8  86426216.618 7  21106151.406                    21106158.160
 112625954.464 7  87760598.360 7  21431996.789                    21432004.898
 11  8 20  0 38  0.0000000  0  9G30G25G09G02G10G17G04G12G05
 121488148.935 7  94666146.30444  23118429.016                    23118437.367
 123539276.079 7  96264450.825 7  23508745.461                    23508756.594
 127116169.609 6  99051613.67944  24189412.828                    24189423.793
 108532113.798 8  84570592.57646  20652958.273                    20652963.504
 110170061.522 8  85846904.25846  20964650.219                    20964657.824
 123738913.742 7  96419971.462 6  23546725.844                    23546734.074
 116816834.009 7  91026215.88845  22229489.977                    22229498.098
 110869103.244 8  86391565.112 7  21097689.250                    21097696.086
 112548206.704 8  87700015.747 7  21417202.000                    21417210.078
 11  8 20  0 38 30.0000000  0  9G30G25G09G02G10G17G04G12G05
 121400490.250 7  94597840.85944  23101748.148                    23101756.164
 123447256.173 7  96192747.055 7  23491234.797                    23491245.758
 127198063.618 6  99115427.10143  24204997.086                    24205007.625
 108541432.908 8  84577854.22746  20654731.883                    20654737.563
 110192434.718 8  85864337.94446  20968907.484                    20968915.125
 123797053.566 7  96465275.166 6  23557789.000                    23557797.691
 116897239.597 7  91088869.55645  22244790.258                    22244799.125
 110825133.800 8  86357303.208 7  21089321.938                    21089329.211
 112470857.916 8  87639744.007 7  21402482.930                    21402491.195
 11  8 20  0 39  0.0000000  0  9G30G25G09G02G10G17G04G12G05
 121313191.325 7  94529815.71844  23085135.711                    23085144.223
 123355501.234 7  96121249.752 7  23473774.445                    23473785.074
 127280006.766 6  99179278.85643  24220589.477                    24220601.168
 108550998.557 8  84585307.98046  20656552.023                    20656557.500
 110215427.818 8  85882254.65446  20973282.961                    20973290.672
 123855366.821 7  96510714.016 6  23568886.094                    23568894.445
 116977716.584 7  91151578.87345  22260105.117                    22260113.449
 110781666.025 8  86323432.216 7  21081050.031                    21081057.484
 112393910.615 8  87579785.125 7  21387840.281                    21387848.426
 11  8 20  0 39 30.0000000  0  9G30G25G09G02G10G17G04G12G05
 121226254.674 7  94462072.87744  23068592.680                    23068600.270
 123264013.731 7  96049960.815 7  23456365.063                    23456375.363
 127361995.628 6  99243166.14743  24236191.867                    24236203.586
 108560809.313 8  84592952.72546  20658418.992                    20658423.871
 110239040.051 8  85900653.81546  20977776.375                    20977784.328
 123913854.024 7  96556288.422 6  23580015.273                    23580024.605
 117058263.291 7  91214342.51445  22275432.336                    22275440.719
 110738701.672 8  86289953.494 7  21072874.563                    21072881.352
 112317367.367 8  87520141.081 7  21373274.688                    21373282.672
 11  8 20  0 40  0.0000000  0  9G30G25G09G02G10G17G04G12G05
 121139683.383 7  94394614.75644  23052118.547                    23052126.492
 123172796.665 7  95978882.613 6  23439006.961                    23439017.691
 127444027.391 6  99307086.89343  24251801.695                    24251813.082
 108570864.357 8  84600787.82746  20660332.250                    20660337.813
 110263270.702 8  85919534.85346  20982387.008                    20982394.828
 123972515.632 7  96601998.695 6  23591178.438                    23591187.219
 117138877.993 7  91277159.14045  22290773.023                    22290781.238
 110696242.911 8  86256868.754 7  21064794.641                    21064801.902
 112241230.472 8  87460813.681 7  21358786.094                    21358794.488
 11  8 20  0 40 30.0000000  0  9G30G25G09G02G10G17G04G12G05
 121053480.175 7  94327443.42644  23035714.586                    23035722.508
 123081852.733 7  95908017.228 6  23421700.945                    23421711.555
 127526098.738 6  99371038.51043  24267419.914                    24267431.145
 108581163.007 8  84608812.74346  20662292.297                    20662297.469
 110288119.060 8  85938897.21546  20987115.766                    20987123.301
 124031352.296 6  96647845.373 6  23602374.656                    23602383.387
 117219559.395 7  91340027.74745  22306126.211                    22306134.379
 110654291.799 8  86224179.577 7  21056811.758                    21056818.930
 112165502.699 8  87401805.074 7  21344375.531                    21344383.566
 11  8 20  0 41  0.0000000  0  9G30G25G09G02G10G17G04G12G05
 120967648.133 7  94260561.34844  23019381.016                    23019389.039
 122991184.894 7  95837366.963 6  23404447.445                    23404457.840
 127608206.315 6  99435018.34243  24283043.602                    24283055.891
 108591703.908 8  84617026.44046  20664298.188                    20664303.402
 110313584.285 8  85958740.25846  20991961.727                    20991969.316
 124090364.148 6  96693828.587 6  23613604.453                    23613612.902
 117300306.056 7  91402947.19945  22321491.938                    22321499.777
 110612850.026 8  86191887.282 7  21048925.398                    21048932.527
 112090186.774 8  87343117.390 7  21330043.453                    21330051.566
 11  8 20  0 41 30.0000000  0  9G30G25G09G02G10G17G04G12G05
 120882189.506 7  94193970.24344  23003118.547                    23003126.922
 122900795.418 7  95766933.620 6  23387246.828                    23387256.832
 127690347.160 6  99499024.06143  24298675.242                    24298687.309
 108602485.597 8  84625427.75346  20666349.891                    20666355.195
 110339665.330 8  85979063.16546  20996925.031                    20996932.043
 124149551.643 6  96739948.655 6  23624867.258                    23624876.379
 117381116.077 7  91465916.02245  22336869.500                    22336877.723
 110571919.328 8  86159993.232 7  21041136.711                    21041143.781
 112015284.901 8  87284752.349 7  21315790.000                    21315797.984
 11  8 20  0 42  0.0000000  0  9G30G25G09G02G10G17G04G12G05
 120797107.120 7  94127672.31144  22986928.055                    22986936.586
 122810686.978 7  95696719.288 6  23370099.500                    23370110.422
 127772517.820 6  99563053.03843  24314312.359                    24314323.781
 108613506.532 8  84634015.49246  20668446.852                    20668452.270
 110366361.017 8  85999865.00846  21002004.469                    21002011.828
 124208915.079 6  96786205.799 6  23636162.969                    23636173.145
 117461987.798 7  91528932.91945  22352258.844                    22352267.215
 110531501.267 8  86128498.636 7  21033445.242                    21033452.332
 111940799.829 8  87226712.092 7  21301616.172                    21301624.230
 11  8 20  0 42 30.0000000  0  9G30G25G09G02G10G17G04G12G05
 120712403.646 7  94061669.65544  22970808.844                    22970818.070
 122720862.253 7  95626726.022 6  23353006.617                    23353016.895
 127854715.064 5  99627102.72443  24329952.742                    24329965.738
 108624765.576 8  84642788.77146  20670589.703                    20670594.766
 110393670.428 8  86021145.07146  21007201.508                    21007208.980
 124268454.887 6  96832600.396 6  23647494.094                    23647502.480
 117542919.560 7  91591996.60645  22367659.461                    22367668.109
 110491597.546 8  86097404.826 7  21025852.055                    21025858.805
 111866733.634 8  87168998.216 7  21287521.695                    21287529.797
 11  8 20  0 43  0.0000000  0  9G30G25G09G02G10G17G04G12G05
 120628082.094 7  93995964.61344  22954762.859                    22954772.258
 122631324.196 7  95556956.139 6  23335968.297                    23335978.594
 127936935.655 6  99691170.62343  24345599.258                    24345611.504
 108636261.685 8  84651746.78546  20672777.172                    20672782.223
 110421593.070 7  86042902.98346  21012514.820                    21012522.770
 124328171.423 6  96879132.724 6  23658857.688                    23658866.465
 117623910.013 7  91655106.03145  22383071.508                    22383079.703
 110452210.302 8  86066713.474 7  21018356.883                    21018364.023
 111793089.294 8  87111613.071 7  21273507.648                    21273515.426
 11  8 20  0 43 30.0000000  0  9G30G25G09G02G10G17G04G12G05
 120544145.000 7  93930559.14644  22938790.852                    22938799.266
 122542075.262 7  95487411.563 6  23318984.148                    23318994.719
 128019176.817 6  99755254.51743  24361249.563                    24361261.363
 108647994.149 8  84660888.96546  20675009.422                    20675014.754
 110450127.634 8  86065137.70546  21017945.055                    21017952.211
 124388065.291 6  96925803.235 6  23670255.164                    23670263.781
 117704957.446 7  91718259.84845  22398494.734                    22398502.957
 110413341.158 8  86036425.834 7  21010960.367                    21010967.215
 111719869.003 8  87054558.339 7  21259574.453                    21259582.109
 11  8 20  0 44  0.0000000  0  9G30G25G09G02G10G17G04G12G05
 120460595.006 7  93865455.30444  22922892.078                    22922900.332
 122453118.200 7  95418094.417 7  23302056.352                    23302066.434
 128101435.291 6  99819351.90544  24376903.141                    24376915.012
 108659961.362 8  84670214.06646  20677286.680                    20677292.191
 110479272.859 8  86087848.27546  21023491.063                    21023498.516
 124448136.665 6  96972612.068 6  23681686.133                    23681695.324
 117786060.278 7  91781456.84645  22413927.695                    22413935.945
 110374991.576 8  86006543.047 7  21003662.594                    21003669.797
 111647075.091 8  86997835.863 7  21245721.953                    21245729.844
 11  8 20  0 44 30.0000000  0  9G30G25G09G02G10G17G04G12G05
 120377434.842 7  93800655.23344  22907066.672                    22907075.195
 122364455.485 7  95349006.641 7  23285184.055                    23285194.738
 128183707.574 6  99883460.05944  24392558.945                    24392571.172
 108672161.914 8  84679720.99246  20679608.484                    20679613.836
 110509027.989 8  86111034.09646  21029153.313                    21029160.805
 124508385.798 7  97019559.385 6  23693152.047                    23693160.328
 117867217.122 7  91844695.90945  22429371.586                    22429379.973
 110337163.016 8  85977066.257 7  20996464.117                    20996471.027
 111574709.784 8  86941447.358 7  21231951.133                    21231959.055
 11  8 20  0 45  0.0000000  0  9G30G25G09G02G10G17G04G12G05
 120294667.259 7  93736161.06045  22891316.656                    22891325.145
 122276090.028 7  95280150.497 7  23268368.953                    23268379.813
 128265990.696 6  99947576.67243  24408217.477                    24408228.805
 108684594.980 8  84689409.10146  20681974.406                    20681979.945
 110539391.642 8  86134694.07946  21034931.664                    21034939.000
 124568813.281 7  97066645.695 6  23704650.406                    23704659.465
 117948426.323 7  91907975.80145  22444825.125                    22444833.742
 110299857.580 8  85947997.097 7  20989365.180                    20989372.172
 111502775.810 8  86885394.959 7  21218262.734                    21218270.535
 11  8 20  0 45 30.0000000  0  9G30G25G09G02G10G17G04G12G05
 120212295.030 7  93671974.95144  22875641.445                    22875650.313
 122188024.504 7  95211528.078 7  23251611.125                    23251620.957
 128348281.544 6 100011699.26944  24423876.633                    24423888.188
 108697259.006 8  84699277.17646  20684384.938                    20684389.934
 110570362.651 8  86158827.33446  21040824.727                    21040832.695
 124629419.536 7  97113871.299 6  23716182.984                    23716192.426
 118029686.414 7  91971295.31945  22460289.047                    22460296.969
 110263077.007 8  85919336.917 7  20982366.102                    20982373.027
 111431275.653 8  86829680.596 7  21204656.516                    21204664.395
 11  8 20  0 46  0.0000000  0  9G30G25G09G02G10G17G04G12G05
 120130320.970 7  93608099.10745  22860042.297                    22860051.320
 122100261.767 7  95143141.585 7  23234910.008                    23234920.543
 128430577.109 6 100075825.56443  24439537.094                    24439549.160
 108710153.018 8  84709324.46846  20686838.281                    20686843.191
 110601940.213 8  86183433.22646  21046833.992                    21046841.359
 124690205.032 7  97161236.568 6  23727750.984                    23727759.777
 118110996.053 7  92034653.47245  22475761.398                    22475769.285
 110226822.754 8  85891086.865 7  20975466.969                    20975474.215
 111360212.037 8  86774306.399 7  21191133.563                    21191141.676
 11  8 20  0 46 30.0000000  0  9G30G25G09G02G10G17G04G12G05
 120048747.375 7  93544535.30344  22844519.672                    22844528.359
 122012804.039 7  95074992.768 7  23218267.641                    23218278.039
 128512874.007 6 100139952.90643  24455198.063                    24455209.754
 108723275.438 8  84719549.75046  20689335.305                    20689340.430
 110634122.736 8  86208510.51146  21052957.844                    21052965.648
 124751169.751 7  97208741.510 6  23739352.203                    23739361.258
 118192353.376 7  92098048.75845  22491243.539                    22491251.355
 110191096.362 8  85863248.126 7  20968668.781                    20968675.496
 111289586.532 8  86719273.592 7  21177694.023                    21177701.719
 11  8 20  0 47  0.0000000  0  9G30G25G09G02G10G17G04G12G05
 119967577.006 7  93481285.71245  22829073.547                    22829082.570
 121925654.113 7  95007083.787 7  23201682.805                    23201693.645
 128595169.151 6 100204078.86543  24470858.141                    24470869.691
 108736625.608 8  84729952.48846  20691875.852                    20691881.004
 110666909.209 8  86234058.40246  21059196.352                    21059204.691
 124812314.165 7  97256386.470 6  23750987.602                    23750996.598
 118273757.012 7  92161480.15145  22506733.531                    22506742.055
 110155899.708 8  85835822.176 7  20961970.625                    20961977.535
 111219401.998 8  86664584.387 7  21164338.273                    21164345.891
 11  8 20  0 47 30.0000000  0  9G30G25G09G02G10G17G04G12G05
 119886812.368 7  93418352.25644  22813704.586                    22813713.066
 121838814.619 7  94939416.693 7  23185158.086                    23185168.914
 128677459.137 6 100268200.79043  24486517.500                    24486529.348
 108750201.718 8  84740531.28546  20694459.203                    20694464.168
 110700298.175 8  86260075.78646  21065550.867                    21065558.551
 124873638.451 6  97304171.571 6  23762657.055                    23762666.344
 118355205.409 7  92224946.42944  22522232.328                    22522240.727
 110121233.872 8  85808809.848 7  20955374.156                    20955381.059
 111149660.733 8  86610240.588 7  21151066.859                    21151074.461
 11  8 20  0 48  0.0000000  0  9G30G25G09G02G10G17G04G12G05
 119806456.311 7  93355737.19144  22798413.273                    22798421.328
 121752288.223 7  94871993.571 7  23168692.797                    23168702.633
 128759740.946 6 100332316.37443  24502175.148                    24502186.977
 108764003.057 8  84751285.59046  20697085.477                    20697090.555
 110734288.535 8  86286561.77846  21072018.938                    21072026.164
 124935142.880 7  97352097.052 6  23774360.867                    23774370.336
 118436697.113 7  92288446.43945  22537739.813                    22537748.152
 110087100.475 8  85782212.401 7  20948878.664                    20948885.809
 111080364.801 8  86556243.803 7  21137880.219                    21137888.082
 11  8 20  0 48 30.0000000  0  9G30G25G09G02G10G17G04G12G05
 119726511.531 7  93293442.60544  22783199.977                    22783208.211
 121666077.738 7  94804816.612 7  23152287.266                    23152298.008
 128842011.865 6 100396423.46543  24517831.039                    24517842.781
 108778028.673 8  84762214.65646  20699754.164                    20699759.680
 110768878.876 8  86313515.28646  21078600.883                    21078608.961
 124996828.147 6  97400163.437 6  23786099.813                    23786108.555
 118518230.729 7  92351979.11344  22553255.234                    22553263.945
 110053501.383 8  85756031.308 7  20942485.000                    20942492.223
 111011516.472 8  86502595.795 7  21124778.742                    21124786.895
 11  8 20  0 49  0.0000000  0  9G30G25G09G02G10G17G04G12G05
 119646980.846 7  93231470.67544  22768066.008                    22768074.195
 121580185.947 7  94737887.980 7  23135942.539                    23135953.055
 128924268.822 6 100460519.68843  24533483.641                    24533495.949
 108792276.654 8  84773316.99846  20702465.688                    20702470.762
 110804067.946 8  86340935.33746  21085297.492                    21085305.113
 125058694.626 6  97448371.010 6  23797871.375                    23797881.227
 118599805.045 7  92415543.50544  22568778.305                    22568786.977
 110020438.102 8  85730267.728 7  20936193.492                    20936200.203
 110943118.786 8  86449298.944 7  21111763.156                    21111771.207
 11  8 20  0 49 30.0000000  0  9G30G25G09G02G10G17G04G12G05
 119567866.554 7  93169823.22044  22753010.633                    22753019.109
 121494615.258 7  94671209.569 7  23119658.508                    23119669.664
 129006508.478 6 100524602.38743  24549133.820                    24549146.285
 108806746.032 8  84784591.85146  20705219.047                    20705224.340
 110839854.415 8  86368820.90146  21092107.281                    21092115.191
 125120742.110 6  97496719.602 6  23809679.047                    23809689.078
 118681418.326 7  92479138.24944  22584308.750                    22584317.270
 109987911.906 8  85704922.648 7  20930003.586                    20930010.500
 110875173.786 8  86396354.842 7  21098833.398                    21098841.406
 11  8 20  0 50  0.0000000  0  9G30G25G09G02G10G17G04G12G05
 119489171.262 7  93108502.27444  22738035.547                    22738043.453
 121409368.209 7  94604783.342 7  23103437.539                    23103447.688
 129088727.587 7 100588669.10643  24564779.766                    24564791.676
 108821435.724 8  84796038.36746  20708014.461                    20708019.297
 110876236.982 8  86397170.93946  21099030.758                    21099038.414
 125182971.091 6  97545209.650 6  23821521.328                    23821530.664
 118763069.059 7  92542762.17445  22599846.563                    22599855.090
 109955924.045 8  85679997.053 7  20923916.719                    20923923.664
 110807683.144 8  86343764.766 7  21085990.695                    21085998.391
 11  8 20  0 50 30.0000000  0  9G30G25G09G02G10G17G04G12G05
 119410897.422 7  93047509.70344  22723140.383                    22723148.188
 121324447.425 7  94538611.344 6  23087277.320                    23087286.871
 129170923.239 7 100652717.54643  24580421.695                    24580432.289
 108836344.525 8  84807655.63046  20710851.625                    20710856.684
 110913213.973 8  86425984.17746  21106067.359                    21106075.383
 125245381.973 6  97593841.463 6  23833396.609                    23833406.758
 118844755.846 7  92606414.19544  22615391.242                    22615399.578
 109924476.340 8  85655492.358 7  20917932.133                    20917939.559
 110740649.086 8  86291530.485 7  21073234.211                    21073242.297
 11  8 20  0 51  0.0000000  0  9G30G25G09G02G10G17G04G12G05
 119333047.555 7  92986847.52744  22708326.352                    22708333.980
 121239855.294 7  94472695.444 6  23071179.859                    23071189.633
 129253092.141 6 100716745.15143  24596057.898                    24596068.852
 108851470.578 8  84819442.17846  20713729.852                    20713735.258
 110950783.838 8  86455259.39846  21113216.594                    21113224.352
 125307974.725 6  97642614.991 6  23845308.539                    23845318.254
 118926476.961 7  92670092.96745  22630941.930                    22630950.441
 109893569.608 8  85631409.202 7  20912051.047                    20912058.090
 110674073.792 8  86239653.677 7  21060565.109                    21060573.355
 11  8 20  0 51 30.0000000  0  9G30G25G09G02G10G17G04G12G05
 119255624.440 7  92926517.86544  22693592.758                    22693600.965
 121155594.758 7  94407037.930 6  23055145.461                    23055155.434
 129335231.560 6 100780749.74943  24611688.031                    24611700.441
 108866813.272 8  84831397.53046  20716649.320                    20716654.629
 110988945.502 8  86484995.76146  21120478.648                    21120486.160
 125370749.850 6  97691530.620 6  23857254.406                    23857263.602
 119008231.466 7  92733797.76444  22646499.867                    22646507.773
 109863205.903 8  85607749.178 7  20906272.719                    20906279.980
 110607959.919 8  86188136.417 7  21047984.586                    21047992.297
 11  8 20  0 52  0.0000000  0  9G30G25G09G02G10G17G04G12G05
 119178630.653 7  92866522.75844  22678941.445                    22678949.426
 121071668.433 7  94341640.845 7  23039174.633                    23039185.191
 129417338.253 6 100844728.87843  24627312.820                    24627324.973
 108882371.298 8  84843520.68546  20719610.203                    20719615.285
 111027697.271 8  86515191.94646  21127852.648                    21127860.344
 125433707.508 6  97740588.463 6  23869235.383                    23869244.348
 119090017.751 7  92797527.32644  22662062.633                    22662070.605
 109833386.230 8  85584513.077 7  20900598.352                    20900605.402
 110542309.701 8  86136980.452 7  21035491.563                    21035499.188
 11  8 20  0 52 30.0000000  0  9G30G25G09G02G10G17G04G12G05
 119102068.629 7  92806864.09744  22664371.836                    22664379.875
 120988078.863 7  94276506.157 6  23023268.008                    23023277.754
 129499409.209 6 100908680.19743  24642930.055                    24642942.324
 108898143.545 8  84855810.74946  20722611.531                    20722616.637
 111067037.814 8  86545846.91745  21135339.008                    21135346.508
 125496848.011 6  97789788.838 6  23881250.984                    23881259.438
 119171834.461 7  92861280.58944  22677631.953                    22677640.063
 109804111.941 7  85561701.953 7  20895027.883                    20895034.645
 110477125.153 8  86086187.340 7  21023087.453                    21023095.281
 11  8 20  0 53  0.0000000  0  9G30G25G09G02G10G17G04G12G05
 119025941.002 7  92747543.90444  22649885.445                    22649893.469
 120904828.709 7  94211635.955 6  23007426.305                    23007435.813
 129581441.366 6 100972601.20043  24658540.500                    24658552.973
 108914128.661 8  84868266.68746  20725653.281                    20725658.285
 111106965.506 8  86576959.41146  21142937.148                    21142944.707
 125560171.600 6  97839131.902 6  23893300.344                    23893309.219
 119253680.114 7  92925056.41044  22693206.852                    22693215.008
 109775384.419 8  85539316.875 7  20889561.195                    20889567.930
 110412408.307 8  86035758.674 7  21010772.070                    21010779.633
 11  8 20  0 53 30.0000000  0  9G30G25G09G02G10G17G04G12G05
 118950250.493 7  92688564.33044  22635482.008                    22635490.055
 120821920.801 7  94147032.421 6  22991648.992                    22991659.070
 129663431.763 6 101036489.71543  24674143.438                    24674155.250
 108930325.714 8  84880887.77346  20728735.414                    20728740.910
 111147479.446 8  86608528.71646  21150646.406                    21150654.191
 125623678.470 6  97888617.785 6  23905384.844                    23905393.855
 119335553.839 7  92988854.09044  22708787.148                    22708795.324
 109747205.349 8  85517359.163 7  20884198.922                    20884205.535
 110348161.786 8  85985696.502 7  20998546.117                    20998553.844
 11  8 20  0 54  0.0000000  0  9G30G25G09G02G10G17G04G12G05
 118874999.330 7  92629927.10144  22621161.961                    22621170.523
 120739357.463 7  94082697.400 7  22975938.125                    22975948.516
 129745377.200 6 101100343.18042  24689736.625                    24689749.074
 108946733.379 8  84893672.97446  20731857.711                    20731862.809
 111188577.472 8  86640553.15546  21158467.211                    21158474.652
 125687369.120 7  97938246.843 6  23917504.789                    23917514.355
 119417453.754 7  93052672.19445  22724372.023                    22724380.656
 109719575.810 8  85495829.659 7  20878941.094                    20878947.832
 110284387.304 8  85936002.144 7  20986410.125                    20986418.457
 11  8 20  0 54 30.0000000  0  9G30G25G09G02G10G17G04G12G05
 118800190.190 7  92571634.30745  22606926.789                    22606934.727
 120657141.387 7  94018632.956 7  22960293.219                    22960303.063
 129827274.887 6 101164159.49442  24705321.117                    24705333.473
 108963350.624 8  84906621.48346  20735020.070                    20735025.086
 111230257.802 8  86673031.33546  21166398.688                    21166406.184
 125751243.569 7  97988019.130 6  23929660.273                    23929668.715
 119499378.691 7  93116509.78145  22739961.672                    22739970.465
 109692497.035 8  85474729.315 7  20873787.734                    20873794.945
 110221087.105 8  85886677.363 7  20974364.523                    20974372.168
 11  8 20  0 55  0.0000000  0  9G30G25G09G02G10G17G04G12G05
 118725825.553 7  92513687.87445  22592775.391                    22592783.578
 120575275.175 7  93954841.136 7  22944714.094                    22944724.582
 129909121.807 6 101227936.15942  24720897.023                    24720909.344
 108980175.909 8  84919732.10146  20738221.781                    20738226.504
 111272518.856 8  86705962.03746  21174440.758                    21174448.566
 125815302.028 7  98037934.795 5  23941850.117                    23941858.473
 119581327.396 7  93180365.90045  22755555.477                    22755564.605
 109665970.302 8  85454059.130 7  20868740.336                    20868747.195
 110158263.326 8  85837723.808 8  20962409.867                    20962417.301
 11  8 20  0 55 30.0000000  0  9G30G25G09G02G10G17G04G12G05
 118651907.973 7  92456089.78645  22578709.492                    22578717.309
 120493761.428 7  93891323.982 7  22929202.578                    22929212.957
 129990914.847 6 101291670.86743  24736460.492                    24736474.137
 108997208.291 8  84933004.08746  20741462.469                    20741467.789
 111315359.083 8  86739344.03346  21182592.773                    21182600.691
 125879544.830 6  98087994.160 5  23954075.023                    23954082.906
 119663298.484 7  93244239.45145  22771155.008                    22771163.188
 109639996.791 8  85433820.033 7  20863797.555                    20863804.301
 110095917.913 8  85789143.018 7  20950545.891                    20950553.387
 11  8 20  0 56  0.0000000  0  9G30G25G09G02G10G17G04G12G05
 118578439.859 7  92398841.93945  22564728.477                    22564736.855
 120412602.794 7  93828083.514 7  22913758.836                    22913768.922
 130072651.218 6 101355361.43442  24752015.406                    24752028.102
 109014446.739 8  84946436.64746  20744743.492                    20744748.152
 111358777.112 8  86773176.28046  21190854.797                    21190862.816
 125943972.092 7  98138197.207 6  23966335.375                    23966344.098
 119745290.671 7  93308129.45345  22786757.359                    22786766.273
 109614577.996 8  85414013.180 7  20858960.523                    20858967.508
 110034052.977 8  85740936.610 7  20938773.070                    20938780.691
 11  8 20  0 56 30.0000000  0  9G30G25G09G02G10G17G04G12G05
 118505423.646 7  92341946.22545  22550834.203                    22550842.422
 120331801.731 7  93765121.670 7  22898382.898                    22898392.762
 130154328.052 6 101419005.52642  24767558.484                    24767570.570
 109031889.861 8  84960028.69346  20748062.688                    20748067.941
 111402771.078 7  86807457.31246  21199226.742                    21199234.684
 126008584.103 7  98188544.213 6  23978630.477                    23978640.188
 119827302.736 7  93372034.94345  22802364.016                    22802372.316
 109589714.746 8  85394639.219 7  20854229.219                    20854235.801
 109972670.527 8  85693106.173 7  20927092.367                    20927100.375
 11  8 20  0 57  0.0000000  0  9G30G25G09G02G10G17G04G12G05
 118432861.633 7  92285404.41545  22537026.375                    22537034.492
 120251360.713 7  93702440.376 7  22883075.414                    22883085.383
 130235942.078 5 101482600.77042  24783088.203                    24783101.457
 109049536.198 8  84973779.08146  20751420.367                    20751425.793
 111447339.083 8  86842185.63446  21207707.766                    21207715.258
 126073381.082 6  98239035.311 6  23990960.242                    23990970.695
 119909333.085 7  93435954.66044  22817973.633                    22817982.605
 109565408.032 8  85375698.922 7  20849603.969                    20849610.496
 109911772.477 8  85645653.194 8  20915503.711                    20915511.445
 11  8 20  0 57 30.0000000  0  9G30G25G09G02G10G17G04G12G05
 118360756.480 7  92229218.60045  22523304.969                    22523313.027
 120171282.442 7  93640041.751 7  22867836.969                    22867846.902
 130317490.300 5 101546144.65352  24798606.563                    24798619.598
 109067384.991 8  84987687.23046  20754816.836                    20754821.840
 111492479.830 7  86877360.25645  21216298.016                    21216305.344
 126138363.291 6  98289670.730 6  24003326.070                    24003335.918
 119991380.695 7  93499887.86044  22833585.789                    22833595.457
 109541659.294 8  85357193.407 7  20845084.672                    20845091.758
 109851361.146 8  85598579.459 8  20904008.023                    20904015.551
 11  8 20  0 58  0.0000000  0  9G30G25G09G02G10G17G04G12G05
 118289110.813 7  92173390.83045  22509671.133                    22509679.410
 120091569.739 7  93577927.986 7  22852667.789                    22852678.367
 130398970.134 5 101609635.30942  24814112.430                    24814124.418
 109085435.348 8  85001752.44046  20758251.695                    20758257.023
 111538191.347 7  86912979.63545  21224996.586                    21225003.867
 126203531.027 6  98340450.722 6  24015727.852                    24015736.941
 120073444.347 7  93563833.52344  22849202.078                    22849211.266
 109518469.832 8  85339123.695 7  20840671.594                    20840678.695
 109791438.586 8  85551886.600 7  20892605.320                    20892612.461
 11  8 20  0 58 30.0000000  0  9G30G25G09G02G10G17G04G12G05
 118217926.597 7  92117922.63645  22496125.156                    22496133.512
 120012224.722 7  93516100.729 7  22837568.977                    22837579.316
 130480378.247 6 101673070.05942  24829603.242                    24829616.055
 109103685.213 8  85015973.10646  20761724.836                    20761729.707
 111584471.555 7  86949042.14646  21233803.414                    21233811.109
 126268883.872 6  98391374.984 6  24028163.742                    24028173.176
 120155522.524 7  93627790.51744  22864821.266                    22864829.859
 109495840.276 8  85321490.265 7  20836365.555                    20836372.547
 109732006.493 8  85505575.921 7  20881295.633                    20881303.148
 11  8 20  0 59  0.0000000  0  9G30G25G09G02G10G17G04G12G05
 118147206.512 7  92062816.09244  22482667.523                    22482675.613
 119933250.138 7  93454562.125 7  22822540.094                    22822550.781
 130561712.044 5 101736446.91642  24845080.086                    24845093.938
 109122133.983 8  85030348.77446  20765235.531                    20765240.262
 111631319.279 8  86985546.87846  21242717.859                    21242725.902
 126334422.378 6  98442443.898 6  24040635.297                    24040645.016
 120237614.197 7  93691758.04844  22880442.797                    22880451.199
 109473772.141 8  85304294.320 7  20832165.758                    20832173.051
 109673066.875 8  85459648.984 7  20870079.711                    20870087.195
 11  8 20  0 59 30.0000000  0  9G30G25G09G02G10G17G04G12G05
 118076953.059 7  92008073.17044  22469298.773                    22469307.031
 119854648.710 7  93393314.273 7  22807583.352                    22807593.629
 130642968.815 5 101799763.76342  24860542.531                    24860556.570
 109140780.859 8  85044878.80046  20768783.750                    20768788.793
 111678732.613 7  87022492.35146  21251740.508                    21251748.195
 126400146.954 6  98493657.778 6  24053141.953                    24053151.914
 120319718.172 7  93755735.14844  22896067.508                    22896075.156
 109452266.610 8  85287536.763 7  20828074.016                    20828080.848
 109614621.739 8  85414107.358 7  20858957.766                    20858965.449
 11  8 20  1  0  0.0000000  0  9G30G25G09G02G10G17G04G12G05
 118007169.142 7  91953696.10044  22456019.523                    22456027.508
 119776423.584 7  93332359.635 7  22792697.461                    22792707.555
 130724146.098 5 101863018.61742  24875992.719                    24876004.531
 109159624.854 8  85059562.43046  20772369.609                    20772374.941
 111726710.425 8  87059877.68146  21260870.570                    21260877.828
 126466058.403 6  98545017.283 6  24065684.953                    24065694.703
 120401833.870 7  93819721.37544  22911693.102                    22911702.023
 109431325.073 8  85271218.683 8  20824088.688                    20824095.586
 109556673.728 8  85368953.099 8  20847930.625                    20847938.461
 11  8 20  1  0 30.0000000  0  8G30G25G02G10G17G04G12G05
 117937856.377 7  91899686.17745  22442829.430                    22442837.527
 119698576.361 7  93271699.488 7  22777883.703                    22777893.844
 109178664.340 8  85074398.39646  20775992.609                    20775998.082
 111775249.605 8  87097700.43545  21270107.086                    21270114.539
 126532155.876 6  98596521.780 6  24078263.406                    24078272.441
 120483959.425 7  93883715.28844  22927321.891                    22927329.844
 109410947.727 8  85255340.233 7  20820210.805                    20820218.000
 109499224.016 8  85324187.128 8  20836998.375                    20837005.871
 11  8 20  1  1  0.0000000  0  8G30G25G02G10G17G04G12G05
 117869017.503 7  91846045.49844  22429730.109                    22429738.012
 119621110.040 7  93211336.136 7  22763142.039                    22763152.184
 109197898.484 8  85089386.04346  20779652.453                    20779657.832
 111824349.212 8  87135959.88445  21279450.555                    21279458.148
 126598439.805 6  98648171.570 6  24090875.961                    24090886.121
 120566093.925 7  93947716.15044  22942951.172                    22942960.246
 109391136.092 8  85239902.598 7  20816440.992                    20816447.840
 109442274.592 8  85279810.990 7  20826161.438                    20826168.516
 11  8 20  1  1 30.0000000  0  8G30G25G02G10G17G04G12G05
 117800654.202 7  91792775.38544  22416721.328                    22416728.941
 119544026.458 7  93151271.028 7  22748473.500                    22748483.598
 109217324.941 8  85104523.54246  20783349.703                    20783355.039
 111874006.496 8  87174653.87145  21288899.953                    21288907.301
 126664909.927 6  98699966.406 6  24103525.555                    24103534.695
 120648235.347 7  94011722.39644  22958581.898                    22958590.746
 109371890.598 8  85224906.112 8  20812778.938                    20812785.117
 109385827.077 8  85235825.954 8  20815419.734                    20815427.270
 11  8 20  1  2  0.0000000  0  8G30G25G02G10G17G04G12G05
 117732769.006 7  91739877.86144  22403802.883                    22403810.906
 119467328.344 7  93091506.279 7  22733878.633                    22733888.289
 109236943.204 8  85119810.49946  20787083.000                    20787087.992
 111924219.462 8  87213780.86445  21298455.344                    21298462.977
 126731566.660 6  98751906.621 6  24116209.445                    24116220.094
 120730382.727 6  94075733.28444  22974214.164                    22974222.961
 109353211.917 8  85210351.296 7  20809224.297                    20809231.191
 109329883.353 8  85192233.475 7  20804773.656                    20804781.008
 11  8 20  1  2 30.0000000  0  8G30G25G02G10G17G04G12G05
 117665364.517 7  91687354.88244  22390975.938                    22390983.988
 119391018.472 7  93032044.056 7  22719357.453                    22719367.316
 109256752.547 8  85135246.34846  20790852.117                    20790857.453
 111974986.875 7  87253339.88745  21308115.891                    21308123.418
 126798409.942 7  98803992.241 6  24128930.070                    24128939.512
 120812535.289 6  94139748.22244  22989846.781                    22989855.844
 109335101.573 8  85196239.343 7  20805778.102                    20805784.641
 109274445.141 8  85149034.908 7  20794224.234                    20794231.426
 11  8 20  1  3  0.0000000  0  8G30G25G02G10G17G04G12G05
 117598442.858 7  91635208.13344  22378240.930                    22378248.715
 119315099.231 7  92972886.216 7  22704910.344                    22704920.324
 109276751.596 8  85150830.02246  20794658.031                    20794663.184
 112026306.395 8  87293329.12545  21317881.523                    21317889.207
 126865440.018 7  98856223.473 6  24141686.141                    24141694.445
 120894691.552 7  94203766.02044  23005481.531                    23005489.555
 109317560.487 8  85182570.973 7  20802439.898                    20802446.750
 109219514.811 8  85106232.091 8  20783771.430                    20783778.727
 11  8 20  1  3 30.0000000  0  8G30G25G02G10G17G04G12G05
 117532006.312 7  91583439.39844  22365598.844                    22365606.543
 119239573.022 7  92914034.637 7  22690538.422                    22690548.141
 109296939.284 8  85166560.68946  20798499.805                    20798505.082
 112078176.042 7  87333747.02445  21327752.492                    21327760.145
 126932656.820 6  98908600.230 6  24154475.711                    24154485.215
 120976850.598 6  94267786.00244  23021115.891                    23021124.672
 109300589.267 8  85169346.644 7  20799210.508                    20799217.664
 109165093.631 8  85063826.005 8  20773415.438                    20773422.816
 11  8 20  1  4  0.0000000  0  8G30G25G02G10G17G04G12G05
 117466057.036 7  91532050.36145  22353049.492                    22353056.820
 119164442.289 7  92855491.217 7  22676240.930                    22676251.133
 109317314.226 8  85182437.26846  20802376.852                    20802382.168
 112130593.797 8  87374592.02845  21337726.789                    21337733.988
 127000060.719 6  98961122.722 6  24167301.648                    24167311.152
 121059011.163 7  94331807.16844  23036750.508                    23036758.379
 109284188.662 8  85156566.950 7  20796089.867                    20796096.664
 109111183.232 8  85021817.944 8  20763156.563                    20763164.152
 11  8 20  1  4 30.0000000  0  8G30G25G02G10G17G04G12G05
 117400597.138 7  91481042.66045  22340592.805                    22340600.473
 119089709.241 7  92797257.680 7  22662019.891                    22662030.168
 109337874.983 8  85198458.64246  20806289.438                    20806294.543
 112183557.178 7  87415862.18645  21347805.203                    21347812.707
 127067651.447 6  99013790.772 6  24180164.953                    24180174.660
 121141171.917 7  94395828.51444  23052385.063                    23052393.086
 109268359.298 8  85144232.385 7  20793076.781                    20793084.125
 109057785.452 8  84980209.309 8  20752995.266                    20753002.793
 11  8 20  1  5  0.0000000  0  8G30G25G02G10G17G04G12G05
 117335629.044 7  91430418.17145  22328229.438                    22328237.156
 119015376.665 7  92739336.202 7  22647874.914                    22647884.840
 109358620.989 8  85214624.36546  20810237.523                    20810242.469
 112237064.500 7  87457556.20645  21357987.414                    21357994.938
 127135429.405 6  99066604.737 6  24193062.484                    24193072.176
 121223331.930 7  94459849.28444  23068019.805                    23068027.883
 109253102.286 8  85132343.797 8  20790174.102                    20790180.777
 109004902.068 8  84939001.510 8  20742932.023                    20742939.316
 11  8 20  1  5 30.0000000  0  8G30G25G02G10G17G04G12G05
 117271155.283 7  91380178.89845  22315960.992                    22315968.762
 118941447.371 8  92681728.973 7  22633806.508                    22633816.660
 109379551.313 8  85230933.71446  20814219.938                    20814225.387
 112291114.193 7  87499672.84146  21368272.961                    21368280.582
 127203394.590 6  99119564.602 6  24205995.523                    24206004.855
 121305490.415 7  94523868.85844  23083654.180                    23083662.063
 109238418.857 8  85120902.157 7  20787379.789                    20787386.973
 108952535.053 8  84898196.082 8  20732966.641                    20732974.188
 11  8 20  1  6  0.0000000  0  8G30G25G02G10G17G04G12G05
 117207177.563 7  91330326.14245  22303786.195                    22303794.117
 118867923.108 7  92624437.352 7  22619815.719                    22619825.922
 109400664.121 8  85247385.25946  20818237.508                    20818243.188
 112345703.602 7  87542210.04245  21378660.445                    21378668.473
 127271546.893 6  99172670.258 5  24218964.805                    24218973.648
 121387645.709 7  94587885.92944  23099287.531                    23099296.410
 109224308.954 8  85109907.420 7  20784694.961                    20784701.512
 108900685.767 8  84857794.075 8  20723100.023                    20723107.570
 11  8 20  1  6 30.0000000  0  8G30G25G02G10G17G04G12G05
 117143698.287 7  91280861.78845  22291706.031                    22291713.820
 118794806.620 8  92567463.489 7  22605902.359                    22605911.566
 109421958.700 8  85263978.43246  20822290.055                    20822295.168
 112400830.936 7  87585166.39345  21389151.422                    21389158.848
 127339886.540 6  99225921.943 5  24231969.406                    24231977.574
 121469796.968 7  94651899.84544  23114920.500                    23114929.352
 109210773.514 8  85099360.322 7  20782119.227                    20782125.930
 108849355.960 8  84817796.865 8  20713332.258                    20713339.840
 11  8 20  1  7  0.0000000  0  8G30G25G02G10G17G04G12G05
 117080719.637 7  91231787.54745  22279722.258                    22279729.805
 118722100.325 8  92510809.255 7  22592066.328                    22592076.422
 109443433.931 8  85280712.37946  20826376.539                    20826381.809
 112456493.860 8  87628540.09545  21399743.578                    21399751.301
 127408413.414 6  99279319.488 6  24245009.656                    24245019.270
 121551943.203 7  94715909.85544  23130551.859                    23130561.566
 109197813.018 8  85089261.222 8  20779652.758                    20779659.977
 108798547.213 8  84778205.665 8  20703663.469                    20703671.227
 11  8 20  1  7 30.0000000  0  8G30G25G02G10G17G04G12G05
 117018243.485 7  91183104.87145  22267832.555                    22267840.727
 118649806.382 7  92454476.341 7  22578309.172                    22578319.043
 109465088.461 8  85297586.03346  20830497.211                    20830502.691
 112512690.089 7  87672329.36045  21410437.383                    21410444.754
 127477128.011 6  99332863.289 6  24258085.602                    24258095.488
 121634083.173 7  94779914.96244  23146183.039                    23146192.133
 109185428.543 8  85079610.977 8  20777296.086                    20777303.270
 108748261.002 8  84739021.646 8  20694094.844                    20694102.195
 11  8 20  1  8  0.0000000  0  8G30G25G02G10G17G04G12G05
 116956272.260 7  91134815.64045  22256039.914                    22256048.031
 118577927.488 7  92398466.837 7  22564631.016                    22564640.625
 109486921.359 8  85314598.68846  20834651.820                    20834657.469
 112569417.722 7  87716532.70045  21421232.430                    21421240.027
 127546029.996 6  99386553.079 6  24271197.266                    24271206.813
 121716215.924 6  94843914.44044  23161812.156                    23161821.469
 109173620.669 8  85070410.026 8  20775049.359                    20775055.938
 108698499.140 8  84700246.199 8  20684625.266                    20684632.375
 11  8 20  1  8 30.0000000  0  8G30G25G02G10G17G04G12G05
 116894808.171 7  91086921.59045  22244343.922                    22244352.461
 118506466.103 7  92342782.677 7  22551032.664                    22551042.629
 109508931.930 8  85331749.77646  20838840.117                    20838845.703
 112626674.801 7  87761148.61645  21432128.250                    21432135.570
 127615119.425 6  99440388.971 6  24284344.711                    24284353.629
 121798340.585 6  94907907.62944  23177440.164                    23177449.633
 109162389.865 8  85061658.750 7  20772912.008                    20772918.754
 108649263.222 8  84661880.587 8  20675255.648                    20675263.113
 11  8 20  1  9  0.0000000  0  8G30G25G02G10G17G04G12G05
 116833853.244 7  91039424.28345  22232744.547                    22232752.809
 118435424.538 7  92287425.652 7  22537513.391                    22537524.043
 109531118.629 8  85349038.11246  20843062.523                    20843068.027
 112684459.020 7  87806175.28045  21443123.891                    21443131.324
 127684396.288 7  99494370.954 6  24297527.789                    24297536.895
 121880455.950 6  94971893.57444  23193066.648                    23193075.652
 109151736.871 8  85053357.706 7  20770885.023                    20770892.137
 108600554.802 8  84623926.013 8  20665986.977                    20665994.570
 11  8 20  1  9 30.0000000  0  8G30G25G02G10G17G04G12G05
 116773409.671 7  90992325.43645  22221242.453                    22221250.648
 118364805.367 7  92232397.752 7  22524075.180                    22524085.340
 109553480.758 8  85366463.14646  20847317.906                    20847323.230
 112742768.176 7  87851610.98945  21454219.469                    21454227.574
 127753860.791 7  99548499.133 6  24310746.680                    24310755.641
 121962561.033 6  95035871.49544  23208690.492                    23208699.770
 109141662.616 8  85045507.626 7  20768967.828                    20768975.156
 108552375.731 8  84586383.918 8  20656818.594                    20656826.133
 11  8 20  1 10  0.0000000  0  9G30G25G29G02G10G17G04G12G05
 116713479.419 7  90945626.56545  22209838.063                    22209846.586
 118294610.704 7  92177700.671 7  22510717.531                    22510727.941
 129565832.03116 100960470.45716  24655568.109                    24655577.660
 109576017.030 8  85384023.87646  20851606.297                    20851611.547
 112801600.004 7  87897453.97945  21465414.781                    21465422.621
 127823512.914 6  99602773.460 6  24324000.547                    24324010.777
 122044654.940 7  95099840.73144  23224312.539                    23224321.410
 109132167.421 8  85038108.766 7  20767161.117                    20767167.988
 108504726.919 8  84549255.002 8  20647751.211                    20647758.660
 11  8 20  1 10 30.0000000  0  9G30G25G29G02G10G17G04G12G05
 116654064.375 7  90899329.18545  22198531.727                    22198539.805
 118224842.758 7  92123336.085 7  22497441.031                    22497451.418
 129486351.993 6 100898538.022 6  24640444.258                    24640452.809
 109598726.175 8  85401719.30746  20855927.641                    20855932.867
 112860951.963 8  87943702.25645  21476709.461                    21476717.063
 127893352.572 6  99657193.911 6  24337290.391                    24337300.680
 122126736.542 7  95163800.38044  23239932.336                    23239941.422
 109123251.335 8  85031161.161 7  20765464.320                    20765471.207
 108457610.284 8  84512540.781 8  20638785.305                    20638792.730
 11  8 20  1 11  0.0000000  0  9G30G25G29G02G10G17G04G12G05
 116595166.916 7  90853435.10445  22187323.656                    22187332.219
 118155504.306 7  92069306.162 7  22484246.133                    22484256.672
 129406793.634 6 100836544.580 6  24625303.828                    24625313.391
 109621607.626 8  85419549.00946  20860282.250                    20860287.777
 112920822.514 8  87990354.64045  21488102.266                    21488110.465
 127963379.934 7  99711760.629 6  24350616.805                    24350626.801
 122208804.955 7  95227749.77844  23255549.398                    23255557.559
 109114915.459 8  85024665.669 7  20763877.977                    20763885.125
 108411027.616 8  84476242.628 8  20629920.859                    20629928.508
 11  8 20  1 11 30.0000000  0  9G30G25G29G02G10G17G04G12G05
 116536788.843 7  90807945.73645  22176214.680                    22176223.207
 118086597.323 7  92015612.450 7  22471133.477                    22471143.617
 129327157.078 6 100774490.201 6  24610149.219                    24610159.191
 109644659.696 8  85437511.66346  20864668.586                    20864673.898
 112981208.765 8  88037408.86845  21499593.320                    21499601.250
 128033594.654 6  99766473.367 6  24363978.047                    24363987.305
 122290858.952 7  95291687.93844  23271163.742                    23271172.109
 109107159.858 8  85018622.341 8  20762402.211                    20762409.285
 108364979.573 8  84440361.070 8  20621158.352                    20621165.703
 11  8 20  1 12  0.0000000  0  9G30G25G29G02G10G17G04G12G05
 116478931.991 7  90762862.51245  22165204.961                    22165213.531
 118018124.075 7  91962256.715 7  22458103.516                    22458113.918
 129247443.059 6 100712375.475 6  24594980.930                    24594989.629
 109667881.543 8  85455606.60246  20869087.789                    20869092.953
 113042108.658 7  88084863.33945  21511182.422                    21511190.230
 128103996.865 6  99821332.218 6  24377374.547                    24377384.449
 122372897.808 7  95355614.30044  23286775.594                    23286783.816
 109099984.895 8  85013031.459 7  20761036.789                    20761043.309
 108319467.711 8  84404897.319 8  20612497.547                    20612505.125
 11  8 20  1 12 30.0000000  0  9G30G25G29G02G10G17G04G12G05
 116421598.478 7  90718187.07445  22154295.078                    22154303.035
 117950087.002 7  91909240.855 7  22445156.531                    22445166.746
 129167651.971 7 100650200.686 6  24579796.516                    24579806.188
 109691272.006 8  85473832.93846  20873538.531                    20873544.477
 113103519.778 8  88132716.17145  21522868.023                    21522875.863
 128174586.517 6  99876337.090 6  24390807.281                    24390817.074
 122454920.303 6  95419527.91943  23302383.203                    23302391.727
 109093391.335 8  85007893.622 7  20759782.086                    20759789.195
 108274493.695 8  84369852.663 8  20603939.227                    20603946.996
 11  8 20  1 13  0.0000000  0  9G30G25G29G02G10G17G04G12G05
 116364790.238 7  90673920.94545  22143484.820                    22143492.473
 117882488.324 7  91856566.605 7  22432292.945                    22432303.406
 129087784.622 7 100587966.461 6  24564598.875                    24564608.074
 109714830.098 8  85492189.89646  20878021.914                    20878027.152
 113165439.874 7  88180965.61745  21534651.648                    21534659.289
 128245363.428 6  99931487.845 6  24404277.102                    24404286.355
 122536925.583 6  95483428.13543  23317988.852                    23317996.965
 109087379.372 8  85003208.972 7  20758638.172                    20758644.836
 108230058.467 8  84335227.845 8  20595483.602                    20595490.793
 11  8 20  1 13 30.0000000  0  9G30G25G29G02G10G17G04G12G05
 116308509.190 7  90630065.61445  22132774.414                    22132782.965
 117815330.341 7  91804235.750 7  22419512.914                    22419523.238
 129007841.590 7 100525673.267 6  24549385.969                    24549394.660
 109738554.764 8  85510676.65146  20882536.281                    20882541.617
 113227866.700 7  88229609.90145  21546531.234                    21546538.551
 128316327.558 6  99986784.533 6  24417780.758                    24417790.133
 122618912.649 6  95547314.12544  23333590.125                    23333599.082
 109081949.585 8  84998977.967 7  20757604.914                    20757611.656
 108186163.750 8  84301024.202 8  20587130.422                    20587138.109
 11  8 20  1 14  0.0000000  0  9G30G25G29G02G10G17G04G12G05
 116252757.341 7  90586622.62945  22122165.508                    22122173.465
 117748615.458 7  91752250.158 7  22406818.164                    22406827.926
 128927823.356 7 100463321.434 5  24534158.883                    24534167.605
 109762444.970 8  85529292.39446  20887082.625                    20887088.090
 113290797.916 7  88278647.22645  21558506.406                    21558514.250
 128387478.983 6 100042227.187 6  24431320.102                    24431329.863
 122700880.622 6  95611185.27944  23349188.391                    23349196.824
 109077101.952 8  84995200.594 8  20756682.445                    20756689.531
 108142810.925 8  84267242.818 8  20578880.961                    20578888.383
 11  8 20  1 14 30.0000000  0  9G30G25G29G02G10G17G04G12G05
 116197536.587 7  90543593.47745  22111657.227                    22111665.207
 117682345.769 7  91700611.471 7  22394207.438                    22394217.176
 128847730.385 7 100400911.347 5  24518917.625                    24518926.512
 109786499.868 7  85548036.47546  20891659.680                    20891665.016
 113354231.114 7  88328075.70245  21570577.242                    21570585.098
 128458817.659 5 100097815.722 5  24444894.273                    24444904.887
 122782828.707 6  95675040.93044  23364782.469                    23364791.109
 109072837.369 7  84991877.537 7  20755870.641                    20755877.723
 108100001.142 8  84233884.577 8  20570734.336                    20570741.559
 11  8 20  1 15  0.0000000  0  9G30G25G29G02G10G17G04G12G05
 116142848.696 7  90500979.54945  22101250.398                    22101258.496
 117616523.538 7  91649321.446 7  22381681.805                    22381691.848
 128767563.334 7 100338443.545 5  24503661.961                    24503670.887
 109810718.127 8  85566907.85046  20896268.359                    20896273.629
 113418163.834 7  88377893.41245  21582743.344                    21582751.129
 128530343.749 6 100153550.338 5  24458506.273                    24458515.938
 122864755.687 6  95738880.11844  23380372.570                    23380381.559
 109069155.235 8  84989008.348 7  20755170.219                    20755177.238
 108057735.653 8  84200950.462 8  20562691.406                    20562699.117
 11  8 20  1 15 30.0000000  0  9G30G25G29G02G10G17G04G12G05
 116088695.675 7  90458782.39945  22090945.641                    22090953.648
 117551151.084 7  91598381.889 7  22369241.727                    22369251.375
 128687322.887 6 100275918.522 5  24488392.891                    24488401.188
 109835098.952 8  85585905.89846  20900908.242                    20900913.156
 113482593.554 7  88428098.39145  21595003.961                    21595011.621
 128602056.626 6 100209430.524 5  24472153.570                    24472162.418
 122946661.059 6  95802702.47744  23395959.078                    23395967.332
 109066056.431 7  84986593.687 8  20754580.625                    20754587.531
 108016016.063 8  84168441.727 8  20554752.383                    20554759.516
 11  8 20  1 16  0.0000000  0  9G30G25G29G02G10G17G04G12G05
 116035079.328 7  90417003.42745  22080742.625                    22080750.859
 117486230.516 7  91547794.452 7  22356887.492                    22356897.289
 128607009.518 7 100213336.717 5  24473109.633                    24473118.953
 109859641.076 8  85605029.63446  20905578.453                    20905583.809
 113547518.082 8  88478688.92945  21607358.742                    21607366.082
 128673956.464 7 100265456.411 6  24485835.852                    24485845.016
 123028543.636 6  95866507.08044  23411540.641                    23411548.797
 109063540.986 8  84984633.599 8  20754102.008                    20754108.773
 107974843.213 8  84136359.016 8  20546917.625                    20546925.012
 11  8 20  1 16 30.0000000  0  9G30G25G29G02G10G17G04G12G05
 115982001.382 7  90375643.99845  22070642.695                    22070649.859
 117421764.083 7  91497560.885 7  22344620.367                    22344629.957
 128526623.860 6 100150698.563 6  24457813.109                    24457821.941
 109884343.554 8  85624278.33146  20910279.016                    20910284.398
 113612934.970 7  88529663.14245  21619806.711                    21619814.234
 128746043.129 7 100321627.838 6  24499552.406                    24499562.176
 123110402.531 6  95930293.21944  23427117.719                    23427127.195
 109061609.320 8  84983128.406 7  20753734.313                    20753741.367
 107934218.574 8  84104703.484 8  20539186.672                    20539194.133
 11  8 20  1 17  0.0000000  0  9G30G25G29G02G10G17G04G12G05
 115929465.015 7  90334706.56745  22060644.922                    22060652.590
 117357755.322 7  91447683.929 7  22332439.523                    22332449.488
 128446167.912 6 100088005.633 6  24442502.227                    24442510.773
 109909206.595 8  85643652.13346  20915010.492                    20915015.691
 113678843.050 8  88581020.07945  21632348.680                    21632356.527
 128818317.889 7 100377945.868 6  24513306.656                    24513315.125
 123192238.371 6  95994061.38243  23442690.750                    23442699.711
 109060262.723 8  84982079.109 7  20753478.086                    20753484.703
 107894144.410 8  84073476.892 8  20531560.820                    20531568.340
 11  8 20  1 17 30.0000000  0  8G30G25G29G02G10G04G12G05
 115877470.677 7  90294191.49045  22050750.688                    22050758.426
 117294204.988 7  91398164.204 7  22320346.578                    22320355.941
 128365641.052 6 100025257.481 6  24427178.867                    24427187.395
 109934228.076 8  85663149.39746  20919771.922                    20919777.059
 113745238.593 7  88632756.86645  21644983.438                    21644991.160
 123274048.666 6  96057809.67343  23458259.133                    23458267.203
 109059500.060 8  84981484.832 8  20753332.719                    20753339.738
 107854620.646 8  84042679.190 8  20524039.695                    20524047.430
 11  8 20  1 18  0.0000000  0  8G30G25G29G02G10G04G12G05
 115826020.099 7  90254100.13445  22040959.711                    22040967.672
 117231115.309 7  91349003.424 7  22308340.609                    22308350.805
 128285043.874 6  99962454.549 6  24411841.922                    24411850.527
 109959406.904 8  85682769.26546  20924562.844                    20924567.988
 113812118.667 7  88684871.20745  21657710.219                    21657718.027
 123355832.840 6  96121537.59143  23473821.406                    23473830.484
 109059321.460 8  84981345.663 7  20753298.984                    20753305.840
 107815648.396 8  84012311.238 8  20516623.422                    20516630.848
 11  8 20  1 18 30.0000000  0  8G30G25G29G02G10G04G12G05
 115775114.978 7  90214433.79645  22031272.977                    22031280.879
 117168488.384 7  91300203.225 7  22296423.219                    22296433.277
 128204376.879 6  99899597.238 6  24396491.453                    24396500.434
 109984741.896 8  85702510.83546  20929384.422                    20929389.391
 113879481.128 7  88737361.43545  21670528.961                    21670536.641
 123437589.841 7  96185244.34044  23489378.945                    23489388.492
 109059727.128 8  84981661.768 7  20753376.000                    20753382.840
 107777228.851 8  83982373.969 8  20509312.609                    20509320.164
 11  8 20  1 19  0.0000000  0  8G30G25G29G02G10G04G12G05
 115724756.863 7  90175193.70245  22021689.992                    22021698.094
 117106326.102 7  91251765.083 7  22284594.281                    22284603.758
 128123640.929 6  99836686.167 6  24381126.906                    24381136.703
 110010231.867 8  85722373.15646  20934234.617                    20934240.059
 113947323.265 7  88790225.42345  21683439.102                    21683446.559
 123519318.736 7  96248929.18444  23504932.055                    23504941.551
 109060716.737 8  84982432.894 7  20753564.281                    20753571.148
 107739363.214 8  83952868.315 8  20502106.977                    20502114.477
 11  8 20  1 19 30.0000000  0  8G30G25G29G02G10G04G12G05
 115674947.823 7  90136381.47145  22012212.211                    22012220.094
 117044631.009 7  91203690.975 7  22272853.961                    22272863.961
 128042836.632 6  99773721.836 6  24365751.406                    24365760.348
 110035876.413 8  85742355.92846  20939114.922                    20939120.035
 114015642.974 8  88843461.55445  21696439.891                    21696447.566
 123601018.883 7  96312591.62044  23520479.508                    23520488.109
 109062290.965 8  84983659.575 8  20753864.117                    20753870.449
 107702052.114 8  83923794.768 8  20495007.156                    20495014.223
 11  8 20  1 20  0.0000000  0  8G30G25G29G02G10G04G12G05
 115625689.326 7  90097998.21645  22002838.500                    22002846.418
 116983405.020 7  91155982.402 7  22261203.234                    22261213.066
 127961964.624 6  99710704.763 6  24350361.219                    24350370.445
 110061674.285 8  85762458.16946  20944023.672                    20944028.898
 114084437.591 8  88897067.73345  21709530.734                    21709538.199
 123682689.498 7  96376231.04944  23536020.484                    23536029.004
 109064449.627 8  84985341.650 8  20754274.750                    20754281.879
 107665296.731 8  83895154.243 8  20488012.336                    20488019.840
 11  8 20  1 20 30.0000000  0  8G30G25G29G02G10G04G12G05
 115576982.990 7  90060045.21845  21993569.633                    21993577.563
 116922650.183 7  91108640.972 7  22249641.922                    22249651.457
 127881025.641 6  99647635.496 6  24334959.523                    24334968.238
 110087624.331 8  85782678.99646  20948961.680                    20948967.195
 114153704.554 7  88951041.97945  21722711.703                    21722719.559
 123764329.738 7  96439846.80444  23551555.945                    23551564.824
 109067192.284 7  84987478.794 7  20754796.625                    20754803.949
 107629098.023 8  83866947.490 8  20481123.930                    20481131.426
 11  8 20  1 21  0.0000000  0  8G30G25G29G02G10G04G12G05
 115528830.310 7  90022523.65745  21984406.609                    21984414.500
 116862368.532 7  91061668.250 7  22238170.781                    22238180.512
 127800020.349 6  99584514.556 6  24319544.555                    24319553.371
 110113725.398 8  85803017.49346  20953928.859                    20953933.691
 114223441.076 7  89005382.12845  21735982.023                    21735990.281
 123845938.589 7  96503438.09944  23567086.383                    23567094.684
 109070519.095 8  84990071.118 8  20755429.391                    20755436.395
 107593457.206 8  83839175.469 8  20474341.945                    20474349.676
 11  8 20  1 21 30.0000000  0  8G30G25G29G02G10G04G12G05
 115481233.311 7  89985435.08945  21975349.313                    21975356.934
 116802562.348 8  91015066.045 7  22226790.008                    22226799.617
 127718949.565 7  99521342.581 6  24304117.438                    24304126.184
 110139977.072 8  85823473.34546  20958924.516                    20958929.340
 114293645.010 7  89060086.48545  21749341.844                    21749349.223
 123927515.488 7  96567004.51544  23582609.734                    23582618.547
 109074430.471 8  84993118.936 7  20756174.008                    20756180.965
 107558375.362 8  83811838.996 8  20467665.977                    20467673.273
 11  8 20  1 22  0.0000000  0  8G30G25G29G02G10G04G12G05
 115434193.387 7  89948780.60445  21966397.820                    21966405.191
 116743233.607 8  90968835.865 7  22215499.719                    22215509.789
 127637813.929 7  99458120.077 6  24288677.641                    24288686.707
 110166378.271 8  85844045.71046  20963948.156                    20963953.746
 114364313.707 7  89115153.00545  21762789.469                    21762797.168
 124009059.630 7  96630545.36844  23598126.391                    23598135.770
 109078926.031 8  84996621.970 7  20757029.219                    20757036.449
 107523853.302 8  83784938.726 8  20461096.648                    20461104.289
 11  8 20  1 22 30.0000000  0  8G30G25G29G02G10G04G12G05
 115387712.105 7  89912561.43645  21957552.672                    21957560.180
 116684384.371 8  90922979.322 7  22204301.180                    22204311.512
 127556614.380 6  99394847.789 6  24273225.617                    24273234.430
 110192927.928 8  85864733.75346  20969000.328                    20969005.527
 114435444.566 7  89170579.64645  21776325.195                    21776332.758
 124090570.361 7  96694060.16744  23613637.516                    23613646.730
 109084005.529 8  85000580.021 7  20757996.281                    20758002.984
 107489892.196 8  83758475.568 8  20454634.102                    20454641.270
 11  8 20  1 23  0.0000000  0  8G30G25G29G02G10G04G12G05
 115341791.127 7  89876778.85945  21948814.258                    21948822.230
 116626016.633 8  90877497.984 7  22193194.133                    22193204.496
 127475351.663 6  99331526.268 6  24257761.555                    24257770.727
 110219624.932 8  85885536.61246  20974080.688                    20974085.988
 114507034.947 7  89226364.35245  21789948.156                    21789955.965
 124172046.839 6  96757548.32543  23629141.578                    23629151.477
 109089668.993 8  85004993.116 7  20759073.656                    20759080.742
 107456493.090 8  83732450.327 8  20448278.289                    20448285.637
 11  8 20  1 23 30.0000000  0  8G30G25G29G02G10G04G12G05
 115296431.944 7  89841434.06145  21940182.430                    21940190.508
 116568132.522 8  90832393.497 7  22182179.203                    22182189.441
 127394026.532 6  99268156.094 6  24242286.102                    24242294.504
 110246468.588 8  85906453.74246  20979188.945                    20979193.805
 114579082.430 7  89282505.23645  21803658.758                    21803666.055
 124253488.495 7  96821009.29343  23644639.867                    23644648.422
 109095916.346 8  85009861.182 7  20760262.703                    20760269.727
 107423656.105 8  83706863.100 8  20442029.531                    20442036.738
 11  8 20  1 24  0.0000000  0  8G30G25G29G02G10G04G12G05
 115251636.303 7  89806528.37345  21931658.266                    21931666.465
 116510734.146 8  90787667.510 7  22171256.703                    22171266.727
 127312639.382 6  99204737.542 5  24226798.266                    24226807.078
 110273458.159 8  85927484.57046  20984324.969                    20984330.297
 114651584.180 7  89339000.10645  21817455.375                    21817462.863
 124334894.708 7  96884442.67143  23660131.477                    23660139.191
 109102747.708 8  85015184.320 8  20761562.805                    20761569.828
 107391382.871 8  83681715.154 8  20435888.125                    20435895.496
 11  8 20  1 24 30.0000000  0  8G30G25G29G02G10G04G12G05
 115207405.199 7  89772062.57945  21923241.484                    21923249.285
 116453823.114 8  90743321.270 7  22160426.703                    22160436.844
 127231191.663 6  99141271.856 6  24211299.484                    24211308.387
 110300592.372 8  85948628.11346  20989488.563                    20989493.723
 114724537.441 7  89395846.79145  21831337.930                    21831345.711
 124416264.454 6  96947847.66043  23675614.711                    23675623.793
 109110162.515 8  85020962.085 8  20762973.414                    20762980.199
 107359673.695 8  83657006.744 8  20429853.922                    20429861.285
 11  8 20  1 25  0.0000000  0  8G30G25G29G02G10G04G12G05
 115163740.231 7  89738037.93945  21914932.195                    21914939.984
 116397401.471 8  90699356.367 7  22149690.469                    22149700.676
 127149683.658 7  99077759.182 6  24195789.016                    24195797.754
 110327870.223 8  85969883.57846  20994679.008                    20994684.457
 114797939.928 7  89453043.52245  21845305.719                    21845313.555
 124497596.945 7  97011223.60043  23691091.836                    23691101.285
 109118160.380 8  85027194.187 7  20764495.430                    20764502.633
 107328529.451 8  83632738.538 8  20423927.539                    20423934.871
 11  8 20  1 25 30.0000000  0  8G30G25G29G02G10G04G12G05
 115120642.843 7  89704455.55845  21906731.156                    21906739.262
 116341471.132 8  90655774.313 7  22139046.867                    22139057.031
 127068116.202 6  99014200.174 6  24180266.836                    24180276.227
 110355290.835 7  85991250.27946  20999897.398                    20999902.430
 114871788.745 7  89510588.03945  21859358.789                    21859366.410
 124578891.652 7  97074570.13143  23706563.227                    23706570.473
 109126740.971 8  85033880.362 8  20766128.367                    20766135.590
 107297951.169 8  83608911.337 8  20418109.133                    20418116.027
 11  8 20  1 26  0.0000000  0  8G30G25G29G02G10G04G12G05
 115078114.854 7  89671316.86945  21898638.555                    21898646.559
 116286034.474 8  90612576.931 7  22128497.711                    22128508.246
 126986490.610 6  98950595.853 6  24164734.117                    24164743.434
 110382853.762 8  86012727.87746  21005142.102                    21005147.637
 114946081.647 7  89568478.60045  21873496.242                    21873504.188
 124660148.034 7  97137886.83243  23722024.938                    23722032.941
 109135904.741 8  85041020.960 7  20767872.375                    20767879.020
 107267939.744 8  83585525.839 8  20412398.070                    20412405.301
 11  8 20  1 26 30.0000000  0  8G30G25G29G02G10G04G12G05
 115036157.238 7  89638622.62245  21890653.836                    21890661.875
 116231092.911 8  90569765.347 7  22118042.789                    22118052.793
 126904807.263 6  98886946.545 6  24149190.789                    24149199.488
 110410557.611 8  86034315.28046  21010413.961                    21010419.203
 115020815.669 7  89626712.89145  21887717.836                    21887725.574
 124741365.275 7  97201172.97943  23737480.313                    23737488.832
 109145651.090 8  85048615.509 7  20769726.742                    20769733.520
 107238495.668 8  83562582.434 8  20406794.578                    20406801.891
 11  8 20  1 27  0.0000000  0  8G30G25G29G02G10G04G12G05
 114994771.462 7  89606373.98045  21882778.375                    21882786.457
 116176648.558 8  90527341.185 7  22107682.547                    22107692.563
 126823067.051 6  98823252.912 6  24133635.367                    24133644.625
 110438401.757 8  86056012.00946  21015712.953                    21015717.840
 115095988.023 7  89685288.73045  21902022.969                    21902030.680
 124822542.803 7  97264428.19843  23752927.586                    23752936.293
 109155979.340 8  85056663.487 7  20771692.344                    20771699.387
 107209619.562 8  83540081.600 8  20401299.648                    20401307.090
 11  8 20  1 27 30.0000000  0  8G30G25G29G02G10G04G12G05
 114953958.944 7  89574572.01045  21875011.836                    21875020.355
 116122703.221 8  90485305.873 7  22097417.063                    22097426.887
 126741270.881 6  98759515.689 6  24118070.719                    24118079.438
 110466385.325 8  86077817.38046  21021037.578                    21021042.867
 115171595.995 7  89744204.01845  21916410.469                    21916417.926
 124903679.887 7  97327651.87244  23768367.711                    23768376.121
 109166889.083 8  85065164.582 7  20773767.961                    20773775.211
 107181312.358 8  83518024.058 8  20395912.773                    20395920.262
 11  8 20  1 28  0.0000000  0  8G30G25G29G02G10G04G12G05
 114913720.906 7  89543217.69545  21867355.000                    21867363.289
 116069258.767 8  90443660.854 7  22087246.508                    22087256.848
 126659419.437 6  98695735.384 6  24102494.313                    24102503.574
 110494507.045 8  86099730.40046  21026389.117                    21026394.207
 115247637.102 7  89803456.80045  21930881.008                    21930888.418
 124984775.462 7  97390843.20844  23783799.727                    23783808.242
 109178380.125 8  85074118.631 8  20775954.617                    20775961.910
 107153574.800 8  83496410.402 8  20390634.570                    20390642.055
 11  8 20  1 28 30.0000000  0  8G30G25G29G02G10G04G12G05
 114874058.467 8  89512311.89845  21859807.148                    21859815.684
 116016316.786 8  90402407.379 7  22077171.938                    22077182.090
 126577513.550 7  98631912.647 6  24086908.414                    24086917.332
 110522766.135 8  86121750.45546  21031766.695                    21031771.789
 115324108.326 7  89863044.74145  21945432.891                    21945440.246
 125065829.312 7  97454002.02744  23799223.641                    23799232.578
 109190451.944 8  85083525.243 7  20778252.156                    20778259.223
 107126406.754 8  83475240.518 8  20385464.813                    20385471.891
 11  8 20  1 29  0.0000000  0  8G30G25G29G02G10G04G12G05
 114834973.243 8  89481855.88745  21852370.039                    21852378.125
 115963879.520 8  90361547.187 7  22067193.586                    22067203.465
 126495554.277 7  98568048.308 6  24071311.813                    24071320.855
 110551162.046 8  86143877.13046  21037170.289                    21037175.551
 115401007.423 7  89922966.09445  21960066.156                    21960073.902
 125146840.757 6  97517127.79443  23814639.922                    23814648.133
 109203104.466 8  85093384.346 8  20780659.883                    20780667.000
 107099809.376 8  83454515.303 8  20380403.469                    20380410.266
 11  8 20  1 29 30.0000000  0  8G30G25G29G02G10G04G12G05
 114796466.151 8  89451850.36845  21845042.484                    21845050.324
 115911948.331 8  90321081.325 7  22057311.406                    22057321.668
 126413542.339 7  98504142.947 6  24055705.430                    24055714.637
 110579693.246 8  86166109.23246  21042599.813                    21042604.883
 115478331.197 8  89983218.36345  21974779.828                    21974788.051
 125227808.951 6  97580219.87443  23830047.109                    23830056.070
 109216336.734 8  85103695.201 8  20783177.617                    20783185.230
 107073783.095 8  83434235.104 8  20375451.117                    20375458.133
 11  8 20  1 30  0.0000000  0  8G30G25G29G02G10G04G12G05
 114758538.708 8  89422296.52345  21837824.852                    21837833.188
 115860525.435 8  90281011.544 7  22047526.188                    22047536.109
 126331478.920 7  98440197.477 6  24040089.406                    24040097.930
 110608359.808 8  86188446.80546  21048054.836                    21048059.910
 115556077.339 7  90043799.75045  21989574.672                    21989582.543
 125308733.630 6  97643278.01843  23845446.969                    23845455.375
 109230148.569 8  85114457.652 7  20785806.273                    20785813.313
 107048328.802 8  83414400.615 8  20370606.555                    20370614.047
 11  8 20  1 30 30.0000000  0  8G30G25G29G02G10G04G12G05
 114721191.859 8  89393195.09045  21830718.250                    21830725.910
 115809612.321 8  90241339.004 7  22037837.891                    22037847.855
 126249364.610 7  98376212.330 6  24024464.047                    24024472.727
 110637160.004 8  86210888.51446  21053535.375                    21053540.016
 115634243.099 7  90104708.11345  22004449.211                    22004456.797
 125389613.950 6  97706301.59243  23860837.813                    23860846.848
 109244538.948 8  85125670.936 7  20788544.508                    20788551.426
 107023446.939 8  83395012.170 8  20365872.031                    20365879.453
 11  8 20  1 31  0.0000000  0  8G30G25G29G02G10G04G12G05
 114684427.096 8  89364547.23445  21823722.203                    21823730.223
 115759210.976 8  90202065.243 7  22028246.375                    22028256.566
 126167200.515 6  98312188.418 6  24008828.039                    24008837.234
 110666093.193 8  86233433.85346  21059041.031                    21059045.961
 115712825.883 7  90165941.42645  22019403.086                    22019410.500
 125470449.390 6  97769290.18444  23876220.453                    23876229.512
 109259507.813 8  85137334.980 7  20791392.922                    20791399.746
 106999137.743 8  83376069.955 8  20361246.258                    20361253.387
 11  8 20  1 31 30.0000000  0  8G30G25G29G02G10G04G12G05
 114648245.609 8  89336353.88245  21816836.727                    21816844.531
 115709323.247 8  90163191.696 7  22018752.938                    22018763.043
 126084987.760 6  98248126.570 6  23993183.703                    23993192.379
 110695159.296 8  86256082.76046  21064571.891                    21064577.160
 115791822.950 7  90227497.56945  22034435.383                    22034443.359
 125551239.605 7  97832243.56243  23891594.609                    23891603.145
 109275055.286 8  85149449.887 7  20794351.367                    20794358.570
 106975402.006 8  83357574.595 8  20356729.508                    20356736.945
 11  8 20  1 32  0.0000000  0  8G30G25G29G02G10G04G12G05
 114612648.071 8  89308615.56445  21810062.805                    21810071.180
 115659950.375 8  90124719.344 7  22009357.633                    22009367.418
 126002726.936 6  98184027.263 6  23977530.180                    23977538.578
 110724356.819 8  86278834.08546  21070128.109                    21070133.191
 115871230.827 7  90289373.82245  22049546.852                    22049554.313
 125631983.598 6  97895160.91943  23906958.977                    23906967.820
 109291179.627 8  85162014.304 7  20797420.359                    20797427.355
 106952239.875 8  83339526.204 8  20352321.828                    20352329.160
 11  8 20  1 32 30.0000000  0  8G30G25G29G02G10G04G12G05
 114577635.841 8  89281333.33245  21803400.289                    21803408.125
 115611094.302 8  90086649.700 7  22000060.672                    22000070.801
 125920419.233 6  98119891.441 6  23961867.063                    23961876.324
 110753684.968 8  86301687.18446  21075709.625                    21075714.598
 115951046.994 7  90351568.21445  22064735.539                    22064743.004
 125712680.868 6  97958041.85543  23922315.422                    23922324.297
 109307880.668 8  85175028.101 8  20800598.016                    20800605.164
 106929652.224 8  83321925.458 8  20348023.414                    20348030.609
 11  8 20  1 33  0.0000000  0  8G30G25G29G02G10G04G12G05
 114543210.059 7  89254508.06345  21796849.016                    21796857.023
 115562756.767 8  90048984.107 7  21990862.539                    21990872.418
 125838065.616 6  98055719.843 6  23946195.070                    23946204.922
 110783143.042 8  86324641.53346  21081315.055                    21081319.770
 116031269.039 7  90414078.88045  22080000.984                    22080008.863
 125793331.060 6  98020886.14743  23937662.992                    23937671.629
 109325157.782 8  85188490.779 7  20803886.047                    20803892.762
 106907639.156 8  83304772.438 8  20343834.680                    20343841.961
 11  8 20  1 33 30.0000000  0  8G30G25G29G02G10G04G12G05
 114509371.708 7  89228140.54445  21790410.203                    21790418.117
 115514939.338 8  90011723.795 7  21981762.805                    21981773.246
 125755666.620 6  97991512.878 5  23930515.695                    23930524.297
 110812730.117 8  86347696.39846  21086945.148                    21086950.027
 116111894.177 7  90476903.64745  22095343.375                    22095351.352
 125873933.558 6  98083693.25743  23953000.742                    23953008.934
 109343010.238 8  85202401.780 7  20807282.945                    20807289.742
 106886200.978 8  83288067.385 8  20339754.695                    20339762.813
 11  8 20  1 34  0.0000000  0  8G30G25G29G02G10G04G12G05
 114476121.570 7  89202231.37245  21784082.461                    21784090.586
 115467643.532 8  89974869.949 7  21972762.656                    21972772.695
 125673223.638 6  97927271.586 5  23914826.594                    23914835.387
 110842445.163 8  86370850.98446  21092599.820                    21092604.773
 116192919.439 7  90540040.20245  22110761.844                    22110769.891
 125954487.538 6  98146462.61143  23968329.305                    23968338.199
 109361437.275 8  85216760.504 8  20810789.828                    20810796.836
 106865338.176 8  83271810.688 8  20335784.922                    20335792.586
 11  8 20  1 34 30.0000000  0  8G30G25G29G02G10G04G12G05
 114443460.926 7  89176781.54046  21777867.336                    21777875.609
 115420871.130 8  89938423.951 7  21963862.266                    21963872.512
 125590737.504 6  97862996.708 6  23899130.344                    23899139.641
 110872287.838 8  86394105.01546  21098278.453                    21098283.867
 116274341.827 7  90603486.21245  22126256.141                    22126263.965
 126034992.907 6  98209194.01643  23983649.727                    23983658.535
 109380438.120 8  85231566.346 7  20814405.313                    20814412.406
 106845050.973 8  83256002.504 8  20331924.148                    20331931.430
 11  8 20  1 35  0.0000000  0  8G30G25G29G02G10G04G12G05
 114411390.536 7  89151791.66445  21771764.883                    21771772.676
 115374623.543 8  89902386.908 7  21955061.742                    21955071.586
 125508209.138 6  97798688.935 6  23883426.492                    23883435.129
 110902256.766 8  86417457.42746  21103981.766                    21103986.313
 116356158.605 7  90667239.52945  22141825.078                    22141832.785
 126115448.752 6  98271886.83443  23998959.492                    23998968.156
 109400011.879 8  85246818.616 7  20818130.219                    20818137.266
 106825339.567 8  83240642.987 8  20328173.336                    20328180.691
 11  8 20  1 35 30.0000000  0  8G30G25G29G02G10G04G12G05
 114379911.492 7  89127262.57145  21765774.438                    21765782.172
 115328902.507 8  89866760.170 7  21946360.906                    21946371.066
 125425639.474 7  97734348.949 6  23867713.547                    23867721.711
 110932351.507 8  86440907.87546  21109708.117                    21109713.023
 116438367.049 7  90731298.03945  22157469.203                    22157476.465
 126195854.781 6  98334540.88543  24014260.836                    24014269.086
 109420158.145 8  85262516.991 7  20821963.984                    20821970.848
 106806204.564 8  83225732.634 8  20324532.031                    20324538.949
 11  8 20  1 36  0.0000000  0  8G30G25G29G02G10G04G12G05
 114349024.678 7  89103194.94545  21759897.164                    21759905.293
 115283709.581 8  89831544.929 7  21937761.445                    21937771.109
 125343029.353 7  97669977.405 6  23851993.336                    23852001.590
 110962571.214 8  86464455.70846  21115458.648                    21115463.984
 116520964.349 7  90795659.55545  22173186.445                    22173194.313
 126276210.452 6  98397155.68643  24029551.781                    24029560.133
 109440875.703 8  85278660.545 8  20825906.352                    20825913.180
 106787646.026 8  83211271.460 8  20321000.594                    20321007.758
 11  8 20  1 36 30.0000000  0  8G30G25G29G02G10G04G12G05
 114318731.037 7  89079589.54045  21754132.523                    21754139.957
 115239046.307 8  89796742.403 7  21929262.156                    21929272.199
 125260380.296 7  97605575.541 6  23836266.273                    23836274.066
 110992915.094 8  86488100.28946  21121233.039                    21121238.090
 116603947.860 7  90860322.00345  22188978.211                    22188985.680
 126356515.164 6  98459730.77343  24044832.484                    24044842.234
 109462164.409 8  85295249.138 7  20829957.297                    20829964.582
 106769664.238 8  83197259.707 8  20317578.695                    20317585.637
 11  8 20  1 37  0.0000000  0  8G30G25G29G02G10G04G12G05
 114289031.192 8  89056446.82245  21748480.313                    21748488.434
 115194913.982 8  89762353.609 7  21920863.977                    21920873.859
 125177693.064 7  97541143.978 6  23820530.914                    23820539.461
 111023382.468 8  86511841.10146  21127031.172                    21127035.898
 116687314.593 7  90925283.08645  22204842.313                    22204849.945
 126436768.460 6  98522265.71243  24060105.109                    24060113.926
 109484022.407 8  85312281.330 7  20834117.008                    20834123.781
 106752259.178 8  83183697.356 8  20314266.422                    20314273.699
 11  8 20  1 37 30.0000000  0  8G30G25G29G02G10G04G12G05
 114259927.486 7  89033768.63245  21742942.008                    21742950.039
 115151315.536 8  89728380.820 7  21912567.453                    21912577.293
 125094970.070 7  97476684.497 6  23804789.758                    23804797.789
 111053973.619 8  86535678.37546  21132852.195                    21132857.082
 116771063.010 7  90990541.56145  22220779.266                    22220786.648
 126516971.207 6  98584761.31443  24075366.773                    24075376.184
 109506450.696 8  85329757.918 7  20838384.977                    20838391.902
 106735432.435 8  83170585.638 8  20311064.539                    20311071.477
 11  8 20  1 38  0.0000000  0  8G30G25G29G02G10G04G12G05
 114231419.265 7  89011554.44945  21737517.609                    21737524.879
 115108251.070 8  89694824.119 7  21904372.648                    21904382.449
 125012210.937 7  97412196.893 6  23789040.703                    23789049.730
 111084686.533 8  86559610.51746  21138696.750                    21138702.094
 116855188.783 7  91056094.08745  22236787.492                    22236795.438
 126597121.586 6  98647216.13143  24090619.016                    24090628.016
 109529446.814 8  85347676.959 7  20842760.891                    20842768.273
 106719182.885 8  83157923.684 8  20307972.320                    20307979.297
 11  8 20  1 38 30.0000000  0  8G30G25G29G02G10G04G12G05
 114203507.350 7  88989804.92345  21732205.891                    21732213.398
 115065721.981 8  89661684.588 7  21896279.586                    21896289.285
 124929416.633 7  97347681.886 6  23773285.547                    23773293.918
 111115520.546 8  86583637.01946  21144564.672                    21144569.098
 116939689.258 7  91121938.59145  22252867.695                    22252875.160
 126677218.860 6  98709629.54643  24105860.742                    24105870.344
 109553009.755 8  85366037.685 7  20847244.664                    20847251.836
 106703510.524 8  83145711.475 8  20304989.672                    20304997.129
 11  8 20  1 39  0.0000000  0  8G30G25G29G02G10G04G12G05
 114176192.678 7  88968520.77045  21727007.938                    21727016.039
 115023729.888 8  89628963.491 7  21888288.922                    21888298.641
 124846588.570 7  97283140.593 6  23757523.789                    23757532.504
 111146475.136 8  86607757.48446  21150454.664                    21150459.848
 117024561.724 7  91188072.96645  22269018.195                    22269026.492
 126757262.859 6  98772001.43043  24121092.586                    24121102.461
 109577139.033 8  85384839.712 7  20851836.539                    20851843.691
 106688415.623 8  83133949.247 8  20302117.172                    20302124.691
 11  8 20  1 39 30.0000000  0  8G30G25G29G02G10G04G12G05
 114149475.618 8  88947702.29145  21721923.844                    21721931.441
 114982275.916 8  89596661.714 7  21880400.281                    21880410.422
 124763727.431 6  97218573.519 6  23741755.398                    23741764.496
 111177548.929 8  86631970.82946  21156367.570                    21156372.480
 117109802.969 7  91254494.69245  22285238.977                    22285247.059
 126837252.982 7  98834331.36243  24136314.641                    24136323.738
 109601833.162 8  85404081.884 7  20856535.164                    20856542.363
 106673898.025 8  83122636.851 8  20299354.664                    20299361.824
 11  8 20  1 40  0.0000000  0  8G30G25G29G02G10G04G12G05
 114123356.930 8  88927350.08645  21716953.883                    21716961.262
 114941361.462 8  89564780.327 7  21872614.438                    21872624.719
 124680834.361 6  97153981.583 6  23725981.156                    23725991.109
 111208741.432 8  86656276.67946  21162303.516                    21162308.637
 117195410.152 7  91321201.58044  22301529.750                    22301537.652
 126917188.727 7  98896618.94243  24151526.492                    24151534.668
 109627091.344 8  85423763.577 7  20861342.297                    20861349.125
 106659957.614 8  83111774.221 8  20296702.086                    20296709.453
 11  8 20  1 40 30.0000000  0  8G30G25G29G02G10G04G12G05
 114097837.537 7  88907464.84945  21712097.359                    21712105.094
 114900988.181 8  89533320.636 7  21864931.680                    21864941.879
 124597910.693 6  97089365.810 6  23710201.156                    23710210.672
 111240052.370 8  86680674.82046  21168261.750                    21168266.949
 117281380.774 7  91388191.65644  22317889.055                    22317897.215
 126997070.049 6  98958864.12743  24166726.641                    24166735.809
 109652912.666 8  85443884.089 8  20866255.641                    20866263.035
 106646595.021 8  83101361.832 8  20294158.953                    20294166.219
 11  8 20  1 41  0.0000000  0  8G30G25G29G02G10G04G12G05
 114072918.080 8  88888047.09145  21707355.375                    21707363.082
 114861157.347 8  89502283.625 7  21857352.445                    21857362.453
 124514957.448 6  97024726.991 6  23694416.031                    23694424.930
 111271480.510 8  86705164.28246  21174242.352                    21174247.844
 117367711.804 7  91455462.57645  22334317.938                    22334325.473
 127076896.247 6  99021066.33543  24181917.484                    24181926.191
 109679295.937 8  85464442.477 7  20871276.359                    20871282.980
 106633810.003 8  83091399.493 8  20291726.383                    20291733.137
 11  8 20  1 41 30.0000000  0  8G30G25G29G02G10G04G12G05
 114048599.120 8  88869097.26845  21702728.070                    21702735.008
 114821870.248 8  89471670.309 7  21849876.031                    21849885.980
 124431976.046 7  96960066.210 6  23678625.273                    23678633.672
 111303025.415 8  86729744.73346  21180245.078                    21180250.453
 117454400.179 7  91523011.96745  22350813.711                    22350821.523
 127156666.941 6  99083225.28443  24197097.758                    24197106.477
 109706240.324 8  85485438.099 7  20876403.500                    20876410.969
 106621602.507 8  83081887.174 8  20289403.219                    20289410.754
 11  8 20  1 42  0.0000000  0  8G30G25G29G02G10G04G12G05
 114024881.275 8  88850615.83245  21698214.438                    21698222.051
 114783128.164 8  89441481.671 7  21842503.789                    21842513.602
 124348967.331 7  96895384.145 6  23662829.719                    23662837.719
 111334686.495 8  86754415.70646  21186270.203                    21186275.387
 117541443.361 7  91590837.81345  22367377.461                    22367385.598
 127236381.815 6  99145340.74343  24212266.992                    24212275.027
 109733744.294 8  85506869.769 8  20881637.195                    20881644.352
 106609972.117 8  83072824.553 8  20287189.805                    20287197.344
 11  8 20  1 42 30.0000000  0  8G30G25G29G02G10G04G12G05
 114001764.932 8  88832603.09245  21693815.141                    21693823.121
 114744932.240 8  89411718.607 7  21835235.430                    21835245.438
 124265932.306 7  96830681.572 6  23647028.531                    23647035.953
 111366462.710 8  86779176.39946  21192316.828                    21192322.215
 117628838.194 7  91658937.69744  22384008.844                    22384016.129
 127316040.285 6  99207412.30942  24227425.094                    24227434.406
 109761806.587 8  85528736.487 7  20886977.094                    20886984.602
 106598919.088 8  83064211.822 8  20285086.766                    20285094.031
 11  8 20  1 43  0.0000000  0  8G30G25G29G02G10G04G12G05
 113979250.698 8  88815059.54045  21689531.047                    21689538.617
 114707283.770 8  89382382.138 7  21828071.516                    21828081.285
 124182871.975 7  96765959.261 6  23631222.477                    23631230.105
 111398353.046 7  86804026.00646  21198385.242                    21198390.480
 117716581.843 7  91727309.35545  22400705.328                    22400712.973
 127395641.992 6  99269439.61143  24242572.273                    24242582.180
 109790426.379 7  85551037.618 7  20892423.711                    20892430.906
 106588443.012 8  83056048.666 8  20283093.148                    20283100.676
 11  8 20  1 43 30.0000000  0  9G30G25G29G26G02G10G04G12G05
 113957339.435 8  88797985.82745  21685361.461                    21685369.156
 114670184.438 8  89353473.574 7  21821011.273                    21821021.582
 124099788.163 7  96701218.660 6  23615412.039                    23615419.973
 130532598.63816 101713805.78252  24839537.070                    24839549.984
 111430357.904 7  86828964.86546  21204475.734                    21204480.875
 117804671.800 7  91795950.87845  22417468.547                    22417476.305
 127475186.772 6  99331422.55343  24257709.438                    24257718.379
 109819602.953 8  85573772.604 7  20897975.734                    20897982.789
 106578544.519 8  83048335.571 8  20281209.828                    20281216.570
 11  8 20  1 44  0.0000000  0  9G30G25G29G26G02G10G04G12G05
 113936030.682 8  88781381.61045  21681306.703                    21681314.359
 114633634.404 8  89324993.028 7  21814056.320                    21814066.293
 124016681.091 7  96636459.939 6  23599597.836                    23599605.738
 130440710.256 6 101642204.65343  24822052.602                    24822063.484
 111462475.367 8  86853991.46246  21210586.945                    21210592.504
 117893104.295 7  91864859.31945  22434296.539                    22434304.379
 127554673.533 5  99393360.27842  24272835.078                    24272844.031
 109849334.009 8  85596939.663 7  20903633.234                    20903640.168
 106569222.391 8  83041071.595 8  20279435.133                    20279442.566
 11  8 20  1 44 30.0000000  0  9G30G25G29G26G02G10G04G12G05
 113915325.395 8  88765247.61745  21677366.422                    21677373.949
 114597635.379 8  89296941.841 7  21807205.859                    21807215.793
 123933552.431 7  96571684.417 6  23583778.344                    23583786.746
 130348684.942 6 101570496.83243  24804540.805                    24804551.391
 111494705.192 7  86879105.61846  21216720.656                    21216725.859
 117981876.950 7  91934032.80644  22451189.625                    22451197.184
 127634102.451 6  99455252.85443  24287950.063                    24287959.055
 109879618.576 7  85620538.022 7  20909396.445                    20909403.352
 106560476.783 8  83034256.860 8  20277771.375                    20277778.578
 11  8 20  1 45  0.0000000  0  9G30G25G29G26G02G10G04G12G05
 113895224.299 8  88749584.42245  21673541.594                    21673549.078
 114562188.835 8  89269321.165 7  21800460.141                    21800470.727
 123850403.624 7  96506893.187 6  23567955.922                    23567964.324
 130256525.700 6 101498684.62643  24787002.836                    24787013.645
 111527046.985 7  86904307.01846  21222874.711                    21222880.453
 118070987.051 7  92003469.24145  22468146.563                    22468154.383
 127713473.352 6  99517100.32843  24303054.813                    24303063.180
 109910455.916 7  85644567.112 7  20915264.773                    20915271.668
 106552307.687 8  83027891.350 8  20276216.680                    20276223.727
 11  8 20  1 45 30.0000000  0  9G30G25G29G26G02G10G04G12G05
 113875728.082 8  88734392.56645  21669831.234                    21669838.781
 114527296.168 8  89242132.083 7  21793820.680                    21793830.543
 123767236.080 7  96442087.378 6  23552129.133                    23552138.285
 130164235.485 6 101426770.32243  24769440.961                    24769451.402
 111559500.473 8  86929595.45146  21229050.555                    21229055.730
 118160431.824 7  92073166.45644  22485167.438                    22485175.098
 127792786.027 7  99578902.52443  24318146.266                    24318155.512
 109941844.955 8  85669026.101 7  20921237.859                    20921244.773
 106544715.321 8  83021975.253 8  20274772.070                    20274779.352
 11  8 20  1 46  0.0000000  0  9G30G25G29G26G02G10G04G12G05
 113856836.842 8  88719672.13045  21666236.641                    21666244.215
 114492958.213 8  89215375.236 7  21787286.391                    21787296.074
 123684050.738 7  96377267.665 6  23536299.500                    23536308.055
 130071816.831 6 101354755.94143  24751853.836                    24751864.715
 111592064.493 8  86954970.02146  21235247.359                    21235252.461
 118250208.164 7  92143122.03644  22502251.430                    22502258.789
 127872040.064 7  99640658.88644  24333228.000                    24333237.602
 109973783.900 8  85693913.585 7  20927315.156                    20927322.645
 106537699.098 8  83016508.101 8  20273436.766                    20273444.324
 11  8 20  1 46 30.0000000  0  9G30G25G29G26G02G10G04G12G05
 113838551.061 8  88705423.46045  21662756.875                    21662764.570
 114459176.275 7  89189051.664 7  21780857.742                    21780867.684
 123600848.913 7  96312435.145 6  23520466.758                    23520475.211
 129979272.842 6 101282643.90543  24734243.477                    24734253.500
 111624738.755 8  86980430.48746  21241464.859                    21241469.621
 118340313.276 7  92213333.80444  22519397.500                    22519405.270
 127951234.997 7  99702369.19544  24348298.516                    24348307.922
 110006271.815 8  85719228.846 7  20933497.445                    20933505.012
 106531258.860 8  83011489.761 8  20272211.453                    20272218.320
 11  8 20  1 47  0.0000000  0  9G30G25G29G26G02G10G04G12G05
 113820871.099 8  88691646.87145  21659392.711                    21659400.211
 114425951.369 8  89163162.132 7  21774535.211                    21774545.340
 123517631.964 6  96247590.818 6  23504631.359                    23504640.137
 129886606.377 6 101210436.45643  24716608.781                    24716619.516
 111657522.595 8  87005976.33946  21247703.891                    21247708.809
 118430744.374 7  92283799.58144  22536605.930                    22536613.691
 128030370.817 7  99764033.46444  24363357.984                    24363366.547
 110039307.386 8  85744970.851 7  20939783.914                    20939791.313
 106525394.292 8  83006920.010 8  20271095.211                    20271102.531
 11  8 20  1 47 30.0000000  0  9G30G25G29G26G02G10G04G12G05
 113803797.212 8  88678342.54845  21656143.305                    21656150.719
 114393284.618 8  89137707.532 7  21768318.773                    21768328.465
 123434401.190 6  96182735.755 6  23488792.305                    23488801.758
 129793820.025 6 101138135.58843  24698952.031                    24698963.043
 111690415.426 7  87031607.12646  21253962.805                    21253968.219
 118521498.717 7  92354517.24344  22553876.305                    22553883.934
 128109447.111 7  99825651.39644  24378405.492                    24378414.754
 110072889.320 8  85771138.587 7  20946174.594                    20946181.652
 106520105.019 8  83002798.528 8  20270088.602                    20270095.570
 11  8 20  1 48  0.0000000  0  9G30G25G29G26G02G10G04G12G05
 113787329.515 8  88665510.57845  21653009.656                    21653017.531
 114361176.804 8  89112688.464 7  21762209.094                    21762219.328
 123351157.605 6  96117870.676 6  23472951.953                    23472960.535
 129700916.997 6 101065743.80443  24681273.250                    24681283.809
 111723416.483 7  87057322.23846  21260242.836                    21260248.387
 118612573.121 7  92425484.30344  22571207.047                    22571215.125
 128188463.507 7  99887222.65343  24393441.367                    24393450.586
 110107015.719 7  85797730.588 7  20952668.492                    20952676.008
 106515390.714 8  82999125.080 8  20269191.172                    20269199.113
 11  8 20  1 48 30.0000000  0  9G30G25G29G26G02G10G04G12G05
 113771468.405 8  88653151.27345  21649991.609                    21649998.895
 114329629.122 8  89088105.857 7  21756205.563                    21756215.535
 123267902.662 7  96052996.748 6  23457109.039                    23457117.328
 129607900.039 6 100993263.20843  24663572.297                    24663583.043
 111756525.199 7  87083121.24946  21266542.961                    21266548.133
 118703964.783 7  92496698.57244  22588598.492                    22588605.676
 128267419.606 7  99948746.97443  24408466.352                    24408475.520
 110141685.791 8  85824746.228 7  20959265.813                    20959273.328
 106511251.226 8  82995899.550 8  20268403.875                    20268411.117
 11  8 20  1 49  0.0000000  0  9G30G25G29G26G02G10G04G12G05
 113756213.839 8  88641264.60045  21647088.773                    21647096.297
 114298642.329 8  89063960.306 7  21750309.016                    21750318.813
 123184637.442 7  95988114.810 6  23441264.188                    23441272.465
 129514771.881 6 100920695.99243  24645851.391                    24645861.527
 111789740.763 8  87109003.50546  21272864.227                    21272869.438
 118795670.829 7  92568157.82444  22606049.875                    22606057.078
 128346315.236 6 100010224.11543  24423479.422                    24423488.969
 110176897.402 8  85852183.852 7  20965966.680                    20965973.598
 106507685.559 8  82993121.145 8  20267725.281                    20267732.379
 11  8 20  1 49 30.0000000  0  9G30G25G29G26G02G10G04G12G05
 113741566.355 8  88629850.97245  21644301.148                    21644308.676
 114268217.705 8  89040252.811 7  21744519.516                    21744529.344
 123101363.414 7  95923226.002 6  23425417.055                    23425426.434
 129421535.691 6 100848044.61843  24628108.625                    24628118.492
 111823062.992 7  87134968.86946  21279204.711                    21279209.879
 118887688.410 7  92639859.84344  22623559.539                    22623566.930
 128425149.993 6 100071653.81443  24438481.320                    24438490.605
 110212649.488 8  85880042.618 7  20972769.820                    20972777.289
 106504693.799 8  82990789.944 8  20267155.672                    20267163.168
 11  8 20  1 50  0.0000000  0  9G30G25G29G26G02G10G04G12G05
 113727525.817 8  88618910.29445  21641629.305                    21641637.133
 114238355.853 8  89016983.845 7  21738837.047                    21738847.125
 123018081.733 7  95858331.209 6  23409569.313                    23409577.668
 129328194.097 6 100775311.04643  24610345.727                    24610356.648
 111856490.922 7  87161016.60346  21285566.305                    21285571.195
 118980014.282 7  92711802.10544  22641128.953                    22641136.059
 128503923.754 6 100133035.95543  24453471.945                    24453480.379
 110248940.426 7  85908321.278 7  20979676.039                    20979683.023
 106502275.174 8  82988905.333 8  20266695.531                    20266702.531
 11  8 20  1 50 30.0000000  0  9G30G25G29G26G02G10G04G12G05
 113714092.479 8  88608442.76045  21639072.727                    21639080.867
 114209057.979 8  88994154.343 7  21733261.711                    21733271.176
 122934793.817 7  95793431.570 6  23393720.148                    23393728.719
 129234750.363 6 100702497.92343  24592563.867                    24592574.559
 111890024.097 7  87187146.35546  21291947.305                    21291952.477
 119072646.266 7  92783982.88944  22658755.805                    22658763.234
 128582636.012 6 100194370.19942  24468450.000                    24468458.801
 110285768.946 8  85937018.821 7  20986684.383                    20986690.961
 106500429.348 8  82987467.067 8  20266344.352                    20266351.484
 11  8 20  1 51  0.0000000  0  9G30G25G29G26G02G10G04G12G05
 113701266.364 8  88598448.38845  21636632.438                    21636640.477
 114180324.695 8  88971764.774 7  21727794.047                    21727803.730
 122851500.666 7  95728527.841 6  23377870.820                    23377878.711
 129141207.319 6 100629607.38842  24574762.617                    24574773.434
 111923661.902 8  87213357.63746  21298348.570                    21298353.480
 119165580.829 7  92856399.45644  22676440.492                    22676448.191
 128661286.655 5 100255656.43442  24483416.281                    24483425.652
 110323132.805 8  85966133.511 7  20993794.320                    20993801.371
 106499155.705 8  82986474.656 8  20266101.867                    20266109.270
 11  8 20  1 51 30.0000000  0  9G30G25G29G26G02G10G04G12G05
 113689047.764 8  88588927.41045  21634307.344                    21634315.371
 114152157.177 8  88949816.070 7  21722434.148                    21722443.898
 122768204.328 7  95663621.619 6  23362019.484                    23362027.551
 129047568.096 6 100556641.91442  24556943.789                    24556954.719
 111957404.151 8  87239650.30246  21304769.156                    21304774.438
 119258815.452 7  92929049.81844  22694183.141                    22694190.520
 128739875.64015                  24498371.148
 110361031.231 8  85995664.755 7  21001006.211                    21001013.164
 106498454.062 8  82985927.955 8  20265968.477                    20265975.543
 11  8 20  1 52  0.0000000  0  9G30G25G29G26G02G10G04G12G05
 113677436.448 8  88579879.62945  21632097.406                    21632105.367
 114124555.955 8  88928308.624 7  21717181.344                    21717191.113
 122684905.599 7  95598713.565 6  23346168.453                    23346176.613
 128953835.250 6 100483603.46642  24539107.023                    24539117.441
 111991249.733 8  87266023.49346  21311209.805                    21311215.035
 119352346.898 7  93001931.46344  22711981.063                    22711988.988
 128818402.199 6 100377957.08352  24513314.602                    24513323.629
 110399462.300 8  86025611.044 7  21008319.289                    21008326.258
 106498323.379 8  82985826.159 8  20265943.406                    20265950.637
 11  8 20  1 52 30.0000000  0  9G30G25G29G26G02G10G04G12G05
 113666432.465 8  88571305.09445  21630003.727                    21630011.332
 114097521.952 8  88907243.179 7  21712037.117                    21712046.648
 122601605.862 6  95533804.701 6  23330316.688                    23330325.043
 128860011.915 6 100410494.53342  24521253.086                    24521263.258
 112025198.325 8  87292476.94146  21317670.023                    21317675.117
 119446172.275 7  93075042.14544  22729835.570                    22729843.559
 128896866.681 6 100439098.30643  24528246.305                    24528254.648
 110438424.385 8  86055971.106 7  21015733.383                    21015740.555
 106498763.275 8  82986168.967 8  20266027.117                    20266034.773
 11  8 20  1 53  0.0000000  0  9G30G25G29G26G02G10G04G12G05
 113656035.930 8  88563203.90345  21628025.102                    21628032.816
 114071055.998 8  88886620.360 7  21707000.773                    21707010.430
 122518306.624 6  95468896.253 6  23314465.914                    23314473.461
 128766101.221 6 100337317.48243  24503382.750                    24503393.004
 112059249.476 8  87319010.31446  21324149.500                    21324154.859
 119540288.867 7  93148379.76345  22747745.555                    22747753.727
 128975268.322 6 100500190.50842  24543164.969                    24543174.617
 110477916.126 8  86086743.890 7  21023248.648                    21023255.828
 106499773.002 8  82986955.805 8  20266219.398                    20266226.379
 11  8 20  1 53 30.0000000  0  9G30G25G29G26G02G10G04G12G05
 113646246.632 8  88555575.87545  21626162.477                    21626170.234
 114045158.777 8  88866440.720 7  21702072.500                    21702082.633
 122435009.154 6  95403989.174 6  23298614.570                    23298622.895
 128672106.180 6 100264074.72343  24485495.281                    24485505.625
 112093402.483 8  87345623.04846  21330648.844                    21330653.930
 119634693.533 7  93221941.84244  22765710.406                    22765718.590
 129053607.161 6 100561233.81942  24558072.742                    24558081.066
 110517935.918 8  86117928.134 7  21030864.094                    21030871.137
 106501352.145 8  82988186.335 8  20266519.898                    20266527.133
 11  8 20  1 54  0.0000000  0  9G30G25G29G26G02G10G04G12G05
 113637064.565 8  88548421.00745  21624415.117                    21624423.289
 114019831.057 8  88846704.847 7  21697252.844                    21697262.805
 122351714.846 6  95339084.581 6  23282763.625                    23282771.730
 128578029.662 6 100190768.46343  24467593.117                    24467603.531
 112127656.886 7  87372314.80646  21337167.047                    21337172.012
 119729383.462 7  93295726.16644  22783728.945                    22783736.844
 129131883.201 6 100622228.13442  24572968.500                    24572976.855
 110558481.780 8  86149522.312 7  21038579.789                    21038586.625
 106503499.908 8  82989859.944 8  20266928.500                    20266935.109
 11  8 20  1 54 30.0000000  0  9G30G25G29G26G02G10G04G12G05
 113628489.694 8  88541739.29045  21622783.250                    21622791.344
 113995073.630 8  88827413.376 7  21692541.758                    21692551.859
 122268425.201 6  95274183.614 6  23266914.031                    23266923.102
 128483874.721 6 100117401.09943  24449675.813                    24449686.676
 112162012.270 7  87399085.25946  21343704.352                    21343710.016
 119824355.709 6  93369730.51244  22801801.227                    22801809.656
 129210095.964 6 100683173.13043  24587852.172                    24587860.602
 110599552.063 8  86181525.128 7  21046395.234                    21046402.152
 106506215.708 8  82991976.176 8  20267445.539                    20267452.504
 11  8 20  1 55  0.0000000  0  9G30G25G29G26G02G10G04G12G05
 113620521.939 8  88535530.64745  21621267.070                    21621275.258
 113970887.177 8  88808566.810 7  21687939.273                    21687949.148
 122185141.554 6  95209287.323 6  23251065.930                    23251075.059
 128389644.617 6 100043975.17843  24431744.898                    24431754.883
 112196467.983 7  87425933.88346  21350261.602                    21350266.555
 119919607.578 6  93443952.72844  22819927.648                    22819934.840
 129288245.332 7 100744068.76143  24602722.828                    24602731.906
 110641144.743 8  86213934.999 7  21054309.969                    21054317.172
 106509498.983 8  82994534.592 8  20268070.047                    20268076.965
 11  8 20  1 55 30.0000000  0  9G30G25G29G26G02G10G04G12G05
 113613161.024 8  88529794.86845  21619866.352                    21619874.328
 113947272.279 8  88790165.604 7  21683445.664                    21683455.703
 122101865.000 6  95144396.562 7  23235218.914                    23235227.121
 128295342.326 6  99970492.99143  24413799.391                    24413810.070
 112231023.442 7  87452860.23046  21356837.258                    21356842.285
 120015135.959 6  93518390.40444  22838105.555                    22838113.199
 129366331.125 7 100804914.81343  24617582.352                    24617591.441
 110683258.392 8  86246750.818 7  21062324.266                    21062331.203
 106513348.714 8  82997534.408 8  20268802.836                    20268809.523
 11  8 20  1 56  0.0000000  0  9G30G25G29G26G02G10G04G12G05
 113606406.796 8  88524531.83245  21618581.117                    21618588.805
 113924229.587 8  88772210.275 7  21679060.359                    21679070.465
 122018597.313 7  95079512.688 7  23219373.664                    23219382.254
 128200970.569 6  99896956.66243  24395841.391                    24395851.348
 112265678.410 7  87479864.11746  21363431.734                    21363436.586
 120110937.953 7  93593041.31144  22856336.414                    22856343.754
 129444353.194 7 100865711.13943  24632429.703                    24632438.535
 110725891.526 8  86279971.437 7  21070436.383                    21070443.707
 106517764.285 8  83000975.128 8  20269642.922                    20269649.820
 11  8 20  1 56 30.0000000  0  9G30G25G29G26G02G10G04G12G05
 113600259.153 8  88519741.46245  21617411.047                    21617419.066
 113901759.831 8  88754701.396 7  21674784.945                    21674794.492
 121935339.872 7  95014636.788 7  23203530.977                    23203538.887
 128106532.874 6  99823368.99943  24377870.203                    24377880.277
 112300432.234 8  87506945.03746  21370045.328                    21370050.430
 120207011.044 7  93667903.47644  22874618.648                    22874626.219
 129522311.347 6 100926457.70843  24647264.352                    24647273.449
 110769042.241 8  86313595.366 7  21078647.914                    21078654.934
 106522744.914 8  83004856.159 8  20270590.828                    20270597.938
 11  8 20  1 57  0.0000000  0  9G30G25G29G26G02G10G04G12G05
 113594717.459 8  88515423.27345  21616357.133                    21616364.875
 113879863.228 8  88737639.127 7  21670618.078                    21670627.781
 121852093.941 7  94949769.857 6  23187689.328                    23187697.809
 128012031.866 6  99749731.96043  24359886.914                    24359897.141
 112335284.028 7  87534102.29046  21376677.258                    21376682.344
 120303351.621 7  93742974.04444  22892951.867                    22892959.125
 129600205.090 6 100987154.04343  24662087.570                    24662096.461
 110812708.050 8  86347620.665 7  21086957.555                    21086964.680
 106528289.544 8  83009176.661 8  20271646.117                    20271652.703
 11  8 20  1 57 30.0000000  0  9G30G25G29G26G02G10G04G12G05
 113589782.090 8  88511577.53945  21615417.523                    21615425.391
 113858540.911 8  88721024.365 7  21666560.305                    21666570.449
 121768861.573 7  94884913.484 6  23171850.664                    23171858.844
 127917471.253 6  99676048.50743  24341893.211                    24341902.609
 112370233.993 8  87561336.04246  21383327.984                    21383333.219
 120399957.692 7  93818251.46944  22911335.078                    22911342.957
 129678034.830 6 101047800.55243  24676898.109                    24676906.680
 110856888.097 8  86382046.663 7  21095364.633                    21095372.137
 106534397.906 8  83013936.436 8  20272808.336                    20272815.152
 11  8 20  1 58  0.0000000  0  8G30G25G29G26G02G10G12G05
 113585452.775 8  88508204.04845  21614594.008                    21614601.477
 113837793.523 8  88704857.592 7  21662612.055                    21662622.012
 121685644.238 7  94820068.825 6  23156014.727                    23156023.113
 127822854.123 6  99602320.99343  24323887.773                    24323898.293
 112405281.975 7  87588646.18846  21389997.203                    21390002.266
 120496826.294 7  93893733.47644  22929768.461                    22929776.352
 110901580.879 8  86416872.207 7  21103869.539                    21103876.527
 106541069.331 8  83019134.961 8  20274077.609                    20274084.508
 11  8 20  1 58 30.0000000  0  8G30G25G29G26G02G10G12G05
 113581728.950 8  88505302.39145  21613885.219                    21613892.891
 113817621.352 8  88689139.041 7  21658773.523                    21658783.469
 121602443.040 7  94755236.727 6  23140181.898                    23140189.836
 127728183.298 6  99528551.67443  24305871.539                    24305882.453
 112440427.121 8  87616032.03746  21396685.266                    21396690.379
 120593954.270 7  93969417.56244  22948251.188                    22948259.598
 110946783.820 8  86452095.267 7  21112471.305                    21112478.344
 106548302.958 8  83024771.570 8  20275454.250                    20275461.125
 11  8 20  1 59  0.0000000  0  8G30G25G29G26G02G10G12G05
 113578609.993 8  88502872.04246  21613291.719                    21613299.492
 113798024.573 8  88673868.855 7  21655044.406                    21655054.141
 121519259.149 7  94690418.127 6  23124352.703                    23124361.328
 127633461.694 6  99454742.80643  24287846.352                    24287857.203
 112475668.701 8  87643493.02146  21403391.641                    21403396.539
 120691338.496 6  94045301.31644  22966782.703                    22966791.457
 110992494.806 8  86487714.216 7  21121169.727                    21121177.000
 106556097.032 8  83030844.884 8  20276937.469                    20276944.512
 11  8 20  1 59 30.0000000  0  8G30G25G29G26G02G10G12G05
 113576095.561 8  88500912.76146  21612813.430                    21612820.676
 113779003.650 8  88659047.386 7  21651424.750                    21651435.023
 121436094.173 7  94625614.262 6  23108527.492                    23108535.520
 127538692.891 6  99380897.09343  24269813.438                    24269823.219
 112511006.109 8  87671028.67446  21410115.930                    21410121.043
 120788976.024 6  94121382.49544  22985362.375                    22985370.891
 111038712.217 8  86523727.777 7  21129964.500                    21129971.457
 106564450.926 8  83037354.435 8  20278527.023                    20278534.195
 11  8 20  2  0  0.0000000  0  8G30G25G29G26G02G10G12G05
 113574185.454 8  88499424.38745  21612449.742                    21612457.715
 113760559.277 8  88644675.167 7  21647915.047                    21647924.699
 121352949.912 6  94560826.548 6  23092704.531                    23092712.871
 127443879.615 6  99307016.77943  24251770.492                    24251781.156
 112546439.153 8  87698638.83346  21416858.609                    21416863.816
 120886864.299 6  94197659.02944  23003990.266                    23003998.293
 111085433.966 8  86560134.327 7  21138855.414                    21138862.883
 106573363.966 8  83044299.676 8  20280223.133                    20280230.133
 11  8 20  2  0 30.0000000  0  8G30G25G29G26G02G10G12G05
 113572879.108 8  88498406.47246  21612200.750                    21612209.156
 113742691.718 8  88630752.419 7  21644514.484                    21644524.793
 121269827.875 6  94496056.173 6  23076887.109                    23076895.516
 127349025.040 6  99233104.25443  24233719.984                    24233730.645
 112581967.412 8  87726323.19146  21423619.328                    21423624.559
 120985000.341 7  94274128.65444  23022665.016                    23022672.559
 111132658.136 8  86596932.380 7  21147842.023                    21147848.652
 106582835.040 8  83051679.752 8  20282025.453                    20282032.176
 11  8 20  2  1  0.0000000  0  8G30G25G29G26G02G10G12G05
 113572176.248 8  88497858.80545  21612067.078                    21612075.250
 113725401.610 8  88617279.628 7  21641224.797                    21641234.547
 121186729.485 7  94431304.228 6  23061074.164                    23061081.758
 127254132.699 6  99159162.33343  24215662.648                    24215672.266
 112617590.668 8  87754081.58346  21430398.219                    21430403.164
 121083381.486 6  94350789.25744  23041386.406                    23041394.414
 111180383.044 8  86634120.625 7  21156923.656                    21156930.738
 106592863.482 8  83059494.149 8  20283933.602                    20283940.691
 11  8 20  2  1 30.0000000  0  8G30G25G29G26G02G10G12G05
 113572076.071 8  88497780.76545  21612048.328                    21612056.172
 113708688.960 8  88604256.820 7  21638044.859                    21638054.660
 121103656.387 7  94366571.994 6  23045265.922                    23045274.469
 127159205.526 6  99085193.21543  24197598.734                    24197608.375
 112653308.211 8  87781913.43146  21437195.266                    21437200.238
 121182004.342 7  94427638.21744  23060153.820                    23060160.855
 111228606.514 8  86671697.360 7  21166100.242                    21166107.383
 106603447.864 8  83067741.748 8  20285947.469                    20285954.668
 11  8 20  2  2  0.0000000  0  8G30G25G29G26G02G10G12G05
 113572578.195 8  88498172.05045  21612143.547                    21612151.500
 113692554.245 8  88591684.332 7  21634974.141                    21634983.801
 121020609.772 7  94301860.430 6  23029462.391                    23029470.762
 127064246.754 6  99011199.49143  24179528.281                    24179537.875
 112689119.839 8  87809818.61546  21444009.922                    21444015.086
 121280866.609 6  94504673.73244  23078966.961                    23078974.730
 111277326.610 8  86709661.062 7  21175371.461                    21175378.648
 106614587.262 8  83076421.823 8  20288067.398                    20288074.664
 11  8 20  2  2 30.0000000  0  8G30G25G29G26G02G10G12G05
 113573681.960 8  88499032.15145  21612353.750                    21612361.957
 113676997.657 8  88579562.341 7  21632013.938                    21632023.410
 120937591.534 7  94237170.962 6  23013664.820                    23013672.945
 126969259.369 7  98937183.47943  24161453.125                    24161463.141
 112725024.864 8  87837796.54846  21450842.445                    21450847.551
 121379965.108 6  94581893.28844  23097824.250                    23097832.895
 111326541.126 8  86748010.042 7  21184736.688                    21184743.570
 106626280.664 8  83085533.599 8  20290292.734                    20290299.563
 11  8 20  2  3  0.0000000  0  8G30G25G29G26G02G10G12G05
 113575386.959 8  88500360.72945  21612678.188                    21612685.988
 113662019.603 8  88567891.144 7  21629163.648                    21629173.395
 120854603.040 7  94172504.709 6  22997872.000                    22997880.535
 126874246.910 7  98863147.92843  24143372.523                    24143381.984
 112761022.962 8  87865847.01946  21457692.750                    21457697.645
 121479296.745 6  94659294.50144  23116727.039                    23116735.066
 111376248.159 8  86786742.801 7  21194195.422                    21194202.461
 106638527.161 8  83095076.355 8  20292622.938                    20292629.984
 11  8 20  2  3 30.0000000  0  8G30G25G29G26G02G10G12G05
 113577692.482 7  88502157.25946  21613116.703                    21613124.594
 113647620.339 8  88556670.961 7  21626423.477                    21626433.113
 120771646.031 7  94107862.989 7  22982086.188                    22982094.355
 126779212.370 7  98789095.12843  24125288.125                    24125297.465
 112797114.093 8  87893969.98846  21464560.609                    21464565.465
 121578859.119 6  94736875.51444  23135672.250                    23135681.340
 111426445.637 8  86825857.718 7  21203747.789                    21203754.590
 106651325.604 8  83105049.206 8  20295058.617                    20295065.285
 11  8 20  2  4  0.0000000  0  8G30G25G29G26G02G10G12G05
 113580598.002 8  88504421.31545  21613669.586                    21613677.832
 113633800.062 8  88545901.924 7  21623793.078                    21623803.145
 120688722.095 7  94043247.031 7  22966306.383                    22966314.582
 126684158.942 6  98715027.66443  24107199.570                    24107209.141
 112833297.554 8  87922164.90946  21471446.008                    21471451.098
 121678649.353 6  94814634.07344  23154662.063                    23154670.656
 111477131.347 8  86865353.080 7  21213392.906                    21213400.176
 106664674.847 8  83115451.243 8  20297598.664                    20297605.852
 11  8 20  2  4 30.0000000  0  8G30G25G29G26G02G10G12G05
 113584102.599 8  88507152.18845  21614336.398                    21614344.004
 113620558.856 8  88535584.122 7  21621273.742                    21621283.617
 120605832.472 7  93978657.816 6  22950532.859                    22950541.332
 126589089.851 6  98640947.92443  24089109.039                    24089117.863
 112869572.849 8  87950431.38746  21478348.945                    21478354.160
 121778664.241 7  94892567.69744  23173694.359                    23173702.617
 111528303.286 8  86905227.325 7  21223130.727                    21223137.723
 106678573.254 8  83126281.203 8  20300243.414                    20300250.527
 11  8 20  2  5  0.0000000  0  8G30G25G29G26G02G10G12G05
 113588205.948 8  88510349.62045  21615117.242                    21615124.996
 113607897.180 8  88525717.890 7  21618864.055                    21618873.777
 120522979.056 7  93914096.799 7  22934766.727                    22934774.457
 126494008.577 6  98566858.74043  24071015.172                    24071025.082
 112905940.083 8  87978769.50346  21485269.625                    21485274.355
 121878901.177 7  94970674.36744  23192769.969                    23192777.668
 111579959.655 8  86945479.033 7  21232960.664                    21232967.941
 106693020.353 8  83137538.718 8  20302992.281                    20302999.422
 11  8 20  2  5 30.0000000  0  8G30G25G29G26G02G10G12G05
 113592907.200 8  88514012.96246  21616012.094                    21616020.051
 113595815.050 8  88516303.276 7  21616564.813                    21616574.961
 120440163.662 7  93849565.415 7  22919006.914                    22919015.254
 126398918.251 6  98492762.47043  24052919.883                    24052929.910
 112942398.607 8  88007178.76946  21492207.289                    21492212.656
 121979357.225 7  95048951.80144  23211884.906                    23211893.184
 111632097.983 8  86986106.307 7  21242882.219                    21242888.914
 106708014.910 8  83149222.820 8  20305846.063                    20305853.172
 11  8 20  2  6  0.0000000  0  8G30G25G29G26G02G10G12G05
 113598205.613 8  88518141.61246  21617020.203                    21617028.023
 113584312.652 8  88507340.382 7  21614376.164                    21614385.797
 120357387.511 7  93785064.609 7  22903255.055                    22903263.109
 126303822.300 6  98418661.85143  24034823.547                    24034833.703
 112978948.199 8  88035658.99146  21499162.242                    21499167.086
 122080029.691 7  95127397.86244  23231042.914                    23231050.516
 111684716.390 8  87027107.664 7  21252894.711                    21252902.102
 106723555.543 8  83161332.428 8  20308803.344                    20308810.152
 11  8 20  2  6 30.0000000  0  8G30G25G29G26G02G10G12G05
 113604100.375 8  88522734.95945  21618142.086                    21618149.836
 113573390.006 8  88498829.258 7  21612297.633                    21612307.371
 120274652.537 7  93720595.888 6  22887510.633                    22887518.637
 126208723.799 6  98344559.21543  24016727.227                    24016736.742
 113015588.598 8  88064209.96646  21506134.570                    21506140.078
 122180915.709 7  95206010.33243  23250240.336                    23250247.762
 111737812.326 8  87068481.121 7  21262998.836                    21263006.211
 106739640.960 8  83173866.546 8  20311863.938                    20311870.910
 11  8 20  2  7  0.0000000  0  8G30G25G29G26G02G10G12G05
 113610590.687 8  88527792.36645  21619376.984                    21619385.125
 113563047.202 8  88490769.945 7  21610329.703                    21610339.164
 120191960.322 7  93656160.487 6  22871775.070                    22871783.027
 126113626.192 6  98270457.29043  23998629.758                    23998640.219
 113052319.047 8  88092831.11346  21513124.352                    21513129.188
 122282012.355 7  95284786.95843  23269478.750                    23269485.637
 111791383.692 8  87110225.028 7  21273193.313                    21273200.438
 106756269.997 8  83186824.264 8  20315028.531                    20315035.254
 11  8 20  2  7 30.0000000  0  8G30G25G29G26G02G10G12G05
 113617675.880 8  88533313.32246  21620725.242                    21620733.027
 113553284.402 8  88483162.581 7  21608471.523                    21608481.652
 120109312.716 7  93591759.828 6  22856047.883                    22856055.691
 126018532.592 6  98196358.49543  23980534.414                    23980544.215
 113089139.718 8  88121522.55246  21520131.125                    21520135.922
 122383317.015 7  95363725.66443  23288756.086                    23288763.633
 111845428.546 8  87152337.907 7  21283477.836                    21283484.527
 106773441.648 8  83200204.794 8  20318296.297                    20318302.816
 11  8 20  2  8  0.0000000  0  8G30G25G29G26G02G10G12G05
 113625354.873 8  88539296.96845  21622186.617                    21622194.598
 113544101.440 8  88476007.035 7  21606724.453                    21606733.805
 120026711.089 7  93527395.010 7  22840329.273                    22840337.129
 125923446.613 6  98122265.61043  23962440.477                    23962450.188
 113126050.071 8  88150283.88746  21527154.891                    21527160.094
 122484826.770 6  95442824.16743  23308072.117                    23308079.949
 111899944.505 8  87194817.870 7  21293851.266                    21293858.238
 106791154.321 8  83214006.900 8  20321667.070                    20321673.574
 11  8 20  2  8 30.0000000  0  8G30G25G29G26G02G10G12G05
 113633627.030 8  88545742.82445  21623760.766                    21623768.227
 113535498.551 8  88469303.510 7  21605086.938                    21605096.988
 119944157.269 7  93463067.415 6  22824619.570                    22824626.973
 125828371.259 6  98048180.99643  23944348.023                    23944357.680
 113163050.001 8  88179115.01146  21534195.727                    21534200.695
 122586538.981 6  95522080.40943  23327427.898                    23327435.891
 111954929.561 8  87237663.360 7  21304315.000                    21304322.023
 106809407.020 8  83228229.808 8  20325140.063                    20325146.863
 11  8 20  2  9  0.0000000  0  8G30G25G29G26G02G10G12G05
 113642491.142 8  88552649.93345  21625447.656                    21625455.352
 113527475.395 8  88463051.721 7  21603560.648                    21603570.434
 119861652.750 7  93398778.225 6  22808919.766                    22808927.121
 125733309.878 6  97974107.26443  23926258.836                    23926268.039
 113200139.059 8  88208015.58746  21541253.320                    21541258.832
 122688450.512 6  95601491.93844  23346821.156                    23346829.090
 112010381.054 8  87280872.320 7  21314866.750                    21314874.105
 106828198.047 8  83242872.188 8  20328715.945                    20328722.922
 11  8 20  2  9 30.0000000  0  8G30G25G29G26G02G10G12G05
 113651946.497 8  88560017.75946  21627246.805                    21627254.453
 113520032.114 8  88457251.766 7  21602144.125                    21602153.656
 119779199.335 7  93334528.854 6  22793229.375                    22793236.887
 125638265.965 6  97900047.15043  23908172.617                    23908181.480
 113237316.863 8  88236985.31646  21548328.453                    21548333.609
 122790558.738 6  95681056.77044  23366251.820                    23366260.027
 112066296.777 8  87324443.013 7  21325507.234                    21325514.016
 106847526.393 8  83257933.260 8  20332393.906                    20332400.715
 11  8 20  2 10  0.0000000  0  8G30G25G29G26G02G10G12G05
 113661992.185 7  88567845.58445  21629158.680                    21629165.867
 113513168.760 8  88451903.722 7  21600837.273                    21600847.422
 119696798.960 7  93270320.831 6  22777548.742                    22777556.863
 125543242.822 6  97826003.21244  23890090.063                    23890098.832
 113274583.155 8  88266023.99646  21555419.547                    21555425.008
 122892860.916 7  95760772.71244  23385719.195                    23385727.227
 112122675.055 8  87368374.122 7  21336236.188                    21336243.051
 106867390.781 8  83273412.026 8  20336174.211                    20336180.492
 11  8 20  2 10 30.0000000  0  8G30G25G29G26G02G10G12G05
 113672627.025 8  88576132.48545  21631182.141                    21631189.660
 113506884.886 8  88447007.205 7  21599642.188                    21599651.738
 119614452.853 7  93206155.066 6  22761878.734                    22761886.711
 125448243.748 7  97751978.02144  23872012.617                    23872021.246
 113311937.739 8  88295131.47246  21562527.734                    21562533.055
 122995353.905 7  95840637.34844  23405223.625                    23405231.426
 112179512.724 8  87412663.216 7  21347051.672                    21347058.668
 106887789.318 8  83289307.011 8  20340055.781                    20340062.477
 11  8 20  2 11  0.0000000  0  8G30G25G29G26G02G10G12G05
 113683850.104 8  88584877.74945  21633318.055                    21633325.777
 113501180.557 8  88442562.274 7  21598556.930                    21598566.449
 119532163.125 7  93142033.241 7  22746219.891                    22746227.957
 125353272.052 7  97677974.15643  23853939.898                    23853948.348
 113349380.381 8  88324307.57346  21569652.867                    21569657.914
 123098035.025 7  95920648.62344  23424762.695                    23424770.605
 112236808.053 8  87457308.927 7  21357955.055                    21357961.969
 106908720.864 8  83305617.326 8  20344038.914                    20344045.684
 11  8 20  2 11 30.0000000  0  8G30G25G29G26G02G10G12G05
 113695660.134 8  88594080.37445  21635565.328                    21635572.453
 113496055.407 8  88438568.658 7  21597581.281                    21597590.863
 119449931.302 7  93077956.526 6  22730571.758                    22730578.855
 125258331.185 6  97603994.31743  23835873.281                    23835882.152
 113386910.563 8  88353551.87546  21576794.883                    21576799.895
 123200901.499 7  96000804.29243  23444337.086                    23444345.504
 112294558.316 8  87502309.121 7  21368944.383                    21368951.082
 106930183.980 8  83322341.853 8  20348123.102                    20348129.879
 11  8 20  2 12  0.0000000  0  8G30G25G29G26G02G10G12G05
 113708056.409 8  88603739.82046  21637924.172                    21637931.758
 113491509.543 8  88435026.435 7  21596715.969                    21596725.965
 119367759.243 7  93013926.400 7  22714934.445                    22714942.402
 125163424.729 6  97530041.29643  23817812.977                    23817821.363
 113424528.483 8  88382864.55446  21583953.148                    21583958.293
 123303950.948 7  96081102.55343  23463947.289                    23463955.426
 112352761.360 8  87547662.140 7  21380019.992                    21380027.090
 106952177.624 8  83339479.765 8  20352308.313                    20352315.203
 11  8 20  2 12 30.0000000  0  8G30G25G29G26G02G10G12G05
 113721037.648 8  88613855.05945  21640394.523                    21640402.141
 113487542.535 8  88431935.259 7  21595961.320                    21595970.906
 119285648.732 7  92949944.226 7  22699309.531                    22699317.059
 125068555.701 6  97456117.45843  23799759.852                    23799768.094
 113462233.598 8  88412245.17446  21591128.359                    21591133.547
 123407180.040 7  96161540.81843  23483590.813                    23483598.574
 112411414.885 7  87593366.176 7  21391181.188                    21391188.293
 106974699.662 8  83357029.425 8  20356594.086                    20356600.961
 11  8 20  2 13  0.0000000  0  8G30G25G29G26G02G10G12G05
 113734602.606 8  88624425.15545  21642975.664                    21642983.078
 113484154.076 8  88429294.914 7  21595316.852                    21595326.086
 119203601.433 7  92886011.298 7  22683696.461                    22683703.602
 124973727.582 6  97382225.50543  23781714.648                    23781722.953
 113500025.528 8  88441693.44946  21598319.836                    21598325.176
 123510586.104 7  96242116.97644  23503268.656                    23503276.594
 112470516.210 8  87639419.157 7  21402427.836                    21402434.582
 106997748.763 8  83374989.777 8  20360980.148                    20360987.164
 11  8 20  2 13 30.0000000  0  8G30G25G29G26G02G10G12G05
 113748750.366 8  88635449.37746  21645668.336                    21645675.910
 113481344.104 8  88427105.329 7  21594782.180                    21594791.641
 119121619.303 7  92822129.172 7  22668095.703                    22668103.707
 124878943.801 6  97308368.11043  23763677.531                    23763686.375
 113537903.821 8  88471209.02546  21605527.961                    21605533.199
 123614166.856 7  96322829.25944  23522979.117                    23522987.293
 112530063.207 8  87685819.408 7  21413759.625                    21413766.090
 107021323.678 8  83393359.861 8  20365466.313                    20365473.012
 11  8 20  2 14  0.0000000  0  8G30G25G29G26G02G10G12G05
 113763479.775 8  88646926.83646  21648470.945                    21648478.496
 113479112.300 8  88425366.268 7  21594357.188                    21594367.105
 119039703.906 7  92758299.055 7  22652507.617                    22652515.305
 124784207.827 6  97234547.98543  23745650.016                    23745658.672
 113575869.028 8  88500792.32046  21612752.695                    21612757.613
 123717919.385 7  96403675.41043  23542722.359                    23542730.715
 112590053.271 8  87732564.907 7  21425175.055                    21425181.816
 107045422.877 8  83412138.468 8  20370052.234                    20370059.027
 11  8 20  2 14 30.0000000  0  8G30G25G29G26G02G10G12G05
 113778789.783 8  88658856.70745  21651384.500                    21651391.887
 113477458.506 8  88424077.602 7  21594042.383                    21594051.824
 118957857.294 7  92694522.525 7  22636932.766                    22636940.695
 124689523.454 6  97160768.06743  23727630.984                    23727640.434
 113613920.722 8  88530443.00646  21619993.586                    21619998.324
 123821840.980 7  96484653.28844  23562497.883                    23562505.848
 112650484.581 7  87779654.233 7  21436674.734                    21436681.293
 107070045.300 8  83431324.792 8  20374737.641                    20374744.680
 11  8 20  2 15  0.0000000  0  9G30G25G15G29G26G02G10G12G05
 113794678.759 8  88671237.72645  21654407.852                    21654415.313
 113476382.024 8  88423238.800 7  21593837.719                    21593847.258
 129359093.46515 100799336.86316  24616222.305                    24616231.820
 118876081.150 7  92630800.921 7  22621370.711                    22621379.043
 124594893.468 7  97087030.52743  23709624.492                    23709633.340
 113652058.569 8  88560160.82646  21627251.102                    21627255.836
 123925928.461 7  96565760.43043  23582305.492                    23582313.477
 112711353.854 8  87827084.841 7  21448257.844                    21448264.961
 107095188.642 8  83450917.024 8  20379522.391                    20379528.996
 11  8 20  2 15 30.0000000  0  9G30G25G15G29G26G02G10G12G05
 113811145.322 8  88684068.80746  21657541.594                    21657549.242
 113475882.324 8  88422849.431 7  21593742.570                    21593752.523
 129266035.894 5 100726824.699 6  24598514.273                    24598524.293
 118794376.830 7  92567135.297 7  22605822.945                    22605831.074
 124500321.359 6  97013338.09044  23691627.844                    23691636.777
 113690282.131 8  88589945.43846  21634524.383                    21634529.457
 124030179.078 6  96646994.66343  23602143.961                    23602151.906
 112772658.782 8  87874854.909 7  21459923.945                    21459931.043
 107120851.127 8  83470913.780 8  20384405.789                    20384412.551
 11  8 20  2 16  0.0000000  0  9G30G25G15G29G26G02G10G12G05
 113828188.453 8  88697349.16346  21660784.922                    21660792.387
 113475959.314 8  88422909.437 7  21593757.172                    21593767.043
 129172848.494 5 100654211.387 6  24580780.594                    24580791.508
 118712746.674 7  92503527.459 7  22590289.492                    22590297.340
 124405810.759 7  96939693.58744  23673642.328                    23673651.793
 113728591.292 8  88619796.74346  21641814.438                    21641819.246
 124134590.596 6  96728354.27343  23622011.977                    23622020.398
 112834397.067 7  87922962.666 7  21471671.711                    21471678.652
 107147031.501 8  83491314.099 8  20389387.711                    20389394.477
 11  8 20  2 16 30.0000000  0  9G30G25G15G29G26G02G10G12G05
 113845806.709 8  88711077.67346  21664137.086                    21664144.625
 113476612.392 8  88423418.348 7  21593881.492                    21593891.230
 129079533.913 6 100581498.990 6  24563024.242                    24563033.969
 118631192.410 7  92439978.760 7  22574769.883                    22574777.918
 124311364.947 7  96866099.55144  23655670.234                    23655679.805
 113766985.860 8  88649714.61246  21649120.547                    21649126.301
 124239160.038 6  96809836.92143  23641912.070                    23641919.211
 112896566.024 7  87971406.007 7  21483502.484                    21483509.570
 107173728.039 8  83512116.616 8  20394467.875                    20394474.590
 11  8 20  2 17  0.0000000  0  9G30G25G15G29G26G02G10G12G05
 113863999.115 8  88725253.57846  21667598.961                    21667606.672
 113477841.394 8  88424376.041 7  21594115.109                    21594125.035
 128986094.637 6 100508689.393 6  24545241.938                    24545252.633
 118549715.845 7  92376490.599 7  22559265.563                    22559273.445
 124216987.682 7  96792558.92344  23637711.016                    23637719.863
 113805465.932 8  88679699.09746  21656443.227                    21656448.082
 124343884.850 6  96891440.71343  23661840.602                    23661847.484
 112959163.535 8  88020183.284 7  21495414.195                    21495421.367
 107200939.658 8  83533320.496 8  20399646.148                    20399652.762
 11  8 20  2 17 30.0000000  0  9G30G25G15G29G26G02G10G12G05
 113882764.217 8  88739875.74346  21671170.305                    21671177.145
 113479645.753 8  88425782.059 7  21594458.570                    21594468.410
 128892533.277 6 100435784.658 6  24527438.359                    24527448.129
 118468318.932 8  92313064.511 7  22543776.219                    22543784.125
 124122682.385 6  96719074.37644  23619765.234                    23619774.738
 113844031.042 8  88709749.85246  21663781.922                    21663786.734
 124448762.284 7  96973163.38843  23681797.813                    23681805.395
 113022186.965 8  88069292.450 7  21507407.484                    21507414.230
 107228664.440 8  83554924.254 8  20404921.664                    20404928.340
 11  8 20  2 18  0.0000000  0  9G30G25G15G29G26G02G10G12G05
 113902100.600 8  88754943.05146  21674849.773                    21674857.559
 113482025.000 8  88427636.049 7  21594911.156                    21594920.758
 128798852.228 6 100362786.678 6  24509611.742                    24509620.926
 118387003.460 7  92249701.866 7  22528302.539                    22528310.031
 124028452.474 7  96645648.57944  23601833.781                    23601843.031
 113882681.342 8  88739866.98446  21671136.953                    21671141.523
 124553789.603 7  97055002.85543  23701783.914                    23701791.059
 113085633.833 8  88118731.565 7  21519480.836                    21519487.836
 107256900.748 8  83576926.593 8  20410294.969                    20410301.984
 11  8 20  2 18 30.0000000  0  9G30G25G15G29G26G02G10G12G05
 113922006.801 8  88770454.38945  21678637.594                    21678645.348
 113484978.522 8  88429937.517 7  21595473.328                    21595483.309
 128705053.915 6 100289697.312 6  24491761.930                    24491771.508
 118305771.337 7  92186404.166 7  22512844.797                    22512852.199
 123934301.500 7  96572284.27844  23583917.531                    23583926.258
 113921416.241 8  88770050.03846  21678507.742                    21678513.023
 124658963.997 7  97136956.95944  23721798.133                    23721805.121
 113149501.358 8  88168498.468 7  21531634.758                    21531641.840
 107285646.749 8  83599326.095 8  20415765.594                    20415772.313
 11  8 20  2 19  0.0000000  0  9G30G25G15G29G26G02G10G12G05
 113942481.370 8  88786408.61745  21682533.406                    21682541.793
 113488505.738 8  88432686.013 7  21596144.773                    21596154.523
 128611141.044 6 100216518.664 6  24473890.961                    24473900.195
 118224624.381 7  92123172.841 7  22497402.719                    22497410.066
 123840232.691 7  96498983.99644  23566016.461                    23566025.680
 113960235.890 8  88800299.12845  21685894.828                    21685899.902
 124764282.948 7  97219023.67244  23741839.453                    23741847.254
 113213787.179 8  88218591.313 7  21543867.344                    21543874.996
 107314900.826 8  83622121.507 8  20421332.250                    20421338.641
 11  8 20  2 19 30.0000000  0  9G30G25G15G29G26G02G10G12G05
 113963523.004 8  88802804.70845  21686537.742                    21686545.797
 113492606.220 8  88435881.219 7  21596924.820                    21596934.043
 128517116.093 7 100143252.698 6  24455998.625                    24456008.277
 118143564.719 7  92060009.537 7  22481977.336                    22481984.863
 123746249.834 7  96425750.67944  23548132.102                    23548141.270
 113999140.371 8  88830614.32146  21693298.391                    21693303.281
 124869743.757 6  97301200.91243  23761907.586                    23761915.695
 113278488.956 8  88269008.283 7  21556179.859                    21556187.316
 107344661.603 8  83645311.748 8  20426995.234                    20427001.914
 11  8 20  2 20  0.0000000  0  9G30G25G15G29G26G02G10G12G05
 113985130.136 8  88819641.45545  21690649.414                    21690657.156
 113497279.203 8  88439522.525 7  21597814.039                    21597823.754
 128422981.650 7 100069901.380 6  24438084.977                    24438094.156
 118062594.004 7  91996915.525 7  22466569.008                    22466576.816
 123652356.414 6  96352587.06844  23530264.680                    23530273.148
 114038129.387 8  88860995.38445  21700717.328                    21700722.242
 124975343.365 6  97383486.28143  23782001.961                    23782010.930
 113343603.633 8  88319746.995 7  21568571.297                    21568577.879
 107374927.016 8  83668895.214 8  20432754.609                    20432761.316
 11  8 20  2 20 30.0000000  0  9G30G25G15G29G26G02G10G12G05
 114007301.225 8  88836917.65746  21694868.438                    21694876.102
 113502524.128 8  88443609.498 7  21598812.102                    21598821.332
 128328740.117 7  99996466.602 5  24420151.500                    24420160.125
 117981714.217 7  91933892.374 7  22451178.555                    22451185.949
 123558555.873 7  96279495.82643  23512415.086                    23512423.508
 114077202.786 8  88891442.21445  21708153.070                    21708157.754
 125081079.545 6  97465878.12343  23802123.875                    23802131.801
 113409128.881 8  88370805.625 7  21581039.875                    21581046.953
 107405695.393 8  83692870.591 8  20438609.273                    20438616.340
 11  8 20  2 21  0.0000000  0  9G30G25G15G29G26G02G10G12G05
 114030034.586 8  88854631.98745  21699194.172                    21699202.063
 113508340.097 8  88448141.443 7  21599918.539                    21599928.547
 128234393.932 6  99922950.247 5  24402197.875                    24402206.129
 117900926.998 7  91870941.345 7  22435804.648                    22435812.441
 123464851.486 6  96206479.49243  23494583.445                    23494592.125
 114116359.976 7  88921954.32746  21715604.203                    21715609.164
 125186949.693 6  97548374.30043  23822268.969                    23822278.277
 113475061.714 7  88422181.849 7  21593586.516                    21593593.840
 107436964.523 8  83717236.169 8  20444559.953                    20444566.602
 11  8 20  2 21 30.0000000  0  9G30G25G15G29G26G02G10G12G05
 114053328.820 8  88872783.36245  21703627.133                    21703635.285
 113514726.585 8  88453117.939 7  21601134.234                    21601143.766
 128139945.630 6  99849354.310 5  24384224.398                    24384234.086
 117820234.415 7  91808064.064 7  22420449.305                    22420457.234
 123371246.959 6  96133540.97743  23476771.414                    23476779.293
 114155601.432 7  88952532.09445  21723072.242                    21723076.863
 125292951.140 6  97630972.80943  23842440.844                    23842449.328
 113541399.874 8  88473873.926 7  21606209.906                    21606217.316
 107468733.006 8  83741990.852 8  20450605.016                    20450611.832
 11  8 20  2 22  0.0000000  0  9G30G25G15G29G26G02G10G12G05
 114077182.318 8  88891370.52745  21708166.477                    21708174.234
 113521682.883 8  88458538.454 7  21602457.906                    21602467.152
 128045397.992 6  99775680.931 5  24366232.750                    24366241.910
 117739638.405 7  91745262.048 7  22405112.172                    22405120.508
 123277745.971 6  96060683.14143  23458978.859                    23458987.305
 114194926.895 7  88983175.31945  21730555.141                    21730560.070
 125399081.217 7  97713671.57843  23862636.750                    23862645.086
 113608140.632 8  88525879.698 7  21618910.438                    21618917.750
 107500999.181 8  83767133.351 8  20456745.484                    20456752.133
 11  8 20  2 22 30.0000000  0  9G30G25G15G29G26G02G10G12G05
 114101593.479 8  88910392.23446  21712811.570                    21712819.281
 113529208.264 8  88464402.399 7  21603889.719                    21603899.570
 127950753.524 6  99701932.149 5  24348222.086                    24348230.820
 117659141.224 7  91682537.003 7  22389794.289                    22389801.559
 123184352.008 6  95987908.72443  23441206.063                    23441214.863
 114234336.207 7  89013883.88345  21738054.383                    21738059.328
 125505337.174 7  97796468.39943  23882857.172                    23882864.992
 113675281.408 7  88578197.177 7  21631687.031                    21631694.484
 107533761.217 8  83792662.227 8  20462979.828                    20462986.512
 11  8 20  2 23  0.0000000  0  9G30G25G15G29G26G02G10G12G05
 114126560.617 8  88929847.16346  21717562.641                    21717570.730
 113537301.797 8  88470709.058 7  21605429.969                    21605439.723
 127856014.983 6  99628110.027 5  24330194.047                    24330202.516
 117578744.552 7  91619890.306 7  22374495.563                    22374503.461
 123091068.409 6  95915220.27544  23423454.539                    23423462.891
 114273829.219 7  89044657.66845  21745569.383                    21745574.504
 125611716.062 7  97879361.01643  23903100.414                    23903108.367
 113742819.432 8  88630824.196 7  21644539.023                    21644546.438
 107567017.031 8  83818575.869 8  20469308.063                    20469314.797
 11  8 20  2 23 30.0000000  0  9G30G25G15G29G26G02G10G12G05
 114152082.157 8  88949734.09345  21722419.250                    21722427.453
 113545962.977 8  88477458.042 7  21607078.164                    21607087.719
 127761184.701 6  99554216.470 6  24312148.023                    24312157.188
 117498450.415 7  91557323.484 7  22359216.016                    22359223.262
 122997899.001 7  95842620.82244  23405724.992                    23405733.586
 114313406.091 7  89075496.80145  21753100.828                    21753105.828
 125718215.834 7  97962347.90243  23923367.094                    23923374.059
 113810751.909 7  88683758.590 7  21657466.398                    21657473.566
 107600764.951 8  83844872.972 8  20475729.852                    20475736.387
 11  8 20  2 24  0.0000000  0  9G30G25G15G29G26G02G10G12G05
 114178156.336 8  88970051.64645  21727380.836                    21727388.621
 113555190.710 8  88484648.493 7  21608834.195                    21608843.227
 127666265.514 6  99480253.586 6  24294085.938                    24294094.918
 117418260.578 7  91494837.923 7  22343956.633                    22343964.105
 122904847.028 7  95770112.86844  23388017.969                    23388026.590
 114353066.351 8  89106400.91645  21760647.898                    21760652.676
 125824833.717 7  98045426.80743  23943655.695                    23943663.039
 113879076.540 7  88736998.557 7  21670467.734                    21670474.797
 107635003.011 8  83871551.990 8  20482245.469                    20482251.914
 11  8 20  2 24 30.0000000  0  9G30G25G15G29G26G02G10G12G05
 114204781.598 8  88990798.61845  21732447.438                    21732455.156
 113564984.282 8  88492279.851 7  21610697.953                    21610707.023
 127571260.186 6  99406223.590 6  24276007.086                    24276016.258
 117338176.967 7  91432435.144 7  22328716.617                    22328724.719
 122811916.312 7  95697699.39244  23370334.102                    23370342.270
 114392810.064 8  89137370.05545  21768210.859                    21768216.094
 125931567.087 7  98128595.68143  23963966.102                    23963974.180
 113947790.254 7  88790541.702 7  21683543.938                    21683551.238
 107669729.760 8  83898611.815 8  20488853.367                    20488860.379
 11  8 20  2 25  0.0000000  0  9G30G25G15G29G26G02G10G12G05
 114231955.966 7  89011973.45745  21737618.672                    21737626.668
 113575342.736 8  88500351.383 7  21612668.992                    21612679.074
 127476170.794 7  99332128.081 6  24257912.156                    24257921.063
 117258201.680 7  91370116.767 7  22313498.289                    22313505.645
 122719110.250 7  95625383.06744  23352673.391                    23352682.176
 114432637.321 8  89168404.28745  21775789.938                    21775794.844
 126038413.305 6  98211852.43543  23984298.281                    23984305.922
 114016890.216 7  88844385.820 7  21696693.313                    21696700.234
 107704942.756 8  83926050.522 8  20495554.547                    20495561.012
 11  8 20  2 25 30.0000000  0  9G30G25G15G29G26G02G10G12G05
 114259677.757 7  89033574.85145  21742893.703                    21742901.879
 113586265.144 8  88508862.359 7  21614747.250                    21614757.094
 127381000.393 7  99257969.439 6  24239801.008                    24239810.133
 117178336.704 7  91307884.338 7  22298300.133                    22298307.949
 122626432.280 7  95553166.53744  23335037.555                    23335045.457
 114472547.830 7  89199503.39745  21783384.445                    21783389.285
 126145369.469 6  98295194.89643  24004650.805                    24004659.262
 114086373.915 7  88898528.960 7  21709915.352                    21709922.566
 107740640.180 8  83953866.712 8  20502347.258                    20502354.180
 11  8 20  2 26  0.0000000  0  9G30G25G15G29G26G02G10G12G05
 114287945.324 7  89055601.54445  21748273.344                    21748281.133
 113597750.695 8  88517812.146 7  21616932.938                    21616942.695
 127285751.846 7  99183749.920 6  24221676.469                    24221685.375
 117098583.952 7  91245739.373 7  22283123.836                    22283131.484
 122533886.281 7  95481052.84944  23317427.070                    23317434.945
 114512541.861 8  89230667.57845  21790995.586                    21791000.270
 126252433.407 6  98378621.33243  24025025.227                    24025032.746
 114156238.748 7  88952969.074 7  21723210.195                    21723217.457
 107776820.436 8  83982059.126 8  20509232.180                    20509238.945
 11  8 20  2 26 30.0000000  0  9G30G25G15G29G26G02G10G12G05
 114316756.576 7  89078051.86545  21753755.359                    21753763.410
 113609798.169 8  88527199.784 7  21619225.344                    21619235.074
 127190427.311 7  99109471.181 6  24203537.000                    24203545.379
 117018945.383 7  91183683.384 7  22267968.867                    22267976.355
 122441475.435 7  95409044.47844  23299841.297                    23299849.824
 114552618.906 7  89261896.44345  21798621.672                    21798626.461
 126359602.260 6  98462129.52243  24045417.602                    24045426.363
 114226481.716 7  89007703.841 7  21736577.500                    21736584.324
 107813480.975 8  84010625.793 8  20516208.570                    20516215.402
 11  8 20  2 27  0.0000000  0  9G30G25G15G29G26G02G10G12G05
 114346109.887 8  89100924.58845  21759341.016                    21759349.039
 113622406.852 8  88537024.737 7  21621624.781                    21621634.422
 127095029.664 7  99035135.482 6  24185383.328                    24185391.898
 116939423.332 7  91121718.185 7  22252836.430                    22252843.969
 122349203.647 6  95337144.44544  23282281.984                    23282290.770
 114592779.243 7  89293190.21345  21806263.930                    21806269.016
 126466873.670 6  98545717.62243  24065831.539                    24065839.477
 114297100.162 7  89062731.193 7  21750015.164                    21750022.617
 107850620.329 8  84039565.567 8  20523275.930                    20523282.336
 11  8 20  2 27 30.0000000  0  9G30G25G15G29G26G02G10G12G05
 114376003.541 8  89124218.34345  21765030.039                    21765038.098
 113635575.680 8  88547286.159 7  21624130.719                    21624140.590
 126999561.564 7  98960744.908 6  24167215.805                    24167224.203
 116860019.743 7  91059845.293 7  22237726.133                    22237733.012
 122257074.525 7  95265355.61144  23264750.594                    23264759.078
 114633022.629 7  89324548.69345  21813921.797                    21813926.777
 126574245.069 6  98629383.62743  24086263.383                    24086271.609
 114368091.422 7  89118049.045 7  21763524.531                    21763531.402
 107888236.540 7  84068876.916 8  20530434.031                    20530440.875
 11  8 20  2 28  0.0000000  0  9G30G25G15G29G26G02G10G12G05
 114406435.437 8  89147931.51545  21770820.680                    21770828.816
 113649303.621 8  88557983.249 7  21626743.172                    21626752.391
 126904025.493 6  98886301.326 6  24149035.375                    24149044.641
 116780736.460 7  90998066.149 7  22222639.352                    22222646.875
 122165091.631 6  95193680.71744  23247246.531                    23247255.664
 114673349.164 7  89355971.96445  21821595.594                    21821600.352
 126681713.943 7  98713125.59143  24106714.758                    24106722.184
 114439452.727 7  89173655.242 7  21777104.203                    21777111.297
 107926327.333 8  84098558.081 8  20537682.453                    20537688.965
 11  8 20  2 28 30.0000000  0  9G30G25G15G29G26G02G10G12G05
 114437404.022 7  89172062.87845  21776713.984                    21776722.281
 113663589.792 8  88569115.333 7  21629461.602                    21629471.367
 126808424.708 6  98811807.359 6  24130842.320                    24130852.113
 116701575.612 7  90936382.436 7  22207575.422                    22207582.855
 122073258.612 6  95122122.61344  23229771.055                    23229780.227
 114713758.980 7  89387460.12845  21829285.406                    21829290.164
 126789277.743 6  98796941.56143  24127182.289                    24127190.801
 114511181.393 7  89229547.702 7  21790753.734                    21790760.891
 107964891.175 8  84128607.843 8  20545020.813                    20545027.410
 11  8 20  2 29  0.0000000  0  9G30G25G15G29G26G02G10G12G05
 114468907.244 8  89196610.84345  21782708.945                    21782717.113
 113678433.045 8  88580681.495 7  21632286.609                    21632296.063
 126712761.610 6  98737264.821 6  24112638.250                    24112647.809
 116622539.478 7  90874795.895 7  22192535.289                    22192542.746
 121981579.069 7  95050684.09244  23212325.172                    23212333.602
 114754252.227 8  89419013.31445  21836991.148                    21836995.973
 126896933.957 6  98880829.50143  24147669.063                    24147677.059
 114583274.464 7  89285724.108 7  21804472.281                    21804479.484
 108003926.081 8  84159024.679 8  20552448.641                    20552455.191
 11  8 20  2 29 30.0000000  0  9G30G25G15G29G26G02G10G12G05
 114500943.478 8  89221574.14045  21788804.828                    21788812.781
 113693832.664 8  88592681.196 7  21635217.016                    21635226.836
 126617039.111 6  98662675.967 5  24094423.359                    24094432.223
 116543630.298 7  90813308.292 7  22177519.094                    22177526.543
 121890057.106 7  94979368.35844  23194909.586                    23194917.469
 114794829.000 8  89450631.56845  21844712.563                    21844717.492
 127004679.984 6  98964787.48743  24168172.391                    24168180.656
 114655729.549 7  89342182.601 7  21818260.344                    21818267.469
 108043430.403 8  84189807.287 8  20559966.297                    20559973.090
 11  8 20  2 30  0.0000000  0  9G30G25G15G29G26G02G10G12G05
 114533510.059 8  89246950.69145  21795002.227                    21795010.074
 113709786.617 8  88605112.844 7  21638252.891                    21638262.320
 126521259.423 6  98588042.543 5  24076197.008                    24076205.656
 116464849.432 7  90751920.681 7  22162527.742                    22162535.047
 121798695.246 7  94908177.36844  23177523.625                    23177531.734
 114835488.515 7  89482314.30345  21852449.898                    21852454.824
 127112513.132 6  99048813.27942  24188692.688                    24188700.445
 114728542.999 7  89398920.338 7  21832116.453                    21832123.551
 108083400.794 8  84220953.071 8  20567572.391                    20567579.020
 11  8 20  2 30 30.0000000  0  9G30G25G15G29G26G02G10G12G05
 114566605.385 8  89272739.25745  21801300.422                    21801307.965
 113726294.264 8  88617975.945 7  21641394.047                    21641403.422
 126425425.687 7  98513366.985 6  24057960.820                    24057969.195
 116386199.180 7  90690634.834 7  22147561.023                    22147568.176
 121707497.654 7  94837114.37144  23160168.570                    23160177.406
 114876231.176 7  89514061.83645  21860202.828                    21860207.801
 127220431.429 6  99132905.49842  24209228.906                    24209236.750
 114801712.588 7  89455935.595 7  21846039.680                    21846047.211
 108123836.201 8  84252461.193 8  20575266.867                    20575273.352
 11  8 20  2 31  0.0000000  0  9G30G25G15G29G26G02G10G12G05
 114600227.381 8  89298938.21145  21807698.688                    21807705.914
 113743354.365 8  88631269.518 7  21644640.609                    21644650.359
 126329540.372 7  98438651.251 6  24039713.977                    24039722.711
 116307681.522 7  90629452.315 7  22132619.570                    22132627.172
 121616468.019 7  94766182.25744  23142846.383                    23142855.066
 114917057.076 7  89545874.23045  21867971.891                    21867976.883
 127328431.984 6  99217061.80542  24229780.148                    24229788.074
 114875235.277 7  89513225.983 7  21860030.938                    21860038.059
 108164734.127 8  84284329.723 8  20583049.344                    20583056.438
 11  8 20  2 31 30.0000000  0  9G30G25G15G29G26G02G10G12G05
 114634374.266 8  89325546.16245  21814196.391                    21814204.191
 113760965.909 8  88644992.800 7  21647991.688                    21648001.637
 126233606.374 7  98363897.576 6  24021458.508                    24021467.109
 116229298.932 7  90568375.035 7  22117703.461                    22117710.883
 121525609.982 7  94695383.86144  23125557.547                    23125565.426
 114957966.298 7  89577751.55645  21875756.375                    21875761.492
 127436512.335 6  99301280.22743  24250347.445                    24250354.922
 114949108.375 7  89570789.421 7  21874088.688                    21874095.727
 108206092.961 8  84316557.395 8  20590919.750                    20590926.414
 11  8 20  2 32  0.0000000  0  9G30G25G15G29G26G02G10G12G05
 114669043.610 8  89352561.22945  21820793.414                    21820801.445
 113779127.334 8  88659144.554 7  21651447.695                    21651457.570
 126137626.402 7  98289108.088 6  24003194.070                    24003202.547
 116151053.093 7  90507404.319 7  22102814.078                    22102821.910
 121434926.879 7  94624721.76644  23108300.531                    23108308.930
 114998958.524 7  89609693.55445  21883556.969                    21883561.918
 127544669.890 6  99385558.85143  24270929.188                    24270936.906
 115023328.685 7  89628623.424 7  21888212.055                    21888219.227
 108247910.011 8  84349142.128 8  20598877.617                    20598883.824
 11  8 20  2 32 30.0000000  0  9G30G25G15G29G26G02G10G12G05
 114704233.483 8  89379981.91145  21827490.133                    21827497.297
 113797837.470 8  88673723.880 7  21655008.086                    21655017.621
 126041603.155 7  98214284.880 6  23984921.781                    23984929.895
 116072946.181 7  90446541.857 7  22087951.023                    22087957.891
 121344422.562 7  94554199.00844  23091078.148                    23091086.500
 115040034.099 8  89641700.51445  21891373.922                    21891378.313
 127652902.433 6  99469895.90543  24291525.219                    24291533.328
 115097893.850 7  89686726.136 7  21902401.656                    21902408.469
 108290183.425 8  84382082.451 8  20606921.563                    20606928.480
 11  8 20  2 33  0.0000000  0  9G30G25G15G29G26G02G10G12G05
 114739941.891 8  89407806.64545  21834285.102                    21834293.297
 113817095.132 8  88688729.837 7  21658672.711                    21658682.621
 125945539.613 7  98139430.271 6  23966641.383                    23966649.637
 115994980.346 7  90385789.312 7  22073114.516                    22073122.098
 121254100.574 7  94483818.31444  23073890.156                    23073898.898
 115081192.872 8  89673772.29345  21899205.445                    21899210.723
 127761207.445 6  99554289.42843  24312135.063                    24312142.684
 115172800.627 7  89745095.047 7  21916655.656                    21916662.613
 108332911.400 8  84415376.985 8  20615052.422                    20615059.199
 11  8 20  2 33 30.0000000  0  9G30G25G15G29G26G02G10G12G05
 114776166.833 8  89436033.86445  21841178.641                    21841186.094
 113836899.189 8  88704161.572 7  21662441.422                    21662451.184
 125849438.476 7  98064546.351 6  23948353.539                    23948361.918
 115917157.998 7  90325148.582 7  22058305.352                    22058312.559
 121163964.831 7  94413582.74344  23056737.375                    23056746.133
 115122435.270 8  89705909.24845  21907053.859                    21907059.277
 127869582.466 6  99638737.50343  24332757.289                    24332765.867
 115248046.266 7  89803727.999 7  21930974.406                    21930981.477
 108376091.895 8  84449024.131 8  20623269.648                    20623276.168
 11  8 20  2 34  0.0000000  0  9G30G25G15G29G26G02G10G12G05
 114812905.839 8  89464661.65445  21848169.641                    21848177.414
 113857247.885 8  88720017.703 7  21666313.633                    21666323.051
 125753302.218 7  97989635.102 6  23930059.102                    23930067.938
 115839480.650 7  90264620.837 7  22043523.734                    22043530.758
 121074018.622 7  94343494.86644  23039621.789                    23039630.008
 115163760.898 7  89738111.05545  21914918.141                    21914923.000
 127978024.875 6  99723238.05943  24353394.055                    24353401.727
 115323627.988 7  89862622.836 7  21945357.156                    21945364.508
 108419721.966 7  84483021.601 8  20631572.508                    20631578.578
 11  8 20  2 34 30.0000000  0  9G30G25G15G29G26G02G10G12G05
 114850157.007 8  89493688.53445  21855258.625                    21855266.375
 113878140.174 8  88736297.395 7  21670289.469                    21670298.813
 125657134.010 6  97914698.943 6  23911759.313                    23911767.582
 115761950.882 7  90204208.067 7  22028769.984                    22028777.668
 120984265.964 7  94273557.80944  23022542.492                    23022550.711
 115205170.076 7  89770377.97745  21922797.703                    21922802.539
 128086532.427 6  99807789.44343  24374041.641                    24374049.887
 115399542.614 7  89921777.082 7  21959803.531                    21959810.023
 108463800.232 8  84517368.311 8  20639960.102                    20639966.914
 11  8 20  2 35  0.0000000  0  9G30G25G15G29G26G02G10G12G05
 114887918.376 8  89523112.98545  21862444.320                    21862451.363
 113899574.865 8  88752999.749 7  21674368.117                    21674377.750
 125560936.583 6  97839740.033 6  23893453.031                    23893461.922
 115684570.888 7  90143912.024 7  22014045.328                    22014052.168
 120894710.467 7  94203774.38344  23005500.000                    23005508.711
 115246663.014 7  89802710.15745  21930693.523                    21930698.422
 128195102.977 6  99892389.90543  24394701.461                    24394710.477
 115475787.701 7  89981188.823 7  21974312.711                    21974319.574
 108508324.637 8  84552062.662 8  20648432.594                    20648439.305
 11  8 20  2 35 30.0000000  0  9G30G25G15G29G26G02G10G12G05
 114926187.736 8  89552933.27345  21869726.625                    21869734.250
 113921550.588 8  88770123.698 7  21678549.867                    21678559.734
 125464712.817 6  97764760.616 6  23875142.203                    23875150.902
 115607342.928 7  90083734.419 7  21999348.945                    21999356.113
 120805355.741 7  94134147.40244  22988497.000                    22988505.652
 115288239.602 8  89835107.52745  21938605.234                    21938610.238
 128303733.738 6  99977037.25542  24415374.883                    24415382.387
 115552360.207 8  90040855.707 7  21988883.617                    21988890.586
 108553292.958 8  84587102.913 8  20656989.516                    20656996.762
 11  8 20  2 36  0.0000000  0  9G30G25G15G29G26G02G10G12G05
 114964962.639 8  89583147.48745  21877105.766                    21877112.957
 113944065.646 8  88787667.906 7  21682834.500                    21682844.074
 125368465.504 6  97689762.863 6  23856826.461                    23856835.609
 115530268.883 7  90023676.775 7  21984682.063                    21984689.570
 120716205.425 7  94064679.69944  22971531.750                    22971540.148
 115329899.953 8  89867570.16245  21946533.273                    21946538.109
 128412422.575 5 100061729.87442  24436055.969                    24436065.113
 115629256.910 7  90100775.205 7  22003516.609                    22003523.484
 108598702.725 8  84622487.163 8  20665630.891                    20665637.586
 11  8 20  2 36 30.0000000  0  9G30G25G15G29G26G02G10G12G05
 115004241.290 8  89613754.24245  21884579.773                    21884587.199
 113967118.990 8  88805631.556 7  21687221.367                    21687231.055
 125272197.539 6  97614749.005 6  23838507.406                    23838516.273
 115453351.280 7  89963741.022 7  21970045.500                    21970052.320
 120627263.261 7  93995374.17844  22954606.727                    22954614.957
 115371644.550 8  89900098.43545  21954476.773                    21954481.828
 128521167.395 5 100146466.08452  24456750.406                    24456758.926
 115706475.460 7  90160945.491 7  22018210.602                    22018217.926
 108644552.179 8  84658214.017 8  20674355.766                    20674362.395
 11  8 20  2 37  0.0000000  0  9G30G25G15G29G26G02G10G12G05
 115044020.610 8  89644751.11445  21892149.391                    21892156.891
 113990708.399 8  88824012.931 7  21691710.094                    21691719.719
 125175911.186 7  97539720.829 6  23820184.406                    23820192.984
 115376591.411 7  89903928.189 7  21955438.359                    21955445.809
 120538532.616 7  93926233.47344  22937721.766                    22937730.172
 115413472.657 8  89932691.80145  21962436.586                    21962441.406
 128629964.986 6 100231243.44942  24477454.453                    24477461.973
 115784012.112 7  90221363.651 7  22032965.625                    22032972.758
 108690838.486 8  84694281.284 8  20683164.055                    20683170.523
 11  8 20  2 37 30.0000000  0  9G30G25G15G29G26G02G10G12G05
 115084298.739 8  89676136.67845  21899813.945                    21899821.137
 114014832.749 8  88842811.129 7  21696301.414                    21696310.398
 125079609.669 7  97464680.797 6  23801858.883                    23801867.266
 115299991.827 7  89844240.244 7  21940862.047                    21940869.262
 120450017.037 7  93857260.36944  22920877.781                    22920886.125
 115455384.617 8  89965350.49345  21970411.375                    21970416.813
 128738813.163 6 100316060.28542  24498166.453                    24498174.426
 115861864.422 7  90282027.779 7  22047780.047                    22047787.496
 108737559.604 8  84730687.371 8  20692054.766                    20692061.316
 11  8 20  2 38  0.0000000  0 10G21G30G25G15G29G26G02G10G12G05
 132320661.35616 103107065.91853  25179790.742                    25179799.035
 115125073.349 8  89707909.09945  21907573.352                    21907580.953
 114039490.481 8  88862024.951 7  21700993.484                    21701003.141
 124983295.867 7  97389631.191 6  23783531.195                    23783539.086
 115223554.663 7  89784678.859 7  21926316.125                    21926323.734
 120361720.390 7  93788457.83344  22904075.398                    22904083.855
 115497380.590 7  89998074.65845  21978403.422                    21978408.266
 128847709.849 6 100400914.87843  24518889.586                    24518897.117
 115940029.372 7  90342935.527 7  22062655.156                    22062661.855
 108784713.528 8  84767430.695 8  20701027.594                    20701034.477
 11  8 20  2 38 30.0000000  0 10G21G30G25G15G29G26G02G10G12G05
 132264488.289 6 103063294.82142  25169100.813                    25169109.633
 115166341.877 7  89740066.39945  21915426.039                    21915433.965
 114064679.810 8  88881652.999 7  21705786.586                    21705796.273
 124886972.265 7  97314573.937 6  23765200.789                    23765208.902
 115147282.038 7  89725245.679 7  21911802.508                    21911809.625
 120273646.144 7  93719828.61744  22887314.961                    22887323.516
 115539460.402 7  90030864.14145  21986411.359                    21986416.023
 128956652.256 6 100485805.11143  24539620.672                    24539627.969
 116018503.551 7  90404084.238 7  22077587.250                    22077594.613
 108832297.659 8  84804509.250 8  20710082.563                    20710088.785
 11  8 20  2 39  0.0000000  0 10G21G30G25G15G29G26G02G10G12G05
 132208324.356 6 103019530.78242  25158412.805                    25158421.934
 115208102.423 8  89772607.08045  21923372.883                    21923381.223
 114090399.599 8  88901694.406 7  21710680.906                    21710690.148
 124790642.128 7  97239511.600 6  23746870.508                    23746877.703
 115071176.247 7  89665942.514 7  21897319.797                    21897326.621
 120185798.194 7  93651375.73844  22870598.820                    22870607.266
 115581624.959 8  90063719.66545  21994434.547                    21994439.336
 129065638.448 6 100570729.43543  24560359.898                    24560367.355
 116097284.620 8  90465472.078 7  22092579.172                    22092586.766
 108880310.070 8  84841921.523 8  20719219.078                    20719225.734
 11  8 20  2 39 30.0000000  0 10G21G30G25G15G29G26G02G10G12G05
 132152169.008 6 102975773.42342  25147726.922                    25147735.961
 115250352.435 7  89805529.17245  21931412.844                    21931420.832
 114116648.061 8  88922147.754 7  21715675.719                    21715685.480
 124694308.119 7  97164446.261 6  23728538.531                    23728546.590
 114995239.455 7  89606771.017 7  21882869.602                    21882876.645
 120098180.206 7  93583102.05044  22853925.383                    22853933.449
 115623873.595 7  90096640.69845  22002473.891                    22002478.918
 129174666.016 6 100655685.97843  24581107.117                    24581114.883
 116176369.349 8  90527096.542 7  22107628.320                    22107635.527
 108928748.168 8  84879665.504 8  20728436.672                    20728443.230
 11  8 20  2 40  0.0000000  0  9G21G30G25G15G29G26G02G12G05
 132096023.153 6 102932023.50842  25137043.469                    25137052.074
 115293091.130 7  89838832.05445  21939546.008                    21939553.613
 114143425.140 8  88943013.026 7  21720771.586                    21720780.664
 124597974.387 7  97089381.115 6  23710206.406                    23710214.465
 114919475.481 7  89547734.206 7  21868451.750                    21868459.457
 120010797.214 7  93515011.48344  22837297.078                    22837304.922
 115666208.255 7  90129628.76245  22010530.172                    22010535.238
 116255756.282 8  90588956.481 7  22122735.563                    22122742.590
 108977611.852 8  84917741.119 8  20737735.078                    20737741.809
 11  8 20  2 40 30.0000000  0  9G21G30G25G15G29G26G02G12G05
 132039884.678 6 102888279.33742  25126360.375                    25126369.137
 115336314.498 8  89872512.58845  21947771.289                    21947778.543
 114170727.647 8  88964287.711 7  21725966.789                    21725976.262
 124501642.642 7  97014317.524 6  23691875.438                    23691883.055
 114843884.911 8  89488832.504 7  21854067.406                    21854074.613
 119923651.328 7  93447105.65944  22820713.625                    22820721.621
 115708627.528 7  90162682.77445  22018602.328                    22018607.289
 116335440.989 8  90651048.451 7  22137898.992                    22137906.273
 109026897.084 8  84956145.199 8  20747114.008                    20747120.223
 11  8 20  2 41  0.0000000  0  9G21G30G25G15G29G26G02G12G05
 131983753.167 6 102844540.53942  25115678.898                    25115687.316
 115380020.112 8  89906568.90945  21956087.789                    21956096.020
 114198553.870 8  88985970.475 7  21731262.484                    21731271.734
 124405315.493 7  96939257.515 6  23673544.781                    23673552.957
 114768469.919 7  89430067.614 7  21839716.477                    21839723.988
 119836746.268 7  93379387.49744  22804175.953                    22804184.285
 115751131.417 7  90195802.70545  22026690.375                    22026695.512
 116415420.503 8  90713370.156 7  22153118.648                    22153125.500
 109076601.212 8  84994875.702 8  20756572.352                    20756578.531
 11  8 20  2 41 30.0000000  0  9G21G30G25G15G29G26G02G12G05
 131927627.775 6 102800806.60142  25104998.133                    25105006.406
 115424205.611 8  89940999.16745  21964496.633                    21964504.184
 114226902.218 8  89008060.115 7  21736656.547                    21736666.129
 124308995.937 7  96864203.433 6  23655215.539                    23655223.988
 114693232.753 8  89371441.302 7  21825399.344                    21825406.672
 119750085.988 7  93311860.07344  22787685.336                    22787693.047
 115793720.116 7  90228988.73045  22034794.633                    22034799.477
 116495691.523 8  90775919.004 7  22168393.242                    22168400.523
 109126722.353 8  85033931.139 7  20766109.773                    20766116.309
 11  8 20  2 42  0.0000000  0  9G21G30G25G15G29G26G02G12G05
 131871508.099 6 102757077.00442  25094318.188                    25094328.121
 115468868.972 8  89975801.77045  21972995.297                    21973003.422
 114255771.294 8  89030555.492 7  21742150.430                    21742159.969
 124212687.383 6  96789157.917 6  23636888.781                    23636896.859
 114618175.935 8  89312955.510 7  21811116.492                    21811123.805
 119663674.128 7  93244526.21244  22771241.672                    22771248.992
 115836394.013 7  90262241.11745  22042915.508                    22042919.828
 116576251.590 8  90838693.081 7  22183724.195                    22183730.672
 109177258.336 8  85073309.833 8  20775726.156                    20775733.035
 11  8 20  2 42 30.0000000  0  9G21G30G25G15G29G26G02G12G05
 131815393.447 6 102713351.33142  25083640.477                    25083649.031
 115514007.452 8  90010974.60745  21981584.781                    21981593.270
 114285159.173 8  89053455.151 7  21747742.445                    21747752.211
 124116392.234 6  96714122.845 6  23618563.703                    23618572.051
 114543301.612 8  89254611.930 7  21796868.492                    21796875.246
 119577514.314 7  93177388.75544  22754845.773                    22754853.570
 115879153.226 7  90295560.00045  22051052.141                    22051057.254
 116657097.412 8  90901689.838 7  22199108.094                    22199115.227
 109228206.769 8  85113009.923 8  20785421.688                    20785427.867
 11  8 20  2 43  0.0000000  0  9G21G30G25G15G29G26G02G12G05
 131759283.413 6 102669629.34743  25072962.898                    25072972.023
 115559618.659 7  90046515.80345  21990264.367                    21990272.367
 114315064.234 8  89076757.796 7  21753433.258                    21753443.160
 124020113.599 6  96639100.616 6  23600242.375                    23600250.676
 114468611.998 8  89196412.266 7  21782655.758                    21782662.328
 119491610.167 7  93110450.50944  22738498.875                    22738506.242
 115921998.009 7  90328945.55745  22059205.125                    22059209.844
 116738226.363 7  90964907.189 7  22214546.664                    22214553.434
 109279565.301 8  85153029.557 8  20795194.859                    20795201.070
 11  8 20  2 43 30.0000000  0  9G21G30G25G15G29G26G02G12G05
 131703177.226 6 102625910.31943  25062286.195                    25062294.820
 115605699.785 8  90082423.17145  21999033.461                    21999041.473
 114345484.333 8  89100461.766 7  21759221.961                    21759231.676
 123923854.142 6  96564093.329 6  23581924.813                    23581933.047
 114394108.884 8  89138357.936 7  21768477.984                    21768485.422
 119405965.207 7  93043714.23644  22722201.070                    22722208.543
 115964928.314 7  90362397.74845  22067374.672                    22067379.469
 116819634.933 8  91028342.444 7  22230038.586                    22230045.348
 109331331.375 8  85193366.765 8  20805045.586                    20805051.805
 11  8 20  2 44  0.0000000  0  9G21G30G25G15G29G26G02G12G05
 131647074.016 6 102582193.63643  25051610.508                    25051618.266
 115652248.626 7  90118694.98345  22007891.281                    22007899.418
 114376417.970 8  89124565.912 7  21765108.328                    21765118.289
 123827617.108 7  96489103.508 6  23563612.008                    23563619.992
 114319795.223 7  89080451.230 7  21754336.359                    21754343.598
 119320583.290 7  92977182.93444  22705953.078                    22705961.301
 116007944.434 7  90395916.80445  22075560.313                    22075565.105
 116901320.244 7  91091993.332 7  22245581.961                    22245589.367
 109383502.976 8  85234019.981 7  20814973.273                    20814979.816
 11  8 20  2 44 30.0000000  0  9G21G30G25G15G29G26G02G12G05
 131590974.042 6 102538479.48643  25040933.984                    25040942.848
 115699262.879 8  90155329.46145  22016838.016                    22016845.617
 114407863.612 8  89149069.000 7  21771092.609                    21771102.246
 123731405.303 7  96414133.345 6  23545303.359                    23545311.434
 114245672.815 8  89022693.565 7  21740231.203                    21740238.418
 119235468.297 7  92910859.60644  22689755.992                    22689764.301
 116051046.726 7  90429503.00945  22083762.141                    22083767.203
 116983279.481 7  91155857.672 7  22261178.492                    22261185.938
 109436078.081 8  85274987.597 7  20824978.117                    20824984.359
 11  8 20  2 45  0.0000000  0  9G21G30G25G15G29G26G02G12G05
 131534876.247 6 102494766.99643  25030259.125                    25030268.066
 115746739.643 8  90192324.35045  22025872.750                    22025879.902
 114439819.015 8  89173969.340 7  21777173.070                    21777182.309
 123635221.700 7  96339185.151 6  23527000.359                    23527008.219
 114171743.828 8  88965086.590 7  21726163.367                    21726170.262
 119150623.514 7  92844746.84244  22673611.008                    22673618.770
 116094234.825 7  90463156.06545  22091980.789                    22091985.520
 117065509.486 7  91219932.972 7  22276826.336                    22276833.387
 109489053.912 8  85316267.476 8  20835059.117                    20835065.305
 11  8 20  2 45 30.0000000  0  9G21G30G25G15G29G26G02G12G05
 131478780.042 6 102451055.78943  25019584.859                    25019593.359
 115794676.618 7  90229677.85045  22034994.570                    22035002.586
 114472282.619 8  89199265.657 7  21783350.648                    21783360.535
 123539069.167 7  96264261.167 6  23508703.148                    23508710.578
 114098010.838 7  88907632.359 7  21712132.109                    21712139.422
 119066052.911 7  92778847.71745  22657517.313                    22657525.758
 116137509.346 7  90496876.47245  22100215.906                    22100220.699
 117148007.427 7  91284217.092 7  22292525.344                    22292532.281
 109542428.368 8  85357857.976 8  20845215.992                    20845222.504
 11  8 20  2 46  0.0000000  0  9G21G30G25G15G29G26G02G12G05
 131422684.683 6 102407345.27043  25008910.063                    25008918.570
 115843071.040 8  90267387.79945  22044203.734                    22044211.254
 114505252.328 8  89224956.345 7  21789624.953                    21789634.875
 123442950.623 7  96189363.667 6  23490412.320                    23490419.340
 114024476.025 8  88850332.527 7  21698138.617                    21698145.762
 118981759.877 7  92713164.87845  22641477.195                    22641484.949
 116180870.610 8  90530664.46245  22108467.570                    22108472.074
 117230769.978 7  91348707.371 7  22308274.109                    22308281.473
 109596198.848 8  85399757.056 7  20855447.898                    20855454.395
 11  8 20  2 46 30.0000000  0  9G21G30G25G15G29G26G02G12G05
 131366589.659 6 102363634.97343  24998235.359                    24998243.332
 115891920.324 8  90305452.19445  22053499.570                    22053507.266
 114538726.282 8  89251039.955 7  21795994.563                    21796004.535
 123346869.182 7  96114495.073 6  23472128.289                    23472135.820
 113951141.399 8  88793188.692 7  21684183.781                    21684190.852
 118897748.185 7  92647701.27045  22625490.586                    22625497.906
 116224318.553 7  90564519.99845  22116734.844                    22116739.492
 117313794.199 7  91413401.561 7  22324073.508                    22324081.031
 109650362.716 8  85441962.680 7  20865755.133                    20865761.602
 11  8 20  2 47  0.0000000  0  9G21G30G25G15G29G26G02G12G05
 131310494.716 6 102319924.78443  24987560.891                    24987568.758
 115941222.229 8  90343869.26945  22062881.352                    22062889.352
 114572702.933 8  89277515.270 7  21802459.930                    21802470.102
 123250827.855 7  96039657.765 6  23453852.164                    23453860.195
 113878009.767 8  88736203.039 7  21670267.398                    21670274.500
 118814021.864 7  92582460.00944  22609557.141                    22609565.625
 116267853.644 7  90598443.42445  22125019.758                    22125024.367
 117397077.362 7  91478297.510 7  22339921.656                    22339929.039
 109704918.780 8  85484473.920 7  20876136.930                    20876143.434
 11  8 20  2 47 30.0000000  0  9G21G30G25G15G29G26G02G12G05
 131254399.013 6 102276213.94343  24976885.555                    24976894.266
 115990973.795 7  90382636.73345  22072348.797                    22072356.395
 114607180.046 8  89304380.546 7  21809020.719                    21809030.410
 123154829.407 7  95964853.846 6  23435585.086                    23435591.848
 113805083.174 8  88679377.156 7  21656389.906                    21656396.906
 118730584.322 7  92517443.78745  22593679.938                    22593688.012
 116311476.014 7  90632434.86945  22133320.813                    22133325.316
 117480616.190 7  91543392.683 7  22355818.672                    22355825.402
 109759863.962 8  85527288.356 8  20886592.461                    20886598.832
 11  8 20  2 48  0.0000000  0  9G21G30G25G15G29G26G02G12G05
 131198302.139 6 102232502.23743  24966210.203                    24966219.320
 116041172.716 7  90421752.78545  22081901.438                    22081908.926
 114642155.880 8  89331634.453 7  21815676.453                    21815686.105
 123058877.065 6  95890085.872 6  23417325.148                    23417332.473
 113732364.139 8  88622713.005 7  21642551.805                    21642558.895
 118647439.156 7  92452655.38745  22577857.398                    22577865.703
 116355186.158 7  90666494.70645  22141638.102                    22141643.094
 117564407.918 7  91608684.906 7  22371763.828                    22371770.582
 109815196.229 8  85570404.425 7  20897121.930                    20897128.348
 11  8 20  2 48 30.0000000  0  9G21G30G25G15G29G26G02G12G05
 131142203.377 6 102188788.99943  24955535.336                    24955543.867
 116091816.032 7  90461215.11645  22091538.398                    22091545.648
 114677628.276 8  89359275.286 7  21822426.641                    21822436.461
 122962973.528 6  95815355.939 6  23399074.461                    23399082.738
 113659854.679 8  88566212.163 7  21628753.672                    21628760.824
 118564590.207 7  92388097.82845  22562092.055                    22562099.820
 116398983.642 7  90700622.60545  22149972.258                    22149977.043
 117648449.085 7  91674171.510 7  22387756.570                    22387763.371
 109870912.588 8  85613819.777 7  20907724.133                    20907730.703
 11  8 20  2 49  0.0000000  0  9G21G30G25G15G29G26G02G12G05
 131086102.034 6 102145073.78243  24944860.031                    24944867.688
 116142901.150 7  90501021.71545  22101259.313                    22101266.918
 114713595.273 8  89387301.513 7  21829270.922                    21829280.699
 122867122.150 6  95740666.653 6  23380835.102                    23380843.047
 113587557.021 8  88509876.365 7  21614995.961                    21615002.980
 118482041.060 7  92323773.85845  22546383.516                    22546391.047
 116442869.081 7  90734819.04345  22158324.125                    22158328.879
 117732736.850 7  91739850.278 7  22403795.734                    22403802.730
 109927010.681 8  85657532.584 7  20918399.422                    20918405.840
 11  8 20  2 49 30.0000000  0  9G21G30G25G15G29G26G02G12G05
 131029997.794 6 102101356.27043  24934184.711                    24934191.516
 116194425.558 7  90541170.61745  22111064.281                    22111072.031
 114750055.004 8  89415711.705 7  21836209.242                    21836218.977
 122771325.893 6  95666020.328 6  23362605.703                    23362612.746
 113515473.862 8  88453707.714 7  21601279.211                    21601286.039
 118399795.456 7  92259686.42545  22530732.617                    22530740.605
 116486842.659 7  90769084.14845  22166691.797                    22166696.699
 117817268.248 7  91805718.906 7  22419881.273                    22419888.637
 109983488.786 8  85701541.506 7  20929146.695                    20929153.340
 11  8 20  2 50  0.0000000  0  9G21G30G25G15G29G26G02G12G05
 130973889.913 6 102057635.94543  24923506.617                    24923514.621
 116246386.441 7  90581659.62345  22120951.750                    22120959.520
 114787005.284 8  89444504.120 7  21843240.406                    21843250.520
 122675587.361 6  95591418.966 6  23344387.219                    23344394.855
 113443607.152 8  88397707.719 7  21587603.023                    21587609.742
 118317856.824 7  92195838.20145  22515139.961                    22515147.652
 116530904.674 8  90803418.17145  22175076.414                    22175081.590
 117902040.172 7  91871774.941 7  22436013.172                    22436020.023
 110040344.252 8  85745844.480 7  20939966.344                    20939972.320
 11  8 20  2 50 30.0000000  0  9G21G30G25G15G29G26G02G12G05
 130917777.964 6 102013912.41543  24912828.586                    24912836.965
 116298781.166 7  90622486.68445  22130922.227                    22130929.586
 114824444.187 8  89473677.283 7  21850364.859                    21850374.289
 122579909.847 7  95516865.152 6  23326180.422                    23326187.645
 113371959.138 8  88341878.129 7  21573968.844                    21573975.703
 118236229.065 7  92132232.21345  22499606.727                    22499614.695
 116575055.460 8  90837821.38445  22183478.039                    22183482.863
 117987049.446 7  91938015.922 7  22452189.523                    22452196.691
 110097574.503 8  85790439.487 7  20950856.539                    20950862.961
 11  8 20  2 51  0.0000000  0  9G21G30G25G15G29G26G02G12G05
 130861661.287 6 101970185.23443  24902150.211                    24902157.984
 116351606.908 7  90663649.62045  22140974.992                    22140982.426
 114862369.529 8  89503229.498 7  21857581.859                    21857591.773
 122484296.209 7  95442361.118 6  23307985.555                    23307993.434
 113300532.242 8  88286220.840 7  21560376.836                    21560383.777
 118154915.815 7  92068871.29345  22484133.563                    22484141.410
 116619295.129 7  90872293.85745  22191896.641                    22191901.191
 118072293.157 7  92004439.586 7  22468410.867                    22468418.289
 110155177.110 8  85835324.640 7  20961818.250                    20961824.707
 11  8 20  2 51 30.0000000  0  9G21G30G25G15G29G26G02G12G05
 130805539.289 6 101926453.87043  24891470.125                    24891478.395
 116404860.868 7  90705146.20645  22151108.914                    22151116.465
 114900779.154 8  89533159.066 7  21864890.797                    21864900.840
 122388749.417 7  95367909.146 6  23289803.117                    23289811.090
 113229328.650 8  88230737.562 7  21546826.938                    21546834.230
 118073920.165 7  92005757.86045  22468720.242                    22468728.133
 116663624.007 8  90906835.82945  22200331.859                    22200336.742
 118157767.843 7  92071043.233 7  22484676.320                    22484683.211
 110213149.616 8  85880498.013 7  20972849.648                    20972856.473
 11  8 20  2 52  0.0000000  0  9G21G30G25G15G29G26G02G12G05
 130749411.503 5 101882718.06042  24880788.523                    24880797.234
 116458540.356 7  90746974.37645  22161323.500                    22161331.016
 114939670.976 8  89563464.360 7  21872291.703                    21872301.480
 122293272.591 7  95293511.712 6  23271634.719                    23271642.375
 113158350.829 8  88175430.207 7  21533320.563                    21533327.340
 117993246.361 7  91942895.20345  22453368.859                    22453376.590
 116708041.992 8  90941447.24245  22208784.602                    22208789.461
 118243470.795 7  92137824.754 7  22500984.750                    22500992.109
 110271489.784 8  85925957.886 7  20983951.672                    20983958.035
 11  8 20  2 52 30.0000000  0  9G21G30G25G15G29G26G02G12G05
 130693277.553 6 101838977.43443  24870108.039                    24870116.090
 116512642.734 7  90789132.07745  22171618.664                    22171626.555
 114979043.067 8  89594143.901 7  21879783.805                    21879793.457
 122197868.670 7  95219171.085 6  23253479.586                    23253488.102
 113087601.134 8  88120300.608 7  21519856.750                    21519864.176
 117912897.765 7  91880285.97145  22438079.117                    22438086.539
 116752549.655 8  90976128.53945  22217254.273                    22217259.168
 118329399.034 7  92204781.823 7  22517337.016                    22517343.793
 110330195.295 8  85971702.450 7  20995123.086                    20995129.840
 11  8 20  2 53  0.0000000  0  9G21G30G25G15G29G26G02G12G05
 130637136.502 6 101795231.23243  24859423.352                    24859432.094
 116567165.058 7  90831616.98445  22181993.898                    22182001.973
 115018893.103 8  89625195.855 7  21887366.961                    21887376.934
 122102540.651 7  95144889.601 6  23235340.102                    23235347.520
 113017082.053 8  88065350.712 7  21506437.813                    21506444.926
 117832878.114 7  91817933.04745  22422851.609                    22422859.375
 116797147.330 8  91010879.97245  22225740.414                    22225745.344
 118415549.261 7  92271911.860 7  22533730.195                    22533737.832
 110389263.481 8  86017729.612 8  21006363.258                    21006369.652
 11  8 20  2 53 30.0000000  0  9G21G30G25G15G29G26G02G12G05
 130580988.156 6 101751479.45042  24848738.180                    24848747.234
 116622104.857 7  90874427.21645  22192448.469                    22192456.449
 115059219.022 8  89656618.634 7  21895040.961                    21895050.441
 122007291.567 7  95070669.606 6  23217214.102                    23217221.629
 112946795.730 8  88010582.174 7  21493062.594                    21493069.707
 117753191.122 7  91755839.33545  22407687.734                    22407695.125
 116841835.303 7  91045701.76845  22234244.734                    22234249.672
 118501918.427 7  92339212.501 7  22550165.844                    22550172.961
 110448692.053 8  86064037.587 7  21017671.859                    21017678.645
 11  8 20  2 54  0.0000000  0  9G21G30G25G15G29G26G02G12G05
 130524831.715 6 101707721.33343  24838053.039                    24838060.629
 116677459.055 7  90917560.34045  22202982.250                    22202989.750
 115100018.631 8  89688410.529 7  21902805.164                    21902814.637
 121912124.713 7  94996513.691 6  23199104.281                    23199112.336
 112876744.268 8  87955996.650 7  21479732.539                    21479739.445
 117673840.415 7  91694007.67344  22392587.547                    22392595.520
 116886613.698 7  91080594.02445  22242765.867                    22242770.375
 118588503.507 7  92406681.391 7  22566642.742                    22566650.203
 110508478.613 8  86110624.517 7  21029049.398                    21029055.434
 11  8 20  2 54 30.0000000  0  9G21G30G25G15G29G26G02G12G05
 130468666.738 6 101663956.60043  24827365.484                    24827373.277
 116733224.879 7  90961014.21945  22213594.414                    22213602.148
 115141289.665 8  89720569.761 7  21910658.695                    21910668.395
 121817042.860 7  94922424.005 6  23181011.328                    23181018.750
 112806930.267 8  87901596.160 7  21466447.281                    21466454.004
 117594829.365 7  91632440.68145  22377551.805                    22377560.027
 116931482.935 7  91115557.06745  22251304.289                    22251308.750
 118675301.608 7  92474316.261 7  22583159.945                    22583167.227
 110568620.562 8  86157488.369 7  21040493.813                    21040500.543
 11  8 20  2 55  0.0000000  0  9G21G30G25G15G29G26G02G12G05
 130412492.586 6 101620184.70143  24816675.977                    24816683.648
 116789399.544 7  91004786.67745  22224283.984                    22224291.785
 115183029.985 8  89753094.675 7  21918601.805                    21918611.063
 121722049.111 7  94848402.969 6  23162934.461                    23162941.699
 112737356.218 8  87847382.643 7  21453208.172                    21453214.598
 117516161.891 7  91571141.40545  22362581.969                    22362590.117
 116976443.155 7  91150591.00145  22259859.625                    22259864.590
 118762309.612 7  92542114.709 7  22599716.938                    22599724.020
 110629115.390 8  86204627.192 7  21052005.664                    21052012.152
 11  8 20  2 55 30.0000000  0  9G21G30G25G15G29G26G02G12G05
 130356308.973 6 101576405.43343  24805984.516                    24805991.574
 116845980.280 7  91048875.54645  22235051.016                    22235058.965
 115225237.380 8  89785983.546 7  21926633.422                    21926642.945
 121627146.583 7  94774453.015 6  23144874.289                    23144882.160
 112668024.385 8  87793357.861 7  21440014.242                    21440021.379
 117437841.571 7  91510112.63845  22347677.969                    22347686.082
 117021494.813 7  91185696.19845  22268432.422                    22268437.391
 118849524.273 7  92610074.186 7  22616313.273                    22616320.504
 110689960.988 8  86252039.344 7  21063584.094                    21063590.859
 11  8 20  2 56  0.0000000  0  9G21G30G25G15G29G26G02G12G05
 130300114.937 6 101532618.04543  24795289.688                    24795298.320
 116902964.020 7  91093278.45045  22245894.813                    22245902.293
 115267909.398 8  89819234.462 7  21934753.914                    21934763.145
 121532338.362 7  94700576.539 6  23126833.656                    23126840.742
 112598936.667 8  87739523.304 7  21426867.531                    21426874.211
 117359871.784 7  91449357.00945  22332841.203                    22332849.219
 117066638.073 7  91220872.77845  22277023.070                    22277027.910
 118936942.685 7  92678192.427 7  22632948.477                    22632955.938
 110751154.668 8  86299722.734 7  21075228.891                    21075235.484
 11  8 20  2 56 30.0000000  0  9G21G30G25G15G29G26G02G12G05
 130243910.175 6 101488822.32643  24784594.781                    24784603.035
 116960348.246 7  91137993.40845  22256814.484                    22256822.453
 115311044.101 8  89852845.887 7  21942962.047                    21942971.348
 121437627.481 7  94626775.933 6  23108810.227                    23108818.305
 112530095.836 8  87685881.122 7  21413767.195                    21413774.570
 117282256.340 7  91388877.50245  22318071.195                    22318078.773
 117111873.410 7  91256121.08545  22285631.328                    22285635.922
 119024561.539 7  92746466.864 7  22649621.695                    22649628.723
 110812694.095 8  86347675.531 7  21086939.438                    21086945.875
 11  8 20  2 57  0.0000000  0  9G21G30G25G15G29G26G02G12G05
 130187694.395 6 101445017.95543  24773898.000                    24773904.734
 117018130.032 7  91183018.15545  22267810.281                    22267818.309
 115354639.126 8  89886816.017 7  21951257.805                    21951266.969
 121343017.039 7  94553053.577 6  23090806.734                    23090813.941
 112461504.141 8  87632433.074 7  21400715.141                    21400721.730
 117204998.964 7  91328677.00245  22303369.734                    22303377.477
 117157201.079 7  91291441.35745  22294256.656                    22294261.609
 119112378.023 7  92814895.290 7  22666332.422                    22666340.109
 110874577.169 8  86395896.115 7  21098715.219                    21098721.914
 11  8 20  2 57 30.0000000  0  9G21G30G25G15G29G26G02G12G05
 130131466.693 6 101401204.32743  24763197.211                    24763204.781
 117076306.335 8  91228350.32645  22278880.516                    22278888.531
 115398691.984 8  89921142.919 7  21959640.945                    21959650.371
 121248509.908 7  94479411.725 6  23072822.383                    23072830.344
 112393164.007 8  87579181.046 7  21387710.156                    21387717.082
 117128102.988 7  91268758.11545  22288736.578                    22288744.992
 117202621.232 7  91326833.67245  22302899.992                    22302904.590
 119200388.879 7  92883475.179 7  22683080.203                    22683088.191
 110936800.905 8  86444382.151 7  21110556.055                    21110562.750
 11  8 20  2 58  0.0000000  0  9G21G30G25G15G29G26G02G12G05
 130075226.801 6 101357381.17543  24752495.328                    24752502.922
 117134874.363 7  91273987.72745  22290025.891                    22290033.410
 115443200.575 8  89955824.924 7  21968110.539                    21968119.785
 121154109.449 7  94405852.986 6  23054858.727                    23054866.148
 112325078.140 8  87526127.139 7  21374753.758                    21374760.504
 117051572.073 7  91209123.69545  22274173.664                    22274180.949
 117248134.264 7  91362298.36845  22311560.836                    22311565.199
 119288591.145 7  92952204.222 7  22699865.125                    22699871.938
 110999363.269 8  86493132.041 7  21122461.141                    21122467.898
 11  8 20  2 58 30.0000000  0  9G21G30G25G15G29G26G02G12G05
 130018974.090 7 101313548.02343  24741789.797                    24741797.008
 117193831.359 7  91319928.23445  22301244.336                    22301252.383
 115488162.639 8  89990860.286 7  21976666.750                    21976676.316
 121059818.531 7  94332379.607 6  23036915.742                    23036923.367
 112257248.533 8  87473272.934 7  21361846.117                    21361852.973
 116975410.003 7  91149776.67645  22259680.422                    22259688.227
 117293740.869 7  91397835.96845  22320238.703                    22320244.742
 119376981.767 7  93021080.035 7  22716684.773                    22716692.145
 111062261.683 8  86542143.801 7  21134430.453                    21134436.973
 11  8 20  2 59  0.0000000  0  9G21G30G25G15G29G26G02G12G05
 129962707.745 7 101269704.26343  24731083.047                    24731090.379
 117253174.000 7  91366169.22245  22312537.664                    22312545.309
 115533575.348 8  90026246.812 7  21985308.141                    21985317.801
 120965640.127 7  94258993.903 7  23018993.875                    23019001.469
 112189677.176 8  87420619.960 7  21348987.719                    21348994.480
 116899620.012 7  91090719.58645  22245257.953                    22245265.375
 117339441.000 7  91433446.45945  22328936.031                    22328940.828
 119465557.528 7  93090100.102 7  22733540.344                    22733547.840
 111125493.186 8  86591415.101 7  21146463.289                    21146469.672
 11  8 20  2 59 30.0000000  0  9G21G30G25G15G29G26G02G12G05
 129906427.297 6 101225849.48243  24720373.289                    24720380.773
 117312899.494 7  91412708.55445  22323902.680                    22323910.551
 115579436.525 8  90061982.776 7  21994035.695                    21994045.359
 120871577.427 7  94185698.353 6  23001094.328                    23001101.652
 112122366.788 8  87368170.330 7  21336178.742                    21336185.777
 116824205.460 7  91031955.05245  22230907.094                    22230914.688
 117385235.022 7  91469130.09745  22337650.414                    22337654.859
 119554315.111 7  93159261.862 6  22750430.164                    22750437.703
 111189055.759 8  86640944.388 7  21158558.648                    21158565.176
 11  8 20  3  0  0.0000000  0 10G21G30G25G15G29G26G02G18G12G05
 129850132.791 6 101181983.74343  24709660.500                    24709667.602
 117373005.347 7  91459544.27445  22335341.516                    22335348.141
 115625744.210 8  90098066.680 7  22002847.711                    22002857.270
 120777633.757 7  94112495.558 7  22983217.328                    22983224.988
 112055320.120 8  87315926.209 7  21323420.383                    21323427.438
 116749170.747 7  90973486.50245  22216628.125                    22216635.984
 117431123.482 7  91504887.32645  22346382.484                    22346387.422
 129796444.48316                  24699447.219
 119643252.133 7  93228563.450 6  22767354.563                    22767361.434
 111252947.298 8  86690730.011 7  21170716.703                    21170723.223
 11  8 20  3  0 30.0000000  0 10G21G30G25G15G29G26G02G18G12G05
 129793822.882 6 101138105.99443  24698945.031                    24698952.379
 117433487.917 7  91506673.54545  22346850.359                    22346857.676
 115672495.331 8  90134496.127 7  22011743.609                    22011753.457
 120683811.676 7  94039387.501 7  22965364.375                    22965371.125
 111988538.810 8  87263888.861 7  21310712.430                    21310719.422
 116674518.521 7  90915315.97645  22202422.578                    22202430.250
 117477106.095 7  91540717.92545  22355133.008                    22355137.863
 129706683.107 6 101070191.54852  24682365.930                    24682374.285
 119732364.850 7  93298001.926 6  22784312.250                    22784319.313
 111317164.582 8  86740769.464 7  21182937.094                    21182943.555
 11  8 20  3  1  0.0000000  0 10G21G30G25G15G29G26G02G18G12G05
 129737496.665 6 101094215.54943  24688226.242                    24688233.223
 117494343.689 7  91554093.61745  22358430.563                    22358438.313
 115719686.840 8  90171268.729 7  22020724.172                    22020733.617
 120590113.775 7  93966376.206 7  22947534.102                    22947541.340
 111922024.662 8  87212059.691 7  21298054.734                    21298061.668
 116600251.793 7  90857445.84745  22188289.852                    22188297.148
 117523182.915 7  91576621.93545  22363900.852                    22363905.453
 129617083.682 5 101000373.93842  24665314.398                    24665323.836
 119821649.198 7  93367574.152 6  22801302.523                    22801309.777
 111381704.420 8  86791060.255 7  21195218.281                    21195224.801
 11  8 20  3  1 30.0000000  0 10G21G30G25G15G29G26G02G18G12G05
 129681154.891 6 101050312.97843  24677505.063                    24677512.043
 117555570.955 7  91601803.16945  22370081.828                    22370089.301
 115767317.650 7  90208383.642 7  22029787.875                    22029797.418
 120496544.162 7  93893464.877 6  22929727.367                    22929735.063
 111855781.299 8  87160441.529 7  21285449.086                    21285456.250
 116526375.286 7  90799879.78845  22174231.914                    22174239.168
 117569355.119 7  91612600.26845  22372687.305                    22372692.129
 129527648.077 5 100930684.05342  24648296.367                    24648304.816
 119911103.841 7  93437279.079 7  22818324.797                    22818332.313
 111446565.866 8  86841601.654 7  21207561.078                    21207567.543
 11  8 20  3  2  0.0000000  0 10G21G30G25G15G29G26G02G18G12G05
 129624796.819 6 101006397.68743  24666780.070                    24666787.406
 117617166.725 7  91649799.86945  22381802.773                    22381810.711
 115815385.181 8  90245838.854 7  22038934.867                    22038944.605
 120403106.167 7  93820656.091 7  22911947.023                    22911954.699
 111789811.015 8  87109036.155 7  21272895.320                    21272902.563
 116452892.598 7  90742620.58845  22160247.891                    22160256.098
 117615623.307 7  91648653.39945  22381491.844                    22381496.457
 129438377.843 5 100861122.96842  24631306.656                    24631317.332
 120000725.665 7  93507114.276 7  22835379.727                    22835386.859
 111511746.225 8  86892391.545 7  21219964.797                    21219971.500
 11  8 20  3  2 30.0000000  0 10G21G30G25G15G29G26G02G18G12G05
 129568421.773 6 100962469.14243  24656052.086                    24656060.277
 117679127.763 7  91698081.18145  22393593.664                    22393601.156
 115863886.751 8  90283632.284 7  22048164.391                    22048174.094
 120309802.403 7  93747951.922 7  22894191.609                    22894198.719
 111724116.006 8  87057845.276 7  21260394.219                    21260400.867
 116379806.951 7  90685670.77245  22146340.867                    22146348.379
 117661987.536 8  91684781.36745  22390314.625                    22390319.148
 129349274.156 6 100791691.54742  24614353.484                    24614361.109
 120090511.113 7  93577076.972 7  22852465.469                    22852472.660
 111577242.895 8  86943427.921 7  21232428.031                    21232434.625
 11  8 20  3  3  0.0000000  0 10G21G30G25G15G29G26G02G18G12G05
 129512029.355 6 100918527.10743  24645321.273                    24645329.137
 117741451.195 7  91746644.89545  22405453.578                    22405461.180
 115912820.064 8  90321762.134 7  22057476.133                    22057486.266
 120216636.257 7  93675354.984 6  22876463.070                    22876470.340
 111658698.796 8  87006870.862 7  21247945.750                    21247952.664
 116307121.980 7  90629033.16645  22132508.883                    22132516.641
 117708448.106 7  91720984.43845  22399155.773                    22399160.844
 129260338.358 6 100722391.09042  24597428.656                    24597436.469
 120180457.315 7  93647164.937 7  22869581.539                    22869588.727
 111643053.538 8  86994708.941 7  21244951.648                    21244958.078
 11  8 20  3  3 30.0000000  0 10G21G30G25G15G29G26G02G18G12G05
 129455618.633 6 100874570.83143  24634586.719                    24634594.066
 117804133.664 7  91795488.37945  22417381.656                    22417388.703
 115962182.235 7  90360226.161 7  22066869.469                    22066879.570
 120123610.578 7  93602867.487 6  22858760.984                    22858767.895
 111593561.449 8  86956114.526 7  21235550.531                    21235557.398
 116234840.839 7  90572710.22945  22118754.445                    22118761.836
 117755005.467 7  91757262.91245  22408015.313                    22408019.820
 129171571.504 6 100653222.28142  24580536.922                    24580545.027
 120270560.718 7  93717375.384 7  22886726.945                    22886734.980
 111709175.395 8  87046232.470 7  21257534.047                    21257540.578
 11  8 20  3  4  0.0000000  0 10G21G30G25G15G29G26G02G18G12G05
 129399189.319 6 100830600.05043  24623847.984                    24623856.000
 117867172.238 7  91844609.34744  22429377.391                    22429385.254
 116011970.821 8  90399022.455 7  22076343.836                    22076353.570
 120030728.350 7  93530491.772 6  22841085.766                    22841093.156
 111528706.205 8  86905577.996 7  21223208.727                    21223215.594
 116162967.131 7  90516704.78745  22105077.367                    22105084.684
 117801659.923 7  91793617.03745  22416893.203                    22416898.488
 129082974.993 6 100584186.18242  24563677.305                    24563684.926
 120360818.567 7  93787706.182 7  22903903.070                    22903910.297
 111775605.878 8  87097996.486 7  21270175.313                    21270181.691
 11  8 20  3  4 30.0000000  0 10G21G30G25G15G29G26G02G18G12G05
 129342741.133 6 100786614.58243  24613106.078                    24613113.594
 117930563.856 7  91894005.40845  22441440.461                    22441447.781
 116062183.286 8  90438149.048 7  22085899.305                    22085908.563
 119937992.686 7  93458230.268 6  22823438.758                    22823445.848
 111464135.693 8  86855263.343 7  21210921.414                    21210928.184
 116091504.363 7  90461019.54645  22091478.109                    22091485.719
 117848411.770 7  91830047.05345  22425789.813                    22425794.301
 128994550.113 6 100515283.88542  24546849.063                    24546858.563
 120451228.014 7  93858155.115 7  22921106.945                    22921114.258
 111842342.514 8  87149999.055 7  21282874.820                    21282881.586
 11  8 20  3  5  0.0000000  0 10G21G30G25G15G29G26G02G18G12G05
 129286273.804 6 100742614.14243  24602360.891                    24602368.422
 117994305.891 7  91943674.53145  22453570.406                    22453577.801
 116112817.403 8  90477604.206 7  22095534.375                    22095544.074
 119845407.077 7  93386085.697 6  22805820.695                    22805827.203
 111399852.516 8  86805172.584 7  21198688.563                    21198695.547
 116020456.307 7  90405657.46145  22077958.398                    22077965.410
 117895261.365 7  91866553.23445  22434704.844                    22434709.902
 128906298.275 6 100446516.38442  24530056.266                    24530064.477
 120541785.604 7  93928719.466 7  22938339.703                    22938346.922
 111909383.338 8  87202238.658 7  21295632.359                    21295639.023
 11  8 20  3  5 30.0000000  0 10G21G30G25G15G29G26G02G18G12G05
 129229786.418 6 100698598.12643  24591612.078                    24591619.273
 118058395.201 7  91993614.26445  22465765.867                    22465773.563
 116163870.574 8  90517385.906 7  22105249.789                    22105259.121
 119752974.408 7  93314060.291 6  22788230.828                    22788237.930
 111335859.101 8  86755307.612 7  21186511.242                    21186518.074
 115949826.358 7  90350621.16845  22064517.578                    22064525.281
 117942209.448 7  91903136.16745  22443638.883                    22443644.523
 128818220.872 6 100377884.78343  24513296.008                    24513303.309
 120632488.541 7  93999397.067 7  22955599.539                    22955606.961
 111976725.596 8  87254713.139 7  21308447.336                    21308453.543
 11  8 20  3  6  0.0000000  0 10G21G30G25G15G29G26G02G18G12G05
 129173278.590 6 100654566.14143  24580858.547                    24580866.094
 118122828.402 7  92043821.96245  22478027.344                    22478035.324
 116215339.911 8  90557491.890 7  22115043.711                    22115053.465
 119660697.694 7  93242156.406 6  22770671.273                    22770678.543
 111272157.296 8  86705669.859 7  21174388.992                    21174395.535
 115879617.434 7  90295912.95245  22051157.406                    22051165.102
 117989255.958 7  91939795.78845  22452590.945                    22452596.367
 128730318.774 6 100309389.76642  24496567.906                    24496576.660
 120723333.521 7  94070185.363 7  22972886.641                    22972894.637
 112044366.462 8  87307420.293 7  21321318.703                    21321325.309
 11  8 20  3  6 30.0000000  0 10G21G30G25G15G29G26G02G18G12G05
 129116749.963 6 100610517.99343  24570100.875                    24570108.816
 118187602.627 7  92094295.38445  22490353.492                    22490361.301
 116267223.010 8  90597920.284 7  22124916.547                    22124926.551
 119568580.183 7  93170376.585 7  22753142.195                    22753148.973
 111208749.535 8  86656261.227 7  21162323.078                    21162329.707
 115809833.507 7  90241535.89145  22037877.727                    22037884.902
 118036401.470 7  91976532.54345  22461562.805                    22461568.605
 128642593.246 6 100241032.36943  24479873.945                    24479882.480
 120814317.663 7  94141082.085 7  22990200.969                    22990207.949
 112112304.097 8  87360358.711 7  21334246.906                    21334253.273
 11  8 20  3  7  0.0000000  0 10G21G30G25G15G29G26G02G18G12G05
 129060199.934 6 100566453.13943  24559340.375                    24559347.441
 118252714.907 7  92145032.22745  22502744.070                    22502751.777
 116319517.362 8  90638669.128 7  22134868.086                    22134877.914
 119476625.262 7  93098723.439 7  22735643.258                    22735650.383
 111145638.620 8  86607083.907 7  21150313.391                    21150320.137
 115740477.755 7  90187492.48345  22024680.109                    22024687.457
 118083646.394 7  92013346.76945  22470553.125                    22470558.422
 128555045.744 6 100172813.73843  24463213.992                    24463222.645
 120905437.909 7  94212084.875 6  23007539.867                    23007547.566
 112180536.089 8  87413526.487 7  21347230.883                    21347237.273
 11  8 20  3  7 30.0000000  0 10G21G30G25G15G29G26G02G18G12G05
 129003628.206 6 100522371.34944  24548574.938                    24548582.039
 118318162.194 7  92196030.12245  22515198.133                    22515205.719
 116372220.319 8  90679736.373 7  22144897.352                    22144906.734
 119384835.682 7  93027199.153 7  22718176.188                    22718183.156
 111082827.007 8  86558139.810 7  21138360.602                    21138367.602
 115671554.013 7  90133785.69045  22011564.570                    22011571.910
 118130991.116 7  92050238.72945  22479563.242                    22479567.477
 128467677.627 6 100104734.83843  24446588.758                    24446596.938
 120996691.223 7  94283191.369 6  23024905.523                    23024912.289
 112249059.383 8  87466921.255 7  21360270.625                    21360277.250
 11  8 20  3  8  0.0000000  0 10G21G30G25G15G29G26G02G18G12G05
 128947034.230 7 100478272.21944  24537805.836                    24537813.109
 118383941.247 7  92247286.52445  22527715.328                    22527723.086
 116425329.179 8  90721119.915 7  22155003.422                    22155012.973
 119293214.526 7  92955806.079 7  22700741.336                    22700748.133
 111020316.477 8  86509430.329 7  21126465.414                    21126472.082
 115603065.227 7  90080417.84845  21998531.258                    21998538.238
 118178435.889 7  92087208.69545  22488591.211                    22488596.676
 128380489.699 6 100036796.33543  24429997.555                    24430005.680
 121088074.158 7  94354398.867 6  23042295.398                    23042301.754
 112317871.722 8  87520541.261 7  21373365.156                    21373371.594
 11  8 20  3  8 30.0000000  0 10G21G30G25G15G29G26G02G18G12G05
 128890417.670 7 100434155.48943  24527031.930                    24527039.449
 118450049.397 7  92298799.38445  22540295.578                    22540302.953
 116478841.635 8  90762817.939 7  22165186.406                    22165195.906
 119201765.183 7  92884546.893 7  22683338.680                    22683346.602
 110958109.926 8  86460957.704 7  21114627.766                    21114634.582
 115535015.177 7  90027391.86845  21985581.797                    21985589.133
 118225981.505 7  92124257.19445  22497639.203                    22497643.637
 128293483.508 6  99968999.47743  24413440.547                    24413448.383
 121179584.312 7  94425705.518 6  23059709.117                    23059715.801
 112386971.019 8  87574384.864 7  21386514.375                    21386520.750
 11  8 20  3  9  0.0000000  0 10G21G30G25G15G29G26G02G18G12G05
 128833777.826 7 100390020.64143  24516254.047                    24516260.539
 118516483.100 7  92350565.90145  22552937.203                    22552945.363
 116532754.675 8  90804828.105 7  22175445.641                    22175455.176
 119110490.567 7  92813423.860 7  22665969.977                    22665977.305
 110896209.497 8  86412723.624 7  21102848.469                    21102855.477
 115467406.875 7  89974710.10345  21972716.102                    21972723.516
 118273628.048 7  92161384.36145  22506705.859                    22506710.496
 128206660.157 6  99901345.07743  24396918.445                    24396926.082
 121271218.231 7  94497108.595 6  23077146.422                    23077152.973
 112456354.219 8  87628449.695 7  21399717.414                    21399724.188
 11  8 20  3  9 30.0000000  0 10G21G30G25G15G29G26G02G18G12G05
 128777114.060 6 100345867.14243  24505470.461                    24505477.707
 118583238.997 7  92402583.49945  22565640.430                    22565648.273
 116587065.245 8  90847148.028 7  22185780.570                    22185790.543
 119019393.619 7  92742439.272 7  22648634.773                    22648641.988
 110834617.061 8  86364729.530 7  21091128.039                    21091134.672
 115400243.414 7  89922374.96545  21959935.688                    21959942.680
 118321375.723 7  92198590.35645  22515792.328                    22515796.656
 128120020.541 6  99833833.86343  24380431.203                    24380439.266
 121362972.559 7  94568605.486 6  23094606.391                    23094613.742
 112526018.673 8  87682733.680 7  21412974.102                    21412980.105
 11  8 20  3 10  0.0000000  0 10G21G30G25G15G29G26G02G18G12G05
 128720426.255 6 100301694.90243  24494683.023                    24494689.766
 118650314.517 7  92454850.13945  22578404.305                    22578412.480
 116641771.285 8  90889776.116 7  22196190.977                    22196200.477
 118928477.860 7  92671595.873 7  22631333.820                    22631341.246
 110773335.654 8  86316977.798 7  21079466.531                    21079473.320
 115333528.830 7  89870389.61445  21947240.078                    21947247.324
 118369225.240 7  92235875.68445  22524897.063                    22524902.402
 128033566.236 6  99766467.02843  24363979.570                    24363987.480
 121454844.663 7  94640194.166 6  23112089.266                    23112095.883
 112595962.381 8  87737235.275 7  21426284.141                    21426290.801
 11  8 20  3 10 30.0000000  0 10G21G30G25G15G29G26G02G18G12G05
 128663713.878 7 100257503.49543  24483890.961                    24483897.914
 118717706.220 7  92507363.16045  22591228.938                    22591236.031
 116696869.767 8  90932710.001 7  22206675.672                    22206685.613
 118837745.920 7  92600895.708 7  22614068.148                    22614075.391
 110712367.345 8  86269470.041 7  21067864.250                    21067871.121
 115267266.081 7  89818756.33545  21934630.828                    21934637.988
 118417176.662 7  92273240.43545  22534021.789                    22534026.703
 127947298.136 6  99699245.31143  24347563.039                    24347570.805
 121546831.156 7  94711871.974 6  23129593.773                    23129600.648
 112666182.727 8  87791952.421 7  21439646.453                    21439653.105
 11  8 20  3 11  0.0000000  0 10G21G30G25G15G29G26G02G18G12G05
 128606976.529 6 100213292.64743  24473094.406                    24473100.996
 118785411.457 7  92560120.49345  22604112.461                    22604120.676
 116752358.448 7  90975947.928 7  22217235.141                    22217244.492
 118747201.669 7  92530341.778 7  22596838.117                    22596845.332
 110651715.225 8  86222208.665 7  21056322.633                    21056329.648
 115201458.810 7  89767477.97545  21922108.039                    21922115.215
 118465230.861 7  92310685.24844  22543166.203                    22543170.883
 127861217.856 6  99632169.91443  24331182.367                    24331190.359
 121638929.498 7  94783636.933 7  23147119.281                    23147126.168
 112736677.561 8  87846883.455 7  21453061.164                    21453067.730
 11  8 20  3 11 30.0000000  0 10G21G30G25G15G29G26G02G18G12G05
 128550213.792 6 100169062.05243  24462292.641                    24462299.195
 118853426.819 7  92613119.48745  22617054.914                    22617062.871
 116808234.383 7  91019487.616 7  22227867.641                    22227877.203
 118656847.995 7  92459936.359 7  22579644.133                    22579651.422
 110591380.988 8  86175194.990 7  21044841.742                    21044848.168
 115136110.123 7  89716556.95945  21909672.734                    21909679.719
 118513387.995 7  92348210.27644  22552330.555                    22552335.121
 127775326.396 6  99565241.67243  24314838.250                    24314845.617
 121731136.482 7  94855486.537 6  23164665.859                    23164673.191
 112807444.358 8  87902026.413 7  21466527.766                    21466533.914
 11  8 20  3 12  0.0000000  0 10G21G30G25G15G29G26G02G18G12G05
 128493424.886 6 100124811.01043  24451485.773                    24451492.668
 118921748.907 7  92666357.48845  22630056.750                    22630064.441
 116864494.521 7  91063326.681 7  22238573.523                    22238583.117
 118566687.444 7  92389681.424 6  22562488.070                    22562494.594
 110531366.699 8  86128430.623 7  21033421.094                    21033427.832
 115071223.074 7  89665995.64745  21897325.047                    21897332.344
 118561648.472 7  92385815.84744  22561513.789                    22561518.664
 127689624.911 6  99498461.45543  24298529.063                    24298537.441
 121823448.778 7  94927418.199 6  23182232.297                    23182238.945
 112878480.075 8  87957378.914 7  21480045.281                    21480051.629
 11  8 20  3 12 30.0000000  0 10G21G30G25G15G29G26G02G18G12G05
 128436609.660 6 100080539.47943  24440673.844                    24440681.734
 118990374.826 7  92719832.24145  22643115.320                    22643123.461
 116921136.368 7  91107463.178 7  22249352.008                    22249362.191
 118476723.584 7  92319579.754 7  22545367.555                    22545374.547
 110471675.211 8  86081917.794 7  21022062.156                    21022069.012
 115006801.228 7  89615796.85045  21885065.781                    21885072.809
 118610012.859 7  92423502.36744  22570717.039                    22570722.320
 127604114.223 6  99431829.92443  24282256.602                    24282265.039
 121915863.392 7  94999429.590 6  23199817.961                    23199824.941
 112949782.563 8  88012939.294 7  21493613.516                    21493620.211
 11  8 20  3 13  0.0000000  0 10G21G30G25G15G29G26G02G18G12G05
 128379768.123 6 100036247.44443  24429857.125                    24429864.836
 119059301.615 7  92773541.42845  22656232.063                    22656239.867
 116978157.366 7  91151895.111 7  22260202.906                    22260212.371
 118386959.329 7  92249633.618 7  22528285.984                    22528293.512
 110412308.801 8  86035658.264 7  21010765.195                    21010771.957
 114942848.101 7  89565963.27545  21872895.594                    21872902.941
 118658481.281 7  92461269.97144  22579940.945                    22579945.438
 127518795.605 6  99365348.01143  24266021.859                    24266028.988
 122008377.579 6  95071518.566 6  23217421.922                    23217430.066
 113021349.711 8  88068705.889 7  21507232.445                    21507238.910
 11  8 20  3 13 30.0000000  0 10G21G30G25G15G29G26G02G18G12G05
 128322899.058 6  99991933.99343  24419035.344                    24419042.664
 119128525.851 7  92827482.39744  22669404.828                    22669412.582
 117035554.514 7  91196620.153 7  22271125.281                    22271135.211
 118297398.047 7  92179845.636 7  22511243.344                    22511250.375
 110353269.813 8  85989653.876 7  20999530.367                    20999537.418
 114879366.637 7  89516497.23945  21860816.039                    21860823.223
 118707054.538 7  92499119.25945  22589183.789                    22589188.820
 127433670.325 6  99299016.77043  24249822.375                    24249830.250
 122100988.089 7  95143682.592 7  23235045.961                    23235052.961
 113093178.620 8  88124676.465 7  21520901.281                    21520906.953
 11  8 20  3 14  0.0000000  0 10G21G30G25G15G29G26G02G18G12G05
 128266002.361 6  99947599.02143  24408208.094                    24408215.113
 119198044.507 7  92881652.78645  22682633.680                    22682641.648
 117093325.094 7  91241636.188 7  22282118.703                    22282128.445
 118208042.735 7  92110218.160 7  22494239.523                    22494246.738
 110294560.375 8  85943906.288 7  20988358.438                    20988365.223
 114816360.159 7  89467401.32045  21848826.094                    21848833.445
 118755732.918 7  92537050.47545  22598447.602                    22598452.395
 127348739.525 6  99232837.11743  24233660.148                    24233668.543
 122193692.020 7  95215919.414 7  23252687.109                    23252694.449
 113165267.004 8  88180849.220 7  21534619.117                    21534625.648
 11  8 20  3 14 30.0000000  0 10G21G30G25G15G29G26G02G18G12G05
 128209077.543 6  99903242.18343  24397376.305                    24397382.730
 119267854.305 7  92936050.03645  22695918.383                    22695926.316
 117151466.233 7  91286940.957 7  22293182.453                    22293192.258
 118118896.581 7  92040753.662 7  22477276.117                    22477282.754
 110236183.361 8  85898417.715 7  20977249.648                    20977256.246
 114753831.780 7  89418677.94745  21836926.734                    21836934.496
 118804516.747 7  92575063.83245  22607730.805                    22607735.473
 127264004.207 6  99166809.78643  24217536.000                    24217543.793
 122286486.255 7  95288226.619 6  23270345.289                    23270352.109
 113237612.206 8  88237222.100 7  21548385.938                    21548392.297
 11  8 20  3 15  0.0000000  0 10G21G30G25G15G29G26G02G18G12G05
 128152124.636 6  99858863.40643  24386538.195                    24386545.043
 119337952.357 7  92990671.90744  22709257.680                    22709264.719
 117209975.443 7  91332532.555 7  22304316.305                    22304326.262
 118029962.993 7  91971454.808 7  22460351.969                    22460359.105
 110178141.028 7  85853189.941 7  20966204.500                    20966211.098
 114691785.102 7  89370329.91945  21825120.047                    21825127.230
 118853406.509 7  92613159.73245  22617034.211                    22617039.582
 127179465.877 6  99100935.88843  24201448.602                    24201456.074
 122379367.672 7  95360601.764 6  23288020.313                    23288027.242
 113310212.179 8  88293793.507 7  21562201.563                    21562207.684
 11  8 20  3 15 30.0000000  0 10G21G30G25G15G29G26G02G18G12G05
 128095142.881 6  99814462.13243  24375695.063                    24375701.590
 119408335.307 7  93045515.77445  22722651.297                    22722658.531
 117268849.626 7  91378408.534 7  22315519.844                    22315529.527
 117941244.572 7  91902323.621 7  22443469.273                    22443476.539
 110120435.280 8  85808224.455 7  20955223.492                    20955230.270
 114630223.032 7  89322359.51445  21813405.227                    21813412.563
 118902402.528 7  92651338.44345  22626357.805                    22626362.715
 127095125.196 6  99035216.02043  24185398.680                    24185407.125
 122472333.601 7  95433042.776 6  23305710.758                    23305717.773
 113383064.261 8  88350561.360 7  21576064.523                    21576071.109
 11  8 20  3 16  0.0000000  0 10G21G30G25G15G29G26G02G18G12G05
 128038131.585 7  99770037.84943  24364845.875                    24364852.574
 119478999.830 7  93100579.07245  22736098.125                    22736105.309
 117328085.966 7  91424566.716 7  22326792.492                    22326802.094
 117852744.297 7  91833362.406 7  22426628.406                    22426635.637
 110063068.608 7  85763523.180 7  20944307.203                    20944313.832
 114569148.550 7  89274769.02145  21801783.000                    21801790.254
 118951505.388 8  92689600.41245  22635701.664                    22635706.836
 127010983.316 6  98969651.05343  24169387.789                    24169394.789
 122565380.744 7  95505547.070 6  23323417.195                    23323424.352
 113456165.864 8  88407523.633 7  21589975.563                    21589981.977
 11  8 20  3 16 30.0000000  0 10G21G30G25G15G29G26G02G18G12G05
 127981090.705 6  99725590.50143  24353991.516                    24353998.188
 119549943.033 7  93155859.49444  22749598.320                    22749604.719
 117387681.708 7  91471004.956 7  22338133.031                    22338142.680
 117764465.935 7  91764574.112 7  22409829.719                    22409836.320
 110006043.442 8  85719087.999 7  20933455.688                    20933462.047
 114508565.037 7  89227561.13245  21790255.016                    21790261.523
 119000715.490 7  92727945.94945  22645066.117                    22645070.828
 126927041.177 6  98904241.74343  24153413.047                    24153420.855
 122658505.969 7  95578112.206 6  23341138.188                    23341144.941
 113529514.736 8  88464678.592 7  21603933.164                    21603939.703
 11  8 20  3 17  0.0000000  0 10G21G30G25G15G29G26G02G18G12G05
 127924019.840 6  99681119.79443  24343131.203                    24343138.129
 119621161.694 7  93211354.57045  22763150.781                    22763158.242
 117447634.214 8  91517721.187 7  22349542.039                    22349551.254
 117676412.324 7  91695960.951 7  22393073.625                    22393080.707
 109949362.357 7  85674920.939 7  20922669.422                    20922675.750
 114448476.109 7  89180738.62345  21778819.289                    21778827.023
 119050033.487 7  92766375.55145  22654451.172                    22654456.297
 126843300.401 6  98838989.27943  24137477.727                    24137485.527
 122751706.330 7  95650735.905 6  23358873.430                    23358880.109
 113603108.576 8  88522024.438 7  21617937.898                    21617943.922
 11  8 20  3 17 30.0000000  0 10G21G30G25G15G29G26G02G18G12G05
 127866918.628 6  99636625.39344  24332265.141                    24332272.043
 119692652.576 7  93267061.75544  22776754.914                    22776762.004
 117507940.382 7  91564712.997 7  22361017.609                    22361027.078
 117588586.371 7  91627525.180 7  22376360.609                    22376367.734
 109893027.390 8  85631023.579 7  20911949.039                    20911955.984
 114388884.517 7  89134303.63745  21767479.781                    21767487.133
 119099459.608 7  92804889.40845  22663856.102                    22663861.313
 126759761.352 7  98773894.00043  24121581.109                    24121588.434
 122844978.996 7  95723415.950 6  23376622.734                    23376629.457
 113676944.656 8  88579559.040 7  21631988.055                    21631994.590
 11  8 20  3 18  0.0000000  0 10G21G30G25G15G29G26G02G18G12G05
 127809786.519 7  99592106.94044  24321393.117                    24321399.625
 119764412.420 7  93322978.52245  22790410.133                    22790417.414
 117568597.429 7  91611978.229 7  22372560.367                    22372569.996
 117500991.501 7  91559269.483 7  22359691.688                    22359698.781
 109837040.732 8  85587397.623 7  20901295.406                    20901301.727
 114329793.232 7  89088258.51245  21756235.055                    21756242.242
 119148994.254 7  92843487.82245  22673282.430                    22673287.484
 126676425.629 7  98708957.18643  24105723.055                    24105729.730
 122938320.893 7  95796149.934 6  23394385.063                    23394391.973
 113751020.860 8  88637280.763 7  21646084.563                    21646091.063
